     2              OBSERVATION DATA    GPS                 RINEX VERSION / TYPE
ASRINEXO V2.9.7 UX USGS/MENLO_PARK 04-JUN-01 13:59          PGM / RUN BY / DATE
                                                            COMMENT
BIT 2 OF LLI (+4) FLAGS DATA COLLECTED UNDER "AS" CONDITION COMMENT
BIT 2 OF LLI (+4) FLAGS DATA COLLECTED UNDER "AS" CONDITION COMMENT
BIT 2 OF LLI (+4) FLAGS DATA COLLECTED UNDER "AS" CONDITION COMMENT
BIT 2 OF LLI (+4) FLAGS DATA COLLECTED UNDER "AS" CONDITION COMMENT
BIT 2 OF LLI (+4) FLAGS DATA COLLECTED UNDER "AS" CONDITION COMMENT
BIT 2 OF LLI (+4) FLAGS DATA COLLECTED UNDER "AS" CONDITION COMMENT
BIT 2 OF LLI (+4) FLAGS DATA COLLECTED UNDER "AS" CONDITION COMMENT
BIT 2 OF LLI (+4) FLAGS DATA COLLECTED UNDER "AS" CONDITION COMMENT
Original Marker Name: shr2 Shade_Rm2_CDWR                   COMMENT
Campaign Name: USGS-Parkfield                               COMMENT
4-Character Station Name: SHR2                              COMMENT
6-Character Antenna Code: DMRCHT                            COMMENT
Vertical Measurement Point: BCR                             COMMENT
Vertical Offset to Rinex Ref. Point: 0.0348                 COMMENT
Radial Measurement Point: ECF                               COMMENT
Radial Offset to Rinex Ref. Point: 0.1897                   COMMENT
Antenna Height from Field Measurement: 1.3255 m             COMMENT
Additional Antenna Identification Info.:                    COMMENT
Turborogue and Ashtech Choke Ring                           COMMENT
Original XYZ: -2635362.8694 -4441594.6881 3731269.8643      COMMENT
New XYZ position is based on association with SCEC monument COMMENT
E1F1N7F5+0011. Position of that monument is believed to be  COMMENT
valid to within 1 m horizontally; vertical accuracy         COMMENT
should be no worse than 3-times this value.                 COMMENT
                                                            COMMENT
Revised Rinex header created by UCSD GPS archive for        COMMENT
GSAC on 18-Oct-2001 (2001:291) 15:33:32 GMT                 COMMENT
For assistance contact dagnew@ucsd.edu                      COMMENT
or anderson@python.ucsd.edu                                 COMMENT
                                                            COMMENT
SHADE RM2                                                   MARKER NAME
GDH US GEOLOGICAL SURVEY                                    OBSERVER / AGENCY
O4582 ASHTECH Z-XII3 CD00                                   REC # / TYPE / VERS
CR14333 DORNE-MARGOL. TYPE T                                ANT # / TYPE
 -2635402.5698 -4441632.2489  3731271.3605                  APPROX POSITION XYZ
        1.2771        0.0000        0.0000                  ANTENNA: DELTA H/E/N
     1     1     0                                          WAVELENGTH FACT L1/2
     5    C1    L1    L2    P1    P2                        # / TYPES OF OBSERV
    30                                                      INTERVAL
  2001     5    22    19    27    0.000000                  TIME OF FIRST OBS
  2001     5    22    23    59    0.000000                  TIME OF LAST OBS
                                                            END OF HEADER
 01  5 22 19 27  0.0000000  0  5 15 17 18 23 06
  22288875.787     -672976.162 8   -511515.25246  22288874.902    22288885.7104
  21334693.757     -578627.624 9   -445840.50747  21334693.229    21334702.4134
  22976089.264     -806305.806 8   -604642.49046  22976088.665    22976099.8384
  22072158.767     -867963.095 8   -667106.18946  22072158.083    22072169.1034
  20285099.546     -441142.412 9   -343856.19647  20285099.408    20285107.6144
 01  5 22 19 27 30.0000000  0  6 15 17 18 23 06 30
  22276701.149     -736953.277 8   -561367.45146  22276700.451    22276711.2934
  21327563.315     -616098.225 9   -475038.34647  21327562.845    21327571.9964
  22956737.776     -907995.846 8   -683881.30746  22956737.582    22956748.7274
  22056786.331     -948745.615 8   -730053.49146  22056785.725    22056796.6554
  20284163.810     -446059.709 9   -347687.86147  20284163.686    20284171.8734
  22550717.867     -139281.029 8   -118348.42846  22550718.662    22550729.4204
 01  5 22 19 28  0.0000000  0  6 15 17 18 23 06 30
  22264565.511     -800727.489 8   -611061.55746  22264564.693    22264575.4144
  21320474.363     -653351.281 9   -504066.67147  21320473.873    21320482.9654
  22937431.956    -1009449.160 8   -762935.66246  22937431.637    22937442.8524
  22041481.085    -1029175.157 8   -792725.74146  22041480.560    22041491.4004
  20283306.067     -450567.529 9   -351200.44747  20283305.939    20283314.1144
  22569037.597      -43014.996 8    -43336.06946  22569037.551    22569048.2734
 01  5 22 19 28 30.0000000  0  6 15 17 18 23 06 30
  22252467.999     -864300.414 8   -660598.84346  22252467.158    22252477.8604
  21313426.345     -690388.801 9   -532927.03247  21313425.822    21313435.0014
  22918171.152    -1110665.229 8   -841805.16746  22918170.721    22918182.0854
  22026243.139    -1109251.518 8   -855122.79446  22026242.540    22026253.3904
  20282526.242     -454666.207 9   -354394.22047  20282526.079    20282534.1874
  22587400.324       53481.802 8     31856.09146  22587400.318    22587411.1594
 01  5 22 19 29  0.0000000  0  6 15 17 18 23 06 30
  22240409.324     -927668.265 8   -709976.31446  22240408.646    22240419.3354
  21306419.950     -727207.340 9   -561616.77047  21306419.443    21306428.6664
  22898956.399    -1211638.182 8   -920485.23746  22898956.003    22898967.4814
  22011073.244    -1188969.228 8   -917240.38346  22011072.652    22011083.6354
  20281825.148     -458350.805 9   -357265.33547  20281824.975    20281833.0404
  22605807.127      150210.063 8    107228.63746  22605807.165    22605818.1684
 01  5 22 19 29 30.0000000  0  7 15 17 18 10 23 06 30
  22228389.609     -990832.689 8   -759195.25746  22228388.847    22228399.5424
  21299454.985     -763808.744 9   -590137.29947  21299454.454    21299463.5724
  22879788.262    -1312367.685 8   -998975.58746  22879787.842    22879799.1014
  22624551.044     -161251.752 8   -137233.61946  22624549.460    22624559.6224
  21995971.600    -1268328.533 8   -979078.69546  21995971.016    21995981.9834
  20281202.791     -461621.800 9   -359814.15947  20281202.596    20281210.6244
  22624257.196      247165.193 8    182777.95746  22624257.252    22624268.2764
 01  5 22 19 30  0.0000000  0  7 15 17 18 10 23 06 30
  22216408.485    -1053793.869 8   -808255.84746  22216407.701    22216418.4364
  21292531.225     -800193.517 9   -618489.03447  21292530.638    21292539.7614
  22860666.943    -1412851.708 8  -1077274.65246  22860666.410    22860677.5134
  22641666.724      -71308.177 8    -67147.81446  22641665.141    22641675.3074
  21980938.594    -1347327.721 8  -1040636.38746  21980937.953    21980948.8774
  20280659.269     -464478.252 9   -362039.96447  20280659.072    20280667.0724
  22642749.866      344343.956 8    258501.52446  22642749.940    22642760.7694
 01  5 22 19 31  0.0000000  0  6 15 17 18 23 06 30
  22192554.101    -1179149.186 8   -905935.17146  22192553.395    22192564.0364
  21278799.006     -872356.598 9   -674719.93847  21278798.454    21278807.6054
  22822557.628    -1613115.738 8  -1233324.23246  22822557.193    22822568.3714
  21951071.260    -1504281.137 8  -1162937.54146  21951070.610    21951081.4024
  20279801.866     -468984.369 9   -365551.23147  20279801.645    20279809.5694
  22679852.502      539318.422 8    410429.38046  22679852.575    22679863.2594
 01  5 22 19 31 30.0000000  0  6 15 17 18 23 06 30
  22180684.361    -1241525.547 8   -954540.05646  22180683.582    22180694.1994
  21271993.968     -908117.863 9   -702585.82147  21271993.355    21272002.4894
  22803574.311    -1712874.255 8  -1311057.96346  22803573.824    22803584.8254
  21936241.027    -1582214.573 8  -1223664.78346  21936240.377    21936251.0864
  20279491.769     -470614.260 9   -366821.28047  20279491.530    20279499.4514
  22698464.798      637125.676 8    486642.67446  22698464.809    22698475.6554
 01  5 22 19 32  0.0000000  0  6 15 17 18 23 06 30
  22168852.051    -1303704.026 8  -1002990.74546  22168851.344    22168861.9594
  21265228.773     -943669.052 9   -730288.00847  21265228.189    21265237.2924
  22784638.363    -1812384.126 8  -1388597.95646  22784637.763    22784648.5244
  21921479.501    -1659786.590 8  -1284110.40446  21921478.846    21921489.5584
  20279260.347     -471830.409 9   -367768.92747  20279260.100    20279268.0934
  22717116.295      735139.275 8    563016.77046  22717116.298    22717127.3044
 01  5 22 19 32 30.0000000  0  7 15 17 18 23 06 26 30
  22157057.913    -1365682.414 8  -1051285.51846  22157057.248    22157067.7604
  21258503.960     -979008.390 9   -757825.11947  21258503.384    21258512.4634
  22765750.320    -1911640.945 8  -1465940.77946  22765749.720    22765760.4294
  21906787.369    -1736993.402 8  -1344271.45546  21906786.737    21906797.4644
  20279108.249     -472629.541 9   -368391.63147  20279108.036    20279115.9614
  22801224.244     -603108.938 8   -441725.55545  22801223.251    22801235.4124
  22735806.853      833358.150 8    639550.79846  22735806.888    22735817.8904
 01  5 22 19 33  0.0000000  0  7 15 17 18 23 06 26 30
  22145302.629    -1427457.264 8  -1099421.68546  22145301.937    22145312.3104
  21251820.034    -1014132.729 9   -785194.69647  21251819.432    21251828.5224
  22746911.330    -2010638.904 8  -1543081.87146  22746910.862    22746921.5954
  21892165.768    -1813829.918 8  -1404143.96546  21892165.169    21892175.8834
  20279036.504     -473006.907 9   -368685.69247  20279036.295    20279044.1804
  22788777.136     -668509.919 8   -492687.20445  22788778.267    22788789.9184
  22754536.486      931782.908 8    716245.26046  22754536.622    22754547.5594
 01  5 22 19 33 30.0000000  0  7 15 17 18 23 06 26 30
  22133585.931    -1489029.389 8  -1147399.87446  22133585.148    22133595.4354
  21245176.833    -1049042.987 9   -812397.45347  21245176.250    21245185.2664
  22728122.060    -2109376.826 8  -1620020.34646  22728121.499    22728132.2714
  21877614.883    -1890295.161 8  -1463727.17346  21877614.323    21877624.9384
  20279045.149     -472962.102 9   -368650.78147  20279044.889    20279052.7294
  22776403.873     -733533.745 8   -543354.99246  22776404.414    22776416.0254
  22773304.776     1030409.951 8    793097.34346  22773304.839    22773315.8234
 01  5 22 19 34  0.0000000  0  7 15 17 18 23 06 26 30
  22121906.515    -1550404.854 8  -1195224.85046  22121905.754    22121915.9684
  21238573.179    -1083745.389 9   -839438.25047  21238572.652    21238581.6024
  22709381.506    -2207858.238 8  -1696758.94746  22709380.933    22709391.6624
  21863133.899    -1966393.558 8  -1523024.51946  21863133.298    21863143.8064
  20279133.136     -472500.074 9   -368290.76247  20279132.868    20279140.6904
  22764101.581     -798183.116 8   -593730.96346  22764101.910    22764113.5084
  22792109.801     1129230.232 8    870100.00546  22792109.860    22792121.0124
 01  5 22 19 34 30.0000000  0  7 15 17 18 23 06 26 30
  22110264.584    -1611583.457 8  -1242896.40746  22110263.833    22110273.9964
  21232009.149    -1118239.977 9   -866317.11547  21232008.556    21232017.5054
  22690690.161    -2306081.128 8  -1773296.11246  22690689.672    22690700.2704
  21848722.979    -2042123.326 8  -1582034.61947  21848722.374    21848732.8544
  20279300.708     -471619.461 9   -367604.56947  20279300.432    20279308.2714
  22751871.259     -862454.809 8   -643812.65746  22751871.347    22751882.9334
  22810951.141     1228241.296 8    947251.32446  22810951.187    22810962.4484
 01  5 22 19 35  0.0000000  0  7 15 17 18 23 06 26 30
  22098659.867    -1672565.990 8  -1290415.18146  22098659.097    22098669.2874
  21225484.320    -1152527.927 9   -893034.95347  21225483.753    21225492.7184
  22672048.321    -2404044.206 8  -1849630.80646  22672047.928    22672058.2894
  21834382.237    -2117483.682 8  -1640756.88347  21834381.732    21834392.1834
  20279548.060     -470319.926 9   -366591.94747  20279547.781    20279555.6064
  22739713.086     -926346.154 8   -693597.97545  22739713.125    22739724.9584
  22829828.074     1327438.880 8   1024547.98046  22829828.118    22829839.2154
 01  5 22 19 35 30.0000000  0  8 15 17 18 10 23 06 26 30
  22087092.825    -1733351.026 8  -1337780.06646  22087092.035    22087102.2614
  21218999.176    -1186607.824 9   -919590.68247  21218998.613    21219007.4664
  22653456.922    -2501743.510 8  -1925759.95846  22653456.339    22653466.5374
  22833424.996                                    22833432.344    22833428.6134
  21820112.630    -2192471.516 8  -1699188.86647  21820112.031    21820122.4494
  20279875.649     -468598.797 9   -365250.81747  20279875.364    20279883.1724
  22727628.135     -989852.715 8   -743083.47846  22727628.131    22727640.1124
  22848740.154     1426821.723 8   1101988.99546  22848740.216    22848751.1474
 01  5 22 19 36  0.0000000  0  8 15 17 18 10 23 06 26 30
  22075563.747    -1793936.468 8  -1384989.41746  22075562.986    22075573.2844
  21212553.952    -1220478.353 9   -945983.26247  21212553.325    21212562.1284
  22634916.162    -2599175.402 8  -2001680.76146  22634915.534    22634925.7544
  22851162.280     -170114.93255                  22851159.641    22851172.7784
  21805914.440    -2267083.282 8  -1757327.80147  21805913.820    21805924.2744
  20280283.974     -466453.313 9   -363579.01247  20280283.692    20280291.5274
  22715617.122    -1052969.577 8   -792265.30946  22715617.136    22715629.3444
  22867687.093     1526388.765 8   1179573.53146  22867687.289    22867698.2544
 01  5 22 19 36 30.0000000  0  8 15 17 18 10 23 06 26 30
  22064072.473    -1854322.856 8  -1432043.66746  22064071.781    22064082.1004
  21206148.308    -1254140.093 9   -972213.16047  21206147.689    21206156.5764
  22616426.242    -2696338.408 8  -2077392.03946  22616425.894    22616436.1994
  22868948.519     -107749.93718    -97284.16346  22868947.977    22868957.7984
  21791787.971    -2341318.158 8  -1815173.06647  21791787.340    21791797.8174
  20280773.096     -463882.934 9   -361576.12947  20280772.823    20280780.7084
  22703680.896    -1115693.980 8   -841141.35046  22703680.989    22703693.1794
  22886668.711     1626136.408 8   1257298.79046  22886668.848    22886679.7484
 01  5 22 19 37  0.0000000  0  8 15 17 18 10 23 06 26 30
  22052618.901    -1914512.237 8  -1478944.39246  22052618.150    22052628.3624
  21199781.945    -1287595.342 9   -998282.15047  21199781.377    21199790.2224
  22597988.120    -2793232.020 8  -2152893.39546  22597987.669    22597997.8604
  22886783.000      -14032.863 8    -24257.97246  22886781.751    22886791.4134
  21777733.186    -2415176.345 8  -1872724.80047  21777732.529    21777742.9964
  20281342.944     -460888.455 9   -359242.77947  20281342.699    20281350.5744
  22691819.714    -1178024.885 8   -889710.73346  22691819.680    22691831.9114
  22905683.832     1726059.854 8   1335161.01646  22905683.845    22905694.7104
 01  5 22 19 37 30.0000000  0  8 15 17 18 10 23 06 26 30
  22041202.830    -1974503.801 8  -1525690.99546  22041202.123    22041212.2704
  21193455.112    -1320843.567 9  -1024189.82047  21193454.487    21193463.2184
  22579601.733    -2889853.767 8  -2228182.90746  22579601.108    22579611.1794
  22904663.683       79932.648 8     48961.79546  22904662.672    22904672.2734
  21763750.483    -2488655.785 8  -1929981.41747  21763749.780    21763760.2884
  20281993.834     -457468.253 9   -356577.69747  20281993.578    20282001.4804
  22680034.236    -1239958.225 8   -937970.37546  22680034.229    22680046.3794
  22924731.752     1826156.589 8   1413158.30246  22924731.688    22924742.7504
 01  5 22 19 38  0.0000000  0  8 15 17 18 10 23 06 26 30
  22029824.893    -2034295.258 8  -1572281.68546  22029824.180    22029834.3084
  21187167.874    -1353882.967 9  -1049934.77447  21187167.269    21187175.9514
  22561267.553    -2986199.192 8  -2303257.11446  22561267.040    22561277.1164
  22922591.961      174146.414 8    122375.00446  22922591.040    22922600.6574
  21749840.546    -2561752.652 8  -1986939.92747  21749839.850    21749850.3724
  20282726.434     -453618.909 9   -353578.22447  20282726.151    20282733.9784
  22668325.382    -1301488.996 8   -985916.30446  22668325.355    22668337.2994
  22943812.250     1926426.021 8   1491290.16046  22943812.399    22943823.6834
 01  5 22 19 38 30.0000000  0  8 15 17 18 10 23 06 26 30
  22018484.926    -2093887.438 8  -1618717.08046  22018484.150    22018494.2374
  21180920.294    -1386714.430 9  -1075517.70447  21180919.694    21180928.3594
  22542986.339    -3082266.788 8  -2378114.83646  22542985.916    22542995.9684
  22940566.964      268604.780 8    195978.81846  22940565.986    22940575.5654
  21736003.607    -2634466.163 8  -2043599.71547  21736002.938    21736013.3804
  20283540.633     -449340.159 9   -350244.13947  20283540.367    20283548.1964
  22656693.439    -1362614.905 8  -1033546.76946  22656693.417    22656705.2964
  22962925.356     2026864.366 8   1569553.61446  22962925.337    22962936.6894
 01  5 22 19 39  0.0000000  0  8 15 17 18 10 23 06 26 30
  22007182.676    -2153281.100 8  -1664997.79246  22007181.865    22007191.8994
  21174712.096    -1419338.956 9  -1100939.38047  21174711.462    21174720.1604
  22524758.453    -3178055.354 8  -2452755.12746  22524757.985    22524767.9124
  22958587.637      363304.225 8    269770.48146  22958586.681    22958596.3364
  21722239.933    -2706795.624 8  -2099960.23247  21722239.177    21722249.4784
  20284436.727     -444631.677 9   -346575.21047  20284436.457    20284444.1724
  22645139.368    -1423333.400 8  -1080859.75846  22645139.306    22645150.8434
  22982070.043     2127467.822 8   1647945.72246  22982069.824    22982080.9904
 01  5 22 19 39 30.0000000  0  8 15 17 18 10 23 06 26 30
  21995918.286    -2212475.714 8  -1711123.39846  21995917.503    21995927.5114
  21168543.165    -1451756.443 9  -1126199.73147  21168542.543    21168551.2644
  22506583.962    -3273562.455 8  -2527176.09546  22506583.497    22506593.3754
  22976653.775      458242.360 8    343748.13346  22976652.824    22976662.5494
  21708549.573    -2778739.114 8  -2156020.00147  21708548.794    21708558.9654
  20285414.814     -439492.107 9   -342570.35647  20285414.490    20285422.1894
  22633663.247    -1483640.982 8  -1127852.56946  22633663.072    22633674.5574
  23001245.364     2228234.260 8   1726464.82346  23001245.219    23001256.3474
 01  5 22 19 40  0.0000000  0  8 15 17 18 10 23 06 26 30
  21984691.785    -2271470.988 8  -1757093.66646  21984691.045    21984701.0444
  21162413.739    -1483966.731 9  -1151298.62747  21162413.146    21162421.8144
  22488463.346    -3368785.740 8  -2601375.90846  22488462.921    22488472.7864
  22994764.990      553417.343 8    417910.34046  22994764.006    22994773.8724
  21694932.873    -2850294.913 8  -2211777.67747  21694932.091    21694942.2234
  20286475.095     -433920.178 9   -338228.59947  20286474.786    20286482.5254
  22622265.675    -1543534.430 8  -1174522.67046  22622265.532    22622276.8714
  23020451.070     2329160.668 8   1805108.58646  23020451.093    23020462.1824
 01  5 22 19 40 30.0000000  0  8 15 17 18 10 23 06 26 30
  21973503.071    -2330267.584 8  -1802909.11946  21973502.371    21973512.4044
  21156323.664    -1515970.534 9  -1176236.63347  21156323.072    21156331.7594
  22470397.232    -3463723.501 8  -2675353.23846  22470396.838    22470406.6774
  23012920.795      648825.537 8    492254.25746  23012919.717    23012929.7234
  21681390.004    -2921462.027 8  -2267232.48547  21681389.337    21681399.4714
  20287617.779     -427915.499 9   -333549.63747  20287617.485    20287625.2254
  22610947.484    -1603011.076 8  -1220868.00146  22610947.427    22610958.7834
  23039686.820     2430243.627 8   1883874.31546  23039686.866    23039697.9104
 01  5 22 19 41  0.0000000  0  8 15 17 18 10 23 06 26 30
  21962352.199    -2388865.896 8  -1848570.05246  21962351.431    21962361.5244
  21150272.697    -1547768.707 9  -1201014.40847  21150272.111    21150280.8384
  22452385.848    -3558374.227 8  -2749106.90546  22452385.427    22452395.2194
  23031120.353      744463.647 8    566777.33846  23031119.237    23031129.2524
  21667921.420    -2992239.405 8  -2322383.60947  21667920.761    21667930.9114
  20288842.859     -421477.568 9   -328533.07347  20288842.587    20288850.3614
  22599709.202    -1662068.481 8  -1266886.64746  22599709.157    22599720.5454
  23058951.597     2531479.655 8   1962759.32746  23058951.630    23058962.7704
 01  5 22 19 41 30.0000000  0  8 15 17 18 10 23 06 26 30
  21951239.126    -2447265.055 8  -1894075.81046  21951238.404    21951248.4244
  21144260.888    -1579360.751 9  -1225631.55247  21144260.264    21144269.0164
  22434429.511    -3652735.095 8  -2822634.71746  22434429.048    22434438.8854
  23049363.274      840329.863 8    641478.16046  23049362.178    23049372.2404
  21654527.552    -3062624.835 8  -2377229.31647  21654526.833    21654536.9614
  20290150.762     -414604.651 9   -323177.56647  20290150.491    20290158.2454
  22588551.292    -1720702.792 8  -1312575.62746  22588551.292    22588562.6694
  23078244.734     2632866.494 8   2041761.85646  23078244.933    23078256.2734
 01  5 22 19 42  0.0000000  0  8 15 17 18 10 23 06 26 30
  21940164.033    -2505465.273 8  -1939426.54846  21940163.321    21940173.2584
  21138288.152    -1610747.069 9  -1250088.39147  21138287.588    21138296.3394
  22416528.639    -3746804.237 8  -2895935.20046  22416528.131    22416537.9944
  23067649.261      936421.505 8    716354.64046  23067648.099    23067658.0504
  21641208.377    -3132617.144 8  -2431768.69947  21641207.684    21641217.7674
  20291541.694     -407295.796 9   -317482.36147  20291541.408    20291549.1224
  22577474.519    -1778911.224 8  -1357932.74446  22577474.579    22577485.7674
  23097566.291     2734401.269 8   2120879.66146  23097566.497    23097577.8844
 01  5 22 19 42 30.0000000  0  8 15 17 18 10 23 06 26 30
  21929126.588    -2563467.229 8  -1984622.81046  21929125.852    21929135.8304
  21132354.616    -1641928.247 9  -1274385.38347  21132354.046    21132362.7964
  22398683.508    -3840580.124 8  -2969007.19246  22398683.065    22398692.8864
  23085977.406     1032735.506 8    791404.39046  23085976.201    23085986.1564
  21627964.236    -3202215.406 8  -2486001.02847  21627963.572    21627973.5604
  20293015.612     -399550.656 9   -311447.19647  20293015.288    20293023.0484
  22566479.574    -1836691.310 8  -1402956.07946  22566479.512    22566490.4344
  23116915.567     2836080.594 8   2200110.07946  23116915.692    23116927.1034
 01  5 22 19 43  0.0000000  0  8 15 17 18 10 23 06 26 30
  21918126.951    -2621270.215 8  -2029664.03546  21918126.237    21918136.1774
  21126460.131    -1672904.057 9  -1298522.35847  21126459.536    21126468.2634
  22380894.751    -3934060.246 8  -3041848.70746  22380894.290    22380903.9984
  23104347.158     1129269.630 8    866625.66946  23104346.014    23104356.1144
  21614795.535    -3271417.565 8  -2539924.70147  21614794.849    21614804.7874
  20294572.768     -391367.743 9   -305070.91447  20294572.480    20294580.1954
  22555566.516    -1894039.411 8  -1447642.82946  22555566.436    22555577.3074
  23136291.737     2937901.802 8   2279451.08646  23136291.778    23136303.3104
 01  5 22 19 43 30.0000000  0  8 15 17 18 10 23 06 26 30
  21907165.408    -2678873.874 8  -2074549.91846  21907164.625    21907174.4794
  21120604.774    -1703674.320 9  -1322499.16347  21120604.190    21120612.8404
  22363162.597    -4027242.294 8  -3114457.96246  22363162.155    22363171.8354
  23122758.404     1226021.559 8    942016.66246  23122757.308    23122767.5094
  21601702.383    -3340221.788 8  -2593538.30147  21601701.753    21601711.6824
  20296213.593     -382745.721 9   -298352.47047  20296213.274    20296220.8924
  22544736.361    -1950952.279 8  -1491990.41546  22544736.244    22544746.9764
  23155694.302     3039862.390 8   2358900.66046  23155694.356    23155705.9994
 01  5 22 19 44  0.0000000  0  8 15 17 18 10 23 06 26 30
  21896241.671    -2736278.529 8  -2119280.74446  21896240.858    21896250.7564
  21114788.472    -1734239.798 9  -1346316.38947  21114787.846    21114796.4294
  22345487.575    -4120124.519 8  -3186833.58946  22345487.122    22345496.7064
  23141210.481     1322987.728 8   1017574.60845  23141209.354    23141219.6514
  21588685.182    -3408627.417 8  -2646841.30647  21588684.535    21588694.4494
  20297937.908     -373684.301 9   -291291.63147  20297937.620    20297945.2144
  22533989.518    -2007427.395 8  -1535996.87946  22533989.404    22533999.9014
  23175122.666     3141959.039 8   2438456.28046  23175122.856    23175134.4164
 01  5 22 19 44 30.0000000  0  8 15 17 18 10 23 06 26 30
  21885355.742    -2793484.062 8  -2163856.41546  21885354.994    21885364.8934
  21109011.028    -1764600.481 9  -1369974.04247  21109010.416    21109019.0294
  22327870.099    -4212704.771 8  -3258973.91746  22327869.627    22327879.0084
  23159702.859     1420166.036 8   1093297.83945  23159701.812    23159712.2194
  21575744.073    -3476632.893 8  -2699832.50347  21575743.414    21575753.4024
  20299746.094     -364182.146 9   -283887.35847  20299745.798    20299753.4564
  22523326.297    -2063461.600 8  -1579659.81246  22523326.346    22523336.8084
  23194576.596     3244188.930 8   2518115.71146  23194576.718    23194588.2194
 01  5 22 19 45  0.0000000  0  8 15 17 18 10 23 06 26 30
  21874507.676    -2850491.091 8  -2208277.41146  21874506.914    21874516.7364
  21103272.341    -1794757.153 9  -1393472.72147  21103271.779    21103280.3854
  22310310.466    -4304981.536 8  -3330877.76446  22310309.964    22310319.0864
  23178235.020     1517553.526 8   1169184.07945  23178234.052    23178244.7344
  21562879.340    -3544237.533 9  -2752511.36247  21562878.690    21562888.6394
  20301638.230     -354238.943 9   -276139.41947  20301637.978    20301645.6464
  22512747.669    -2119052.545 8  -1622977.34046  22512747.669    22512758.0874
  23214055.199     3346548.737 8   2597876.37846  23214055.374    23214066.8824
 01  5 22 19 45 30.0000000  0  8 15 17 18 10 23 06 26 30
  21863697.426    -2907299.200 8  -2252543.39746  21863696.678    21863706.4024
  21097572.595    -1824709.637 9  -1416812.29947  21097572.025    21097580.5734
  22292808.971    -4396952.615 8  -3402543.41646  22292808.390    22292817.4344
  23196806.630     1615147.586 8   1245231.26645  23196805.735    23196816.4114
  21550091.231    -3611439.493 8  -2804876.44747  21550090.603    21550100.4624
  20303614.568     -343853.659 9   -268047.00647  20303614.300    20303621.9804
  22502253.998    -2174196.891 8  -1665946.87646  22502254.024    22502264.4924
  23233558.042     3449035.737 8   2677736.12946  23233558.242    23233569.7374
 01  5 22 19 46  0.0000000  0  8 15 17 18 10 23 06 26 30
  21852924.961    -2963908.867 8  -2296654.75746  21852924.166    21852933.8864
  21091911.554    -1854458.783 9  -1439993.42247  21091910.984    21091919.5454
  22275365.839    -4488616.692 8  -3473969.85446  22275365.186    22275374.3334
  23215416.878     1712945.086 8   1321436.98045  23215415.942    23215426.8724
  21537379.812    -3678237.968 8  -2856927.12947  21537379.193    21537389.0774
  20305675.051     -333025.986 9   -259609.87047  20305674.764    20305682.4644
  22491845.940    -2228892.308 8  -1708566.57846  22491845.879    22491856.2134
  23253084.496     3551646.389 8   2757692.25546  23253084.733    23253096.1854
 01  5 22 19 46 30.0000000  0  8 15 17 18 10 23 06 26 30
  21842190.174    -3020319.817 8  -2340611.27346  21842189.437    21842199.1344
  21086289.145    -1884004.447 9  -1463015.99847  21086288.586    21086297.2414
  22257981.414    -4579971.173 8  -3545155.04946  22257980.871    22257990.1294
  23234065.458     1810943.767 8   1397799.46245  23234064.571    23234075.6004
  21524745.424    -3744631.481 8  -2908662.25547  21524744.840    21524754.7394
  20307819.871     -321754.750 9   -250827.10047  20307819.589    20307827.3424
  22481523.701    -2283135.768 8  -1750834.11346  22481523.665    22481533.8114
  23272633.928     3654378.104 8   2837742.69946  23272634.150    23272645.6284
 01  5 22 19 47  0.0000000  0  8 15 17 18 10 23 06 26 30
  21831493.339    -3076532.124 8  -2384412.99246  21831492.602    21831502.2114
  21080705.513    -1913346.829 9  -1485880.16647  21080704.932    21080713.5744
  22240656.296    -4671014.128 8  -3616097.50446  22240655.865    22240665.1434
  23252751.930     1909141.225 8   1474316.81646  23252751.015    23252762.2154
  21512188.497    -3810618.647 9  -2960080.75347  21512187.882    21512197.7044
  20310049.335     -310038.926 9   -241697.89947  20310049.086    20310056.7944
  22471288.062    -2336924.143 8  -1792747.04046  22471288.071    22471298.0224
  23292205.913     3757228.099 8   2917885.31246  23292206.031    23292217.6064
 01  5 22 19 47 30.0000000  0  8 15 17 18 10 23 06 26 30
  21820834.211    -3132545.847 8  -2428059.97446  21820833.492    21820843.1164
  21075160.421    -1942486.184 9  -1508586.13147  21075159.871    21075168.4834
  22223390.869    -4761743.888 8  -3686795.89446  22223390.517    22223399.8104
  23271475.526     2007534.234 8   1550986.57345  23271474.723    23271485.9964
  21499709.162    -3876198.300 9  -3011181.70047  21499708.482    21499718.2394
  20312363.483     -297877.963 9   -232221.83447  20312363.214    20312370.9544
  22461139.486    -2390254.721 8  -1834303.24946  22461139.506    22461149.4334
  23311799.528     3860193.404 8   2998117.76846  23311799.727    23311811.3874
 01  5 22 19 48  0.0000000  0  8 15 17 18 10 23 06 26 30
  21810212.942    -3188360.145 8  -2471551.56946  21810212.294    21810221.9724
  21069654.063    -1971422.106 9  -1531133.58747  21069653.543    21069662.2004
  22206185.677    -4852157.779 8  -3757248.17246  22206185.198    22206194.5964
  23290236.090     2106121.048 8   1627807.36345  23290235.255    23290246.4104
  21487307.621    -3941368.453 9  -3061963.57247  21487306.957    21487316.7184
  20314762.711     -285270.259 9   -222397.66347  20314762.452    20314770.1244
  22451078.735    -2443124.126 8  -1875500.08246  22451078.742    22451088.6944
  23331414.499     3963271.763 8   3078438.32346  23331414.877    23331426.7914
 01  5 22 19 48 30.0000000  0  8 15 17 18 10 23 06 26 30
  21799629.623    -3243975.922 8  -2514888.47346  21799628.991    21799638.5974
  21064186.193    -2000155.714 9  -1553523.39047  21064185.678    21064194.3394
  22189040.792    -4942254.753 8  -3827453.48846  22189040.297    22189049.6524
  23309032.900     2204898.290 8   1704776.53945  23309032.072    23309043.1854
  21474984.095    -4006128.825 9  -3112426.12147  21474983.448    21474993.1664
  20317246.961     -272215.950 9   -212225.48847  20317246.693    20317254.3064
  22441106.226    -2495530.324 8  -1916335.99946  22441106.176    22441116.1804
  23351050.412     4066459.104 8   3158843.80945  23351050.833    23351062.9854
 01  5 22 19 49  0.0000000  0  8 15 17 18 10 23 06 26 30
  21789083.976    -3299393.368 8  -2558070.84546  21789083.292    21789092.9274
  21058756.806    -2028687.237 9  -1575755.72747  21058756.306    21058764.8754
  22171956.491    -5032032.921 8  -3897410.38946  22171956.034    22171965.2784
  23327865.354     2303863.189 8   1781891.91445  23327864.545    23327875.6784
  21462738.735    -4070478.365 9  -3162568.55347  21462738.106    21462747.8254
  20319816.233     -258714.305 9   -201704.74247  20319815.974    20319823.5894
  22431222.278    -2547470.670 8  -1956808.90446  22431222.089    22431232.2534
  23370706.897     4169752.617 8   3239332.00646  23370707.185    23370719.3664
 01  5 22 19 49 30.0000000  0  8 15 17 18 10 23 06 26 30
  21778576.113    -3354611.999 8  -2601098.30846  21778575.486    21778585.0694
  21053365.969    -2057016.597 9  -1597830.53547  21053365.478    21053373.9264
  22154933.194    -5121490.054 8  -3967117.15246  22154932.770    22154941.9734
  23346733.214     2403013.649 8   1859151.88645  23346732.413    23346743.5564
  21450571.789    -4134415.527 9  -3212389.65547  21450571.199    21450580.9004
  20322470.926     -244764.334 9   -190834.65647  20322470.666    20322478.1834
  22421427.439    -2598941.800 8  -1996916.19046  22421427.329    22421437.4934
  23390382.986     4273149.944 8   3319901.08946  23390383.334    23390395.4424
 01  5 22 19 50  0.0000000  0  8 15 17 18 10 23 06 26 30
  21768106.182    -3409632.134 8  -2643971.08046  21768105.524    21768115.0794
  21048013.551    -2085144.072 9  -1619748.02347  21048013.004    21048021.4694
  22137971.307    -5210624.513 8  -4036572.47046  22137970.982    22137980.2104
  23365635.852     2502346.538 8   1936554.00645  23365635.008    23365646.0824
  21438483.618    -4197939.338 9  -3261888.65547  21438483.027    21438492.6184
  20325211.002     -230365.482 9   -179614.78847  20325210.709    20325218.2334
  22411722.553    -2649941.403 8  -2036656.03646  22411722.417    22411732.4544
  23410078.169     4376647.792 8   3400548.49545  23410078.519    23410090.6474
 01  5 22 19 50 30.0000000  0  8 15 17 18 10 23 06 26 30
  21757673.859    -3464453.958 8  -2686689.33846  21757673.196    21757682.8244
  21042699.321    -2113070.356 9  -1641508.74347  21042698.793    21042707.3224
  22121071.219    -5299434.726 8  -4105775.11946  22121070.872    22121080.1454
  23384572.482     2601858.922 8   2014095.98845  23384571.668    23384582.7664
  21426474.231    -4261048.953 9  -3311064.90847  21426473.641    21426483.2144
  20328036.448     -215517.353 9   -168044.83247  20328036.223    20328043.7774
  22402107.705    -2700466.979 8  -2076026.51346  22402107.574    22402117.9244
  23429791.842     4480242.663 8   3481271.52045  23429792.142    23429804.3294
 01  5 22 19 51  0.0000000  0  8 15 17 18 10 23 06 26 30
  21747279.417    -3519077.067 8  -2729252.72946  21747278.773    21747288.3544
  21037423.463    -2140795.170 9  -1663112.47147  21037422.935    21037431.4964
  22104233.262    -5387918.218 8  -4174723.19846  22104232.928    22104242.2324
  23403542.953     2701549.101 8   2091776.50245  23403542.125    23403553.3184
  21414544.015    -4323742.735 9  -3359917.13047  21414543.380    21414552.9834
  20330947.658     -200218.797 9   -156123.89747  20330947.428    20330955.0424
  22392583.728    -2750515.347 8  -2115025.15346  22392583.617    22392594.0244
  23449523.760     4583932.372 8   3562068.42145  23449523.911    23449536.1274
 01  5 22 19 51 30.0000000  0  8 15 17 18 10 23 06 26 30
  21736922.649    -3573501.828 8  -2771661.57747  21736921.982    21736931.6444
  21032185.815    -2168319.010 9  -1684559.60347  21032185.311    21032193.8454
  22087457.802    -5476073.650 8  -4243415.63946  22087457.432    22087466.6624
  23422546.755     2801413.737 8   2169592.96545  23422545.859    23422557.1254
  21402692.999    -4386019.920 9  -3408444.74147  21402692.345    21402701.9434
  20333944.686     -184469.282 9   -143851.56847  20333944.453    20333952.0994
  22383151.061    -2800084.185 8  -2153650.12446  22383150.977    22383161.3334
  23469273.178     4687713.732 8   3642936.74645  23469273.169    23469285.4424
 01  5 22 19 52  0.0000000  0  8 15 17 18 10 23 06 26 30
  21726603.617    -3627728.373 8  -2813915.97047  21726603.065    21726612.7034
  21026986.348    -2195642.252 9  -1705850.41847  21026985.851    21026994.4214
  22070745.096    -5563899.212 8  -4311851.03046  22070744.692    22070753.9284
  23441583.130     2901450.204 8   2247543.32045  23441582.250    23441593.5654
  21390921.382    -4447879.664 9  -3456647.06447  21390920.774    21390930.3904
  20337027.605     -168268.522 9   -131227.61147  20337027.409    20337035.0554
  22373810.158    -2849170.942 8  -2191899.45146  22373810.044    22373820.3294
  23489039.261     4791583.505 8   3723873.94745  23489039.266    23489051.5464
 01  5 22 19 52 30.0000000  0  8 15 17 18 10 23 06 26 30
  21716322.685    -3681756.044 8  -2856015.37847  21716322.003    21716331.5484
  21021825.108    -2222764.576 9  -1726984.68147  21021824.614    21021833.2274
  22054095.532    -5651392.422 8  -4380027.45746  22054095.158    22054104.4344
  23460651.869     3001656.585 8   2325626.07045  23460650.989    23460662.4074
  21379229.581    -4509320.088 9  -3504522.64347  21379228.978    21379238.6234
  20340196.689     -151615.256 9   -118251.06247  20340196.475    20340204.0274
  22364561.445    -2897772.225 8  -2229770.51146  22364561.466    22364571.7384
  23508821.613     4895539.292 8   3804878.17445  23508821.611    23508833.9054
 01  5 22 19 53  0.0000000  0  8 15 17 18 10 23 06 26 30
  21706079.312    -3735584.425 8  -2897959.52446  21706078.665    21706088.2724
  21016702.179    -2249685.670 9  -1747962.13747  21016701.690    21016710.3294
  22037509.693    -5738551.072 8  -4447943.20146  22037509.350    22037518.6424
  23479752.565     3102030.806 8   2403839.60145  23479751.586    23479763.0894
  21367617.955    -4570339.621 9  -3552070.25547  21367617.356    21367626.9424
  20343452.089     -134508.289 9   -104920.97847  20343451.891    20343459.4644
  22355405.814    -2945885.055 8  -2267260.93046  22355405.865    22355416.0634
  23528619.670     4999578.884 8   3885947.69845  23528619.895    23528632.2004
 01  5 22 19 53 30.0000000  0  8 15 17 18 10 23 06 26 30
  21695873.884    -3789214.045 8  -2939748.77447  21695873.299    21695882.8234
  21011617.359    -2276406.137 9  -1768783.25847  21011616.930    21011625.5784
  22020987.935    -5825373.753 8  -4515597.14246  22020987.498    22020996.8014
  23498884.515     3202569.701 8   2482181.45045  23498883.582    23498895.2214
  21356086.504    -4630937.836 9  -3599289.56447  21356085.889    21356095.4684
  20346793.863     -116947.482 9    -91237.24947  20346793.658    20346801.2244
  22346343.597    -2993507.132 8  -2304368.93946  22346343.618    22346353.8124
  23548433.171     5103698.791 8   3967079.81145  23548433.478    23548445.8234
 01  5 22 19 54  0.0000000  0  8 15 17 18 10 23 06 26 30
  21685706.262    -3842645.808 8  -2981383.84847  21685705.569    21685715.0304
  21006570.692    -2302927.127 9  -1789448.94847  21006570.214    21006578.7484
  22004530.222    -5911859.562 8  -4582988.58146  22004529.701    22004539.0084
  23518047.315     3303270.313 8   2560649.31945  23518046.405    23518058.0924
  21344635.170    -4691114.552 9  -3646180.44147  21344634.557    21344644.1304
  20350221.948      -98933.014 9    -77200.02447  20350221.705    20350229.2834
  22337374.901    -3040636.813 8  -2341093.27346  22337374.928    22337385.2314
  23568261.351     5207895.259 8   4048271.57045  23568261.681    23568274.0064
 01  5 22 19 54 30.0000000  0  8 15 17 18 10 23 06 26 30
  21675576.081    -3895879.592 8  -3022864.65446  21675575.411    21675584.8814
  21001561.922    -2329248.573 9  -1809959.15747  21001561.422    21001569.9024
  21988136.800    -5998006.364 8  -4650115.86746  21988136.410    21988145.7114
  23537240.339     3404129.805 8   2639240.98745  23537239.378    23537251.2794
  21333264.339    -4750868.435 9  -3692741.83947  21333263.749    21333273.3004
  20353736.425      -80463.955 9    -62808.56847  20353736.242    20353743.8764
  22328500.567    -3087271.306 8  -2377431.74246  22328500.541    22328510.8994
  23588103.751     5312165.908 8   4129521.14245  23588103.895    23588116.3774
 01  5 22 19 55  0.0000000  0  8 15 17 18 10 23 06 26 30
  21665483.743    -3948914.960 8  -3064190.84947  21665483.108    21665492.5484
  20996591.129    -2355370.164 9  -1830313.63447  20996590.633    20996599.1354
  21971808.476    -6083811.991 8  -4716977.29946  21971808.094    21971817.2894
  23556463.070     3505146.234 8   2717954.95045  23556462.201    23556474.1264
  21321974.310    -4810198.048 9  -3738972.63647  21321973.695    21321983.2044
  20357337.693      -61539.192 9    -48062.02447  20357337.459    20357345.1964
  22319720.980    -3133407.437 8  -2413381.88546  22319720.970    22319731.3744
  23607959.491     5416508.218 8   4210826.54145  23607959.680    23607972.5524
 01  5 22 19 55 30.0000000  0  8 15 17 18 10 23 06 26 30
  21655429.400    -4001751.249 8  -3105361.91947  21655428.669    21655438.0634
  20991658.376    -2381291.492 9  -1850512.05547  20991657.908    20991666.4464
  21955545.565    -6169274.086 8  -4783571.05347  21955545.232    21955554.2974
  23575715.270     3606317.833 8   2796789.81745  23575714.512    23575726.5954
  21310765.304    -4869101.647 9  -3784871.47947  21310764.725    21310774.1484
  20361025.830      -42157.577 9    -32959.48647  20361025.655    20361033.4904
  22311036.854    -3179042.056 8  -2448941.24546  22311036.881    22311047.3494
  23627828.458     5520919.849 8   4292185.96445  23627828.684    23627841.9354
 01  5 22 19 56  0.0000000  0  8 15 17 18 10 23 06 26 30
  21645412.655    -4054389.035 8  -3146378.31747  21645411.983    21645421.3274
  20986763.647    -2407013.584 9  -1870555.22147  20986763.186    20986771.6674
  21939348.240    -6254391.548 8  -4849896.25347  21939347.896    21939356.9544
  23594996.596     3707641.312 7   2875743.03845  23594995.884    23595007.9934
  21299637.453    -4927579.266 9  -3830438.38547  21299636.818    21299646.1794
  20364800.989      -22319.471 9    -17501.24747  20364800.792    20364808.5084
  22302448.451    -3224173.425 8  -2484108.45046  22302448.576    22302458.9184
  23647710.057     5625396.933 8   4373596.37845  23647710.260    23647723.6154
 01  5 22 19 56 30.0000000  0  8 15 17 18 10 23 06 26 30
  21635433.815    -4106828.282 8  -3187239.99447  21635433.141    21635442.5104
  20981906.834    -2432536.681 9  -1890443.33247  20981906.348    20981914.7704
  21923216.794    -6339162.851 8  -4915951.71947  21923216.403    21923225.5184
  23614306.179     3809113.745 7   2954812.31145  23614305.476    23614317.7164
  21288590.698    -4985629.891 9  -3875672.57547  21288590.096    21288599.4604
  20368663.026       -2024.370 9     -1686.90547  20368662.828    20368670.5064
  22293956.313    -3268799.129 8  -2518881.63846  22293956.466    22293966.9584
  23667603.643     5729936.806 8   4455055.71545  23667603.828    23667617.1734
 01  5 22 19 57  0.0000000  0  8 15 17 18 10 23 06 26 30
  21625492.664    -4159069.528 8  -3227947.40247  21625491.964    21625501.3394
  20977087.749    -2457861.183 9  -1910176.69747  20977087.285    20977095.6554
  21907151.423    -6423586.363 8  -4981736.19547  21907151.065    21907160.2274
  23633643.573     3910732.424 8   3033995.54745  23633642.919    23633655.3294
  21277625.327    -5043252.739 9  -3920573.43347  21277624.767    21277634.1314
  20372612.119       18727.929 9     14483.69147  20372611.924    20372619.5344
  22285560.964    -3312916.919 8  -2553259.07646  22285561.107    22285571.5064
  23687508.541     5834536.098 8   4536561.34645  23687508.629    23687522.0684
 01  5 22 19 57 30.0000000  0  8 15 17 18 10 23 06 26 30
  21615589.079    -4211112.335 8  -3268500.16947  21615588.450    21615597.7984
  20972306.506    -2482986.789 9  -1929755.07147  20972306.015    20972314.3604
  21891152.730    -6507659.916 8  -5047247.96347  21891152.401    21891161.4434
  23653008.767     4012495.618 8   3113291.41645  23653007.932    23653020.3004
  21266741.626    -5100446.511 9  -3965139.94047  21266741.082    21266750.4384
  20376648.427       39938.563 9     31011.44147  20376648.230    20376655.8254
  22277263.160    -3356523.773 8  -2587238.33646  22277263.092    22277273.2184
  23707424.193     5939192.465 8   4618111.45945  23707424.311    23707437.8724
 01  5 22 19 58  0.0000000  0  8 15 17 18 10 23 06 26 30
  21605723.167    -4262957.649 8  -3308899.04647  21605722.540    21605731.8874
  20967562.864    -2507914.685 9  -1949179.38847  20967562.369    20967570.7214
  21875220.756    -6591382.811 8  -5112486.49547  21875220.460    21875229.3074
  23672400.801     4114399.754 8   3192697.11545  23672399.908    23672412.1424
  21255939.565    -5157211.285 9  -4009372.17247  21255939.020    21255948.3764
  20380771.792       61606.921 9     47895.84947  20380771.595    20380779.1924
  22269062.571    -3399618.264 8  -2620818.38546  22269062.469    22269072.5154
  23727350.034     6043902.076 8   4699703.05245  23727350.156    23727363.7324
 01  5 22 19 58 30.0000000  0  8 15 17 18 10 23 06 26 30
  21595895.094    -4314604.228 8  -3349143.07547  21595894.503    21595903.8494
  20962857.032    -2532643.851 9  -1968448.84647  20962856.546    20962864.9764
  21859356.183    -6674752.106 8  -5177449.49247  21859355.783    21859364.5664
  23691819.125     4216443.518 8   3272211.58645  23691818.215    23691830.4964
  21245219.596    -5213544.885 9  -4053268.41947  21245219.071    21245228.4304
  20384982.539       83734.599 9     65138.17447  20384982.370    20384989.9774
  22260959.985    -3442196.939 8  -2653996.49846  22260959.978    22260969.9884
  23747285.754     6148663.446 8   4781334.96545  23747285.855    23747299.4584
 01  5 22 19 59  0.0000000  0  8 15 17 18 10 23 06 26 30
  21586104.771    -4366052.579 8  -3389232.65047  21586104.181    21586113.5294
  20958188.972    -2557175.026 9  -1987564.02247  20958188.498    20958196.8764
  21843558.972    -6757766.643 8  -5242136.05147  21843558.629    21843567.4144
  23711263.635     4318623.799 8   3351832.44245  23711262.814    23711274.9544
  21234581.719    -5269447.146 9  -4096828.55747  21234581.185    21234590.5104
  20389280.690      106321.709 9     82738.49247  20389280.515    20389288.1534
  22252956.177    -3484257.669 8  -2686771.01446  22252956.129    22252965.9964
  23767230.576     6253472.965 8   4863004.39945  23767230.827    23767244.2344
 01  5 22 19 59 30.0000000  0  8 15 17 18 10 23 06 26 30
  21576352.121    -4417302.499 8  -3429167.59647  21576351.573    21576360.9004
  20953558.479    -2581508.263 9  -2006524.97047  20953557.994    20953566.3594
  21827829.636    -6840424.520 8  -5306544.70047  21827829.268    21827838.1044
  23730733.756     4420938.173 8   3431557.79745  23730732.855    23730744.8114
  21224026.060    -5324917.043 9  -4140051.79547  21224025.563    21224034.8504
  20393666.414      129368.692 9    100697.15647  20393666.249    20393673.8724
  22245051.317    -3525798.115 8  -2719140.10446  22245051.242    22245060.9644
  23787184.115     6358327.891 8   4944709.21945  23787184.324    23787197.7234
 01  5 22 20  0  0.0000000  0  8 15 17 18 10 23 06 26 30
  21566637.195    -4468354.898 8  -3468948.64147  21566636.608    21566645.8684
  20948965.470    -2605644.461 9  -2025332.36947  20948964.993    20948973.3794
  21812168.294    -6922724.986 8  -5370674.84547  21812167.940    21812176.8094
  23750228.844     4523383.226 8   3511384.95545  23750227.848    23750239.5744
  21213552.751    -5379954.623 9  -4182938.15547  21213552.253    21213561.4894
  20398139.584      152875.181 9    119013.88347  20398139.422    20398147.1084
  22237245.596    -3566816.519 8  -2751102.42546  22237245.556    22237255.4914
  23807145.666     6463224.658 8   5026446.61545  23807145.735    23807159.1484
 01  5 22 20  0 30.0000000  0  8 15 17 18 10 23 06 26 30
  21556960.128    -4519208.246 8  -3508574.56747  21556959.528    21556968.7724
  20944410.254    -2629582.360 9  -2043985.26447  20944409.777    20944418.1504
  21796575.633    -7004664.593 8  -5434523.81047  21796575.265    21796584.1054
  23769748.552     4625958.237 8   3591313.38445  23769747.565    23769758.9704
  21203162.181    -5434557.239 9  -4225485.59347  21203161.687    21203170.9364
  20402700.529      176843.193 9    137690.22947  20402700.365    20402708.1744
  22229540.132    -3607309.087 8  -2782655.01546  22229540.079    22229550.1204
  23827115.006     6568162.197 8   5108215.79745  23827114.881    23827128.3714
 01  5 22 20  1  0.0000000  0  8 15 17 18 10 23 06 26 30
  21547320.872    -4569862.756 8  -3548045.56247  21547320.291    21547329.4974
  20939892.710    -2653322.159 9  -2062483.79047  20939892.234    20939900.6024
  21781051.936    -7086242.139 8  -5498090.64047  21781051.532    21781060.3104
  23789292.461     4728660.660 8   3671341.12045  23789291.496    23789302.6664
  21192854.466    -5488724.457 9  -4267693.75547  21192853.963    21192863.2474
  20407349.315      201272.924 9    156726.35947  20407349.196    20407357.0044
  22221935.054    -3647273.658 8  -2813796.16146  22221935.074    22221945.0074
  23847091.004     6673137.366 8   5190014.29645  23847091.092    23847104.6254
 01  5 22 20  1 30.0000000  0  9 15 17 18 10 23 22 06 26 30
  21537719.430    -4620318.460 8  -3587361.64947  21537718.867    21537728.0484
  20935412.708    -2676864.396 9  -2080828.36447  20935412.246    20935420.5984
  21765597.280    -7167456.341 8  -5561374.35347  21765596.911    21765605.6614
  23808860.097     4831487.662 8   3751465.90745  23808859.030    23808870.1534
  21182629.737    -5542455.657 9  -4309562.16447  21182629.221    21182638.4934
  23295586.752                                    23295588.680    23295603.1754
  20412086.127      226164.611 9    176122.44947  20412086.007    20412093.7464
  22214430.891    -3686708.069 8  -2844524.20146  22214430.920    22214440.6994
  23867073.593     6778147.059 8   5271839.69745  23867073.908    23867087.5444
 01  5 22 20  2  0.0000000  0  9 15 17 18 10 23 22 06 26 30
  21528155.749    -4670576.077 9  -3626523.37447  21528155.158    21528164.2704
  20930970.208    -2700209.784 9  -2099019.54947  20930969.781    20930978.1034
  21750212.030    -7248305.867 8  -5624373.90747  21750211.702    21750220.4244
  23828450.653     4934436.336 8   3831685.50445  23828449.566    23828460.8254
  21172487.927    -5595750.660 9  -4351090.67447  21172487.422    21172496.6854
  23289938.627                                    23289941.519    23289949.3324
  20416910.766      251517.999 9    195878.30947  20416910.617    20416918.3364
  22207027.905    -3725610.600 8  -2874837.77446  22207027.994    22207037.7694
  23887062.399     6883187.769 8   5353689.25845  23887062.660    23887076.3894
 01  5 22 20  2 30.0000000  0  9 15 17 18 10 23 22 06 26 30
  21518629.719    -4720635.807 8  -3665530.90847  21518629.063    21518638.1664
  20926565.188    -2723358.573 9  -2117057.55647  20926564.731    20926572.9964
  21734896.509    -7328789.285 9  -5687088.17747  21734896.155    21734904.8214
  23848063.710     5037504.005 7   3911997.84145  23848062.680    23848074.0374
  21162429.281    -5648608.945 9  -4392278.88347  21162428.805    21162438.0224
  23284392.664    -1512758.346 8  -1174120.68555  23284391.701    23284403.5104
  20421823.332      277333.221 9    215994.04147  20421823.186    20421830.8804
  22199726.550    -3763979.388 8  -2904735.46146  22199726.600    22199736.5354
  23907056.667     6988256.617 8   5435560.75445  23907056.928    23907070.8534
 01  5 22 20  3  0.0000000  0  9 15 17 18 10 23 22 06 26 30
  21509141.339    -4770497.139 8  -3704383.84847  21509140.741    21509149.8334
  20922197.575    -2746310.558 9  -2134942.19647  20922197.134    20922205.3854
  21719651.016    -7408904.841 8  -5749515.81047  21719650.639    21719659.3044
  23867698.841     5140688.622 7   3992401.26945  23867697.997    23867709.5254
  21152454.085    -5701029.353 9  -4433125.89147  21152453.581    21152462.6874
  23278950.072    -1541366.013 8  -1196412.33745  23278948.849    23278959.5454
  20426823.818      303611.042 9    236470.23747  20426823.654    20426831.4164
  22192527.081    -3801811.535 8  -2934214.99046  22192527.243    22192537.3684
  23927055.870     7093351.123 8   5517452.23445  23927056.033    23927070.1734
 01  5 22 20  3 30.0000000  0 10 15 17 18 10 21 23 22 06 26 30
  21499689.013    -4820169.486 8  -3743089.51647  21499688.416    21499697.4404
  20917865.626    -2769075.314 9  -2152680.93647  20917865.143    20917873.3864
  21704474.125    -7488659.990 9  -5811662.59847  21704473.755    21704482.3724
  23887354.471     5243978.473 7   4072886.71745  23887353.579    23887365.1784
  24886744.043    -4924289.280 7  -3301906.16945  24886743.597    24886762.3174
  21142560.450    -5753020.633 9  -4473638.51747  21142559.941    21142569.0694
  23273606.239    -1569447.837 8  -1218294.26245  23273605.148    23273615.2924
  20431910.691      330342.391 9    257299.82747  20431910.513    20431918.2754
  22185428.701    -3839114.444 8  -2963282.12446  22185428.817    22185438.8874
  23947057.610     7198459.008 8   5599354.13845  23947057.606    23947072.1254
 01  5 22 20  4  0.0000000  0 10 15 17 18 10 21 23 22 06 26 30
  21490274.031    -4869645.496 8  -3781642.19147  21490273.383    21490282.4334
  20913570.608    -2791645.465 9  -2170268.05247  20913570.147    20913578.3974
  21689367.479    -7568045.887 9  -5873521.66947  21689367.074    21689375.6474
  23907030.987     5347378.463 8   4153457.96745  23907029.998    23907041.6884
  24868531.520    -5019994.639 7  -3376481.37145  24868531.105    24868549.7894
  21132750.077    -5804574.491 9  -4513810.29747  21132749.532    21132758.6424
  23268363.707    -1596996.197 8  -1239760.48445  23268362.348    23268373.1214
  20437085.244      357535.019 9    278488.86447  20437085.061    20437092.8884
  22178432.903    -3875878.297 8  -2991929.22346  22178432.930    22178442.8584
  23967062.616     7303585.108 8   5681270.22345  23967062.707    23967077.3984
 01  5 22 20  4 30.0000000  0 10 15 17 18 10 21 23 22 06 26 30
  21480897.594    -4918918.503 8  -3820036.69547  21480896.985    21480906.1064
  20909313.946    -2814014.643 9  -2187698.56947  20909313.493    20909321.6664
  21674332.541    -7647054.338 8  -5935086.61847  21674332.182    21674340.6694
  23926729.204     5450892.789 7   4234118.32745  23926728.330    23926739.9014
  24850343.975    -5115570.247 7  -3450955.43845  24850343.096    24850361.4884
  21123024.357    -5855683.642 9  -4553635.54547  21123023.775    21123032.8354
  23263224.064    -1624003.897 8  -1260805.39845  23263222.696    23263233.7494
  20442348.906      385195.660 9    300042.58247  20442348.756    20442356.5954
  22171541.296    -3912094.350 8  -3020149.45046  22171541.281    22171551.1624
  23987071.624     7408733.177 8   5763203.41745  23987072.075    23987086.6974
 01  5 22 20  5  0.0000000  0 10 15 17 18 10 21 23 22 06 26 30
  21471559.706    -4967989.866 9  -3858274.06947  21471559.029    21471568.0554
  20905095.268    -2836184.303 9  -2204973.60747  20905094.774    20905102.9154
  21659369.433    -7725685.103 8  -5996357.27447  21659369.171    21659377.6434
  23946448.651     5554517.680 8   4314864.83645  23946447.799    23946459.1984
  24832180.917    -5211015.868 7  -3525328.24245  24832180.280    24832198.5424
  21113383.053    -5906348.901 9  -4593114.90947  21113382.480    21113391.4524
  23258187.483    -1650471.278 8  -1281429.29145  23258186.242    23258197.1784
  20447701.446      413323.183 9    321960.10147  20447701.281    20447709.0994
  22164753.878    -3947761.910 8  -3047942.29046  22164753.930    22164763.7494
  24007084.361     7513898.937 8   5845150.39545  24007084.691    24007099.2224
 01  5 22 20  5 30.0000000  0 10 15 17 18 10 21 23 22 06 26 30
  21462259.756    -5016861.445 9  -3896355.78047  21462259.067    21462267.9434
  20900914.062    -2858156.579 9  -2222094.84047  20900913.569    20900921.7944
  21644478.250    -7803938.793 9  -6057334.10247  21644477.950    21644486.4454
  23966188.450     5658248.814 8   4395694.13845  23966187.503    23966198.6614
  24814042.334    -5306331.935 7  -3599600.08545  24814041.897    24814060.2284
  21103825.955    -5956571.521 9  -4632249.36147  21103825.386    21103834.3084
  23253253.555    -1676399.769 8  -1301633.27145  23253252.438    23253263.0754
  20453142.577      441916.048 9    344240.22647  20453142.374    20453150.2074
  22158070.978    -3982880.740 8  -3075307.54446  22158070.967    22158080.6884
  24027099.507     7619077.780 8   5927107.55645  24027099.884    24027114.1174
 01  5 22 20  6  0.0000000  0 10 15 17 18 10 21 23 22 06 26 30
  21452997.714    -5065533.529 9  -3934282.02947  21452996.990    21453005.8414
  20896770.404    -2879931.654 9  -2239062.41347  20896769.897    20896778.1404
  21629659.153    -7881813.878 9  -6118015.91947  21629658.839    21629667.2884
  23985947.956     5762083.923 8   4476604.45245  23985946.915    23985958.0184
  24795929.144    -5401516.910 7  -3673769.77145  24795928.576    24795946.8814
  21094353.219    -6006350.952 9  -4671038.47047  21094352.624    21094361.6054
  23248421.929    -1701789.208 8  -1321417.19045  23248421.023    23248431.7504
  20458672.251      470974.480 9    366883.12347  20458672.056    20458679.8704
  22151492.712    -4017448.714 8  -3102243.55846  22151492.681    22151502.5204
  24047116.537     7724266.823 8   6009072.68445  24047117.056    24047131.3034
 01  5 22 20  6 30.0000000  0 10 15 17 18 10 21 23 22 06 26 30
  21443773.457    -5114006.579 8  -3972053.17947  21443772.795    21443781.7164
  20892664.182    -2901510.071 9  -2255876.74547  20892663.670    20892671.8714
  21614912.273    -7959309.094 9  -6178401.72447  21614911.948    21614920.3354
  24005726.604     5866019.958 8   4557593.41345  24005725.382    24005736.6484
  24777841.104    -5496569.779 7  -3747836.50445  24777840.688    24777858.5224
  21084964.846    -6055686.982 9  -4709482.07747  21084964.283    21084973.2864
  23243692.930    -1726640.033 8  -1340781.43545  23243692.167    23243702.7764
  20464290.440      500498.208 9    389888.59047  20464290.246    20464298.0474
  22145019.580    -4051464.271 8  -3128749.13546  22145019.692    22145029.4934
  24067135.151     7829462.466 8   6091042.94145  24067135.508    24067149.8144
 01  5 22 20  7  0.0000000  0 10 15 17 18 10 21 23 22 06 26 30
  21434587.066    -5162281.165 8  -4009669.68047  21434586.405    21434595.3914
  20888595.113    -2922892.723 9  -2272538.53647  20888594.607    20888602.8204
  21600237.756    -8036424.002 9  -6238491.19647  21600237.407    21600245.7564
  24025523.848     5970054.071 8   4638658.78945  24025522.557    24025533.9214
  24759778.065    -5591489.613 7  -3821799.59645  24759777.833    24759795.5124
  21075660.862    -6104579.719 9  -4747580.25747  21075660.264    21075669.2094
  23239066.336    -1750951.964 7  -1359725.76545  23239065.610    23239076.2134
  20469997.147      530486.770 9    413256.26647  20469996.956    20470004.7034
  22138652.068    -4084926.170 8  -3154823.27946  22138652.090    22138661.8674
  24087154.311     7934661.643 8   6173015.92545  24087154.490    24087168.9684
 01  5 22 20  7 30.0000000  0 10 15 17 18 10 21 23 22 06 26 30
  21425438.484    -5210357.166 8  -4047131.43847  21425437.868    21425446.8174
  20884563.311    -2944079.626 9  -2289047.79947  20884562.868    20884571.0294
  21585635.867    -8113156.777 9  -6298282.90547  21585635.555    21585643.9104
  24045339.032     6074183.681 8   4719798.60645  24045337.889    24045349.2774
  24741740.501    -5686275.305 7  -3895658.16645  24741740.270    24741758.0844
  21066441.293    -6153028.548 9  -4785332.53747  21066440.717    21066449.5764
  23234542.515    -1774724.293 8  -1378249.61045  23234541.782    23234552.4624
  20475792.278      560940.247 9    436986.21547  20475792.104    20475799.8494
  22132390.177    -4117832.174 8  -3180464.26646  22132390.205    22132399.9924
  24107173.318     8039861.481 8   6254989.44145  24107173.551    24107188.2594
 01  5 22 20  8  0.0000000  0 10 15 17 18 10 21 23 22 06 26 30
  21416327.771    -5258234.440 9  -4084438.35247  21416327.105    21416336.0154
  20880568.875    -2965070.695 9  -2305404.46547  20880568.403    20880576.5554
  21571107.089    -8189505.787 9  -6357775.56747  21571106.764    21571115.1904
  24065171.884     6178406.619 8   4801011.13945  24065170.919    24065182.2234
  24723729.020    -5780924.983 7  -3969410.76545  24723728.859    24723746.4854
  21057306.410    -6201032.700 9  -4822738.32047  21057305.821    21057314.6074
  23230121.582    -1797956.530 7  -1396352.62445  23230120.812    23230131.3224
  20481675.956      591858.970 9    461078.69147  20481675.791    20481683.4784
  22126234.397    -4150180.069 8  -3205670.35946  22126234.457    22126244.3034
  24127191.903     8145059.331 8   6336961.41245  24127192.192    24127207.1664
 01  5 22 20  8 30.0000000  0 10 15 17 18 10 21 23 22 06 26 30
  21407254.826    -5305912.865 8  -4121590.32447  21407254.166    21407263.0464
  20876611.585    -2985866.090 9  -2321608.65847  20876611.153    20876619.3024
  21556651.664    -8265469.392 9  -6416967.91347  21556651.351    21556659.8274
  24085022.096     6282720.815 8   4882294.79945  24085021.168    24085032.5964
  24705743.865    -5875436.718 7  -4043055.86445  24705743.491    24705761.0934
  21048256.191    -6248591.500 9  -4859797.06947  21048255.616    21048264.4074
  23225803.379    -1820648.719 8  -1414034.80745  23225802.621    23225813.0684
  20487648.274      623243.272 9    485533.95247  20487648.106    20487655.7174
  22120185.398    -4181967.865 8  -3230440.00846  22120185.444    22120195.2344
  24147210.064     8250252.793 8   6418929.96945  24147210.273    24147225.2964
 01  5 22 20  9  0.0000000  0 10 15 17 18 10 21 23 22 06 26 30
  21398219.473    -5353393.391 8  -4158588.08147  21398218.822    21398227.7234
  20872691.422    -3006466.646 9  -2337661.02247  20872691.007    20872699.1624
  21542269.745    -8341047.227 9  -6475859.65847  21542269.347    21542277.8234
  24104889.114     6387123.058 8   4963647.06045  24104888.343    24104900.0744
  24687785.038    -5969810.030 7  -4116593.09645  24687784.643    24687802.2874
  21039290.522    -6295705.351 9  -4896509.11447  21039290.003    21039298.8624
  23221587.801    -1842801.515 8  -1431296.69245  23221587.070    23221597.5034
  20493708.985      655092.385 9    510351.40947  20493708.820    20493716.4474
  22114242.907    -4213194.446 8  -3254772.33946  22114243.019    22114252.9094
  24167226.400     8355437.963 8   6500892.04645  24167226.656    24167241.8704
 01  5 22 20  9 30.0000000  0 10 15 17 18 10 21 23 22 06 26 30
  21389221.676    -5400676.572 8  -4195432.06447  21389221.050    21389229.9874
  20868808.181    -3026873.229 9  -2353562.23747  20868807.775    20868815.9504
  21527961.260    -8416238.391 9  -6534450.10547  21527960.933    21527969.2934
  24124772.515     6491610.388 8   5045065.60345  24124771.708    24124783.4144
  24669852.772    -6064044.225 7  -4190021.95045  24669852.108    24669869.8934
  21030409.588    -6342374.454 9  -4932874.58947  21030409.091    21030417.9474
  23217475.055    -1864414.569 8  -1448138.00745  23217474.307    23217484.8974
  20499858.020      687405.762 9    535530.63247  20499857.854    20499865.5824
  22108407.532    -4243858.613 8  -3278666.43646  22108407.728    22108417.6334
  24187240.669     8460611.316 8   6582844.90145  24187240.931    24187256.0854
 01  5 22 20 10  0.0000000  0 10 15 17 18 10 21 23 22 06 26 30
  21380262.229    -5447758.719 8  -4232119.40047  21380261.593    21380270.5114
  20864962.527    -3047082.416 9  -2369309.64547  20864962.097    20864970.2664
  21513727.275    -8491038.046 9  -6592735.48247  21513726.977    21513735.2504
  24144672.402     6596183.918 8   5126551.32145  24144671.550    24144683.4034
  24651947.727    -6158134.437 7  -4263338.62145  24651947.033    24651964.8744
  21021614.143    -6388594.843 9  -4968890.42347  21021613.630    21021622.4814
  23213465.731    -1885484.043 8  -1464555.75645  23213464.873    23213475.6094
  20506096.063      720187.059 9    561074.46647  20506095.925    20506103.6974
  22102680.432    -4273954.938 8  -3302118.04846  22102680.564    22102690.2814
  24207252.935     8565773.713 8   6664789.21045  24207253.027    24207268.1704
 01  5 22 20 10 30.0000000  0 10 15 17 18 10 21 23 22 06 26 30
  21371340.150    -5494644.726 9  -4268653.90647  21371339.480    21371348.3344
  20861153.435    -3067099.269 9  -2384907.18647  20861153.014    20861161.1444
  21499567.165    -8565449.592 9  -6650718.43447  21499566.900    21499575.1224
  24164587.359     6700836.264 8   5208098.44745  24164586.405    24164598.1854
  24634069.141    -6252084.361 7  -4336546.01245  24634068.500    24634086.3014
  21012903.211    -6434370.969 9  -5004560.07747  21012902.710    21012911.5784
  23209558.708    -1906014.880 8  -1480553.80845  23209557.918    23209568.6314
  20512422.204      753431.243 9    586978.98847  20512422.066    20512429.8234
  22097060.606    -4303486.406 8  -3325129.53146  22097060.783    22097070.4824
  24227261.555     8670917.621 8   6746719.11245  24227261.535    24227276.6994
 01  5 22 20 11  0.0000000  0 10 15 17 18 10 21 23 22 06 26 30
  21362456.070    -5541330.700 9  -4305032.54147  21362455.430    21362464.2394
  20857381.746    -3086919.760 9  -2400351.71247  20857381.315    20857389.4454
  21485481.958    -8639467.639 9  -6708394.76647  21485481.690    21485489.8904
  24184517.648     6805569.396 7   5289708.51645  24184516.707    24184528.4464
  24616218.606    -6345887.910 7  -4409639.31545  24616218.117    24616235.5114
  21004277.701    -6479698.298 9  -5039880.02347  21004277.221    21004286.0244
  23205755.036    -1926003.191 8  -1496129.11245  23205754.280    23205764.8174
  20518837.343      787142.667 9    613247.59847  20518837.175    20518844.9614
  22091549.571    -4332447.003 8  -3347696.16946  22091549.709    22091559.4694
  24247267.064     8776044.542 8   6828635.78245  24247266.865    24247282.1214
 01  5 22 20 11 30.0000000  0 10 15 17 18 10 21 23 22 06 26 30
  21353609.618    -5587819.003 8  -4341257.14147  21353608.964    21353617.7954
  20853646.950    -3106546.356 9  -2415645.14747  20853646.521    20853654.6594
  21471471.464    -8713093.214 9  -6765765.27547  21471471.170    21471479.3744
  24204462.187     6910378.821 7   5371378.01345  24204461.261    24204473.3884
  24598395.696    -6439546.405 7  -4482619.60545  24598395.206    24598412.3754
  20995737.331    -6524578.725 9  -5074851.73147  20995736.774    20995745.5014
  23202054.553    -1945450.717 7  -1511283.00645  23202053.722    23202064.0234
  20525340.860      821318.873 9    639878.37247  20525340.692    20525348.5304
  22086146.870    -4360837.397 8  -3369818.49346  22086147.069    22086156.9304
  24267268.005     8881149.138 7   6910535.03745  24267267.900    24267283.3614
 01  5 22 20 12  0.0000000  0 10 15 17 18 10 21 23 22 06 26 30
  21344801.077    -5634108.006 8  -4377326.44147  21344800.452    21344809.2614
  20849949.314    -3125977.576 9  -2430786.34447  20849948.861    20849957.0274
  21457536.230    -8786323.226 9  -6822827.54847  21457535.907    21457544.0884
  24224421.077     7015263.628 7   5453106.26245  24224420.273    24224432.6344
  24580601.080    -6533057.235 7  -4555484.83745  24580600.465    24580617.5444
  20987282.348    -6569010.166 9  -5109473.58347  20987281.787    20987290.4684
  23198456.958    -1964355.373 7  -1526013.86645  23198456.045    23198466.4764
  20531933.148      855961.477 9    666872.57147  20531932.998    20531940.8474
  22080853.498    -4388654.153 8  -3391493.82246  22080853.713    22080863.4664
  24287263.909     8986230.072 7   6992415.86745  24287264.217    24287279.8384
 01  5 22 20 12 30.0000000  0 10 15 17 18 10 21 23 22 06 26 30
  21336030.552    -5680197.371 9  -4413240.18347  21336029.934    21336038.7314
  20846288.862    -3145213.236 9  -2445775.15747  20846288.435    20846296.5834
  21443676.527    -8859155.810 9  -6879580.13547  21443676.242    21443684.4414
  24244394.043     7120221.837 7   5534891.73945  24244393.066    24244405.7584
  24562834.842    -6626418.137 7  -4628233.25345  24562834.245    24562851.4884
  20978912.893    -6612991.779 9  -5143744.91547  20978912.321    20978921.0164
  23194962.910    -1982716.575 7  -1540321.27845  23194962.001    23194972.3414
  20538614.312      891070.963 9    694230.58347  20538614.163    20538622.0294
  22075669.736    -4415895.086 8  -3412720.46146  22075669.952    22075679.6974
  24307255.107     9091285.305 7   7074276.66745  24307255.746    24307271.5394
 01  5 22 20 13  0.0000000  0 10 15 17 18 10 21 23 22 06 26 30
  21327297.506    -5726089.776 9  -4449000.45247  21327296.909    21327305.6284
  20842665.184    -3164256.117 9  -2460613.75547  20842664.723    20842672.7774
  21429892.188    -8931592.836 9  -6936024.49547  21429891.865    21429900.0844
  24264379.907     7225248.477 7   5616730.51845  24264378.870    24264392.0884
  24545096.839    -6719630.975 7  -4700866.28145  24545096.114    24545113.2004
  20970628.527    -6656526.106 9  -5177667.71547  20970627.996    20970636.6334
  23191571.775    -2000537.447 7  -1554207.64545  23191570.830    23191581.1944
  20545383.770      926644.468 9    721950.15747  20545383.607    20545391.4794
  22070595.414    -4442561.221 8  -3433499.22146  22070595.555    22070605.3424
  24327240.864     9196309.094 7   7156112.95445  24327241.441    24327257.1454
 01  5 22 20 13 30.0000000  0 10 15 17 18 10 21 23 22 06 26 30
  21318602.660    -5771781.602 9  -4484604.42147  21318602.029    21318610.6634
  20839078.750    -3183102.938 9  -2475299.58047  20839078.286    20839086.2834
  21416184.110    -9003629.327 9  -6992156.74947  21416183.765    21416191.9744
  24284379.075     7330344.451 7   5698623.32745  24284378.175    24284391.2534
  24527387.986    -6812690.593 7  -4773379.92945  24527387.114    24527403.9524
  20962430.024    -6699609.400 9  -5211239.05447  20962429.472    20962438.1074
  23188283.779    -2017814.591 7  -1567670.33745  23188283.016    23188293.5224
  20552242.188      962685.381 9    750033.95147  20552242.009    20552249.8614
  22065631.285    -4468647.374 8  -3453826.04146  22065631.451    22065641.3194
  24347221.149     9301302.510 7   7237925.57345  24347221.309    24347237.1234
 01  5 22 20 14  0.0000000  0 10 15 17 18 10 21 23 22 06 26 30
  21309945.100    -5817277.300 9  -4520055.57247  21309944.463    21309953.0784
  20835528.840    -3201757.763 9  -2489835.79147  20835528.384    20835536.4184
  21402551.618    -9075268.253 9  -7047979.20947  21402551.262    21402559.4504
  24304390.482     7435503.731 7   5780565.44445  24304389.431    24304402.4254
  24509707.616    -6905599.867 7  -4845776.40845  24509706.853    24509723.3924
  20954316.659    -6742245.333 9  -5244461.80247  20954316.099    20954324.6874
  23185098.768    -2034551.577 7  -1580712.12045  23185098.091    23185108.6754
  20559188.734      999189.615 9    778478.77247  20559188.530    20559196.3944
  22060777.148    -4494156.076 8  -3473702.90146  22060777.311    22060787.1704
  24367194.233     9406258.781 7   7319709.25345  24367194.342    24367210.0364
 01  5 22 20 14 30.0000000  0 10 15 17 18 10 21 23 22 06 26 30
  21301325.621    -5862572.967 9  -4555350.84847  21301324.960    21301333.5634
  20832016.115    -3220217.103 9  -2504219.67247  20832015.646    20832023.7024
  21388995.796    -9146504.365 9  -7103487.78447  21388995.417    21389003.5824
  24324414.323     7540727.838 7   5862558.10245  24324413.080    24324425.7584
  24492057.110    -6998353.239 7  -4918051.41545  24492056.422    24492072.6354
  20946289.224    -6784429.822 9  -5277332.77247  20946288.646    20946297.2034
  23182017.399    -2050744.292 7  -1593329.81345  23182016.663    23182027.3114
  20566224.198     1036160.872 9    807287.50647  20566224.019    20566231.8894
  22056033.936    -4519081.906 8  -3493125.56946  22056034.085    22056043.9134
  24387160.236     9511178.668 7   7401464.56745  24387160.500    24387175.8724
 01  5 22 20 15  0.0000000  0 10 15 17 18 10 21 23 22 06 26 30
  21292743.661    -5907671.261 9  -4590492.33147  21292742.971    21292751.6524
  20828540.088    -3238483.756 9  -2518453.42147  20828539.622    20828547.6624
  21375516.344    -9217339.198 9  -7158683.67447  21375515.968    21375524.0344
  24344449.370     7646011.680 7   5944597.28645  24344448.268    24344460.7094
  24474436.102    -7090952.201 8  -4990206.11345  24474435.272    24474451.3234
  20938347.167    -6826165.502 9  -5309854.02347  20938346.574    20938355.1244
  23179039.231    -2066395.648 7  -1605525.69445  23179038.506    23179048.9834
  20573348.061     1073596.238 9    836457.88347  20573347.828    20573355.6824
  22051401.557    -4543425.931 8  -3512094.88546  22051401.632    22051411.3354
  24407118.217     9616056.519 7   7483187.11845  24407118.462    24407133.8674
 01  5 22 20 15 30.0000000  0 10 15 17 18 10 21 23 22 06 26 30
  21284199.801    -5952569.219 9  -4625477.71347  21284199.145    21284207.8004
  20825101.357    -3256554.706 9  -2532534.66547  20825100.872    20825108.8614
  21362113.998    -9287768.545 9  -7213563.60647  21362113.627    21362121.6554
  24364495.861     7751355.965 7   6026683.59945  24364494.841    24364507.1304
  24456845.004    -7183392.509 7  -5062237.21245  24456844.080    24456860.1994
  20930491.088    -6867449.103 9  -5342023.01247  20930490.463    20930499.0374
  23176164.148    -2081503.178 7  -1617297.79345  23176163.346    23176174.2294
  20580560.644     1111498.575 9    865992.13347  20580560.395    20580568.2694
  22046880.531    -4567183.503 8  -3530607.24346  22046880.622    22046890.3004
  24427068.333     9720892.786 7   7564877.27845  24427068.452    24427083.8784
 01  5 22 20 16  0.0000000  0 10 15 17 18 10 21 23 22 06 26 30
  21275693.772    -5997268.776 9  -4660308.50347  21275693.124    21275701.6674
  20821699.370    -3274432.171 9  -2546465.14147  20821698.878    20821706.9244
  21348788.654    -9357793.140 9  -7268128.14747  21348788.292    21348796.3884
  24384552.995     7856756.731 7   6108813.92145  24384552.045    24384564.3534
  24439283.474    -7275674.862 7  -5134145.25345  24439282.827    24439299.1334
  20922720.727    -6908282.274 9  -5373841.01547  20922720.122    20922728.7134
  23173392.407    -2096068.655 7  -1628647.52545  23173391.575    23173402.3454
  20587861.689     1149865.834 9    895888.65947  20587861.500    20587869.3414
  22042471.213    -4590355.004 8  -3548662.90446  22042471.304    22042480.8524
  24447009.469     9825682.970 7   7646531.53545  24447009.568    24447025.0944
 01  5 22 20 16 30.0000000  0 10 15 17 18 10 21 23 22 06 26 30
  21267225.866    -6041768.353 9  -4694983.45447  21267225.177    21267233.5994
  20818334.437    -3292114.620 9  -2560243.65247  20818334.007    20818342.1114
  21335540.922    -9427410.285 9  -7322375.19747  21335540.553    21335548.6714
  24404620.821     7962212.989 7   6190987.48845  24404619.714    24404632.1244
  24421753.046    -7367796.641 7  -5205928.16645  24421752.323    24421768.6574
  20915036.468    -6948663.238 9  -5405306.64747  20915035.872    20915044.4944
  23170724.405    -2110090.029 8  -1639573.26345  23170723.502    23170734.1914
  20595251.591     1188699.305 9    926148.47147  20595251.344    20595259.1564
  22038174.109    -4612937.604 8  -3566259.68046  22038174.110    22038183.5424
  24466941.319     9930425.984 7   7728149.05945  24466941.508    24466957.7514
 01  5 22 20 17  0.0000000  0 10 15 17 18 10 21 23 22 06 26 30
  21258795.749    -6086068.564 9  -4729503.06747  21258795.063    21258803.5064
  20815006.593    -3309602.794 9  -2573870.79547  20815006.141    20815014.2064
  21322370.838    -9496619.418 9  -7376304.31847  21322370.450    21322378.5464
  24424698.498     8067721.927 8   6273202.13445  24424697.474    24424710.0964
  24404253.820    -7459756.887 8  -5277585.18045  24404252.857    24404268.8974
  20907438.164    -6988592.315 9  -5436420.16747  20907437.572    20907446.2344
  23168159.590    -2123568.041 7  -1650075.58345  23168158.697    23168169.3584
  20602729.959     1227998.321 9    956771.04147  20602729.737    20602737.6154
  22033989.069    -4634930.160 8  -3583396.71246  22033988.987    22033998.5644
  24486863.865    10035118.389 7   7809727.13045  24486864.146    24486880.6854
 01  5 22 20 17 30.0000000  0 10 15 17 18 10 21 23 22 06 26 30
  21250403.205    -6130171.359 9  -4763868.83947  21250402.572    21250411.0634
  20811715.310    -3326898.649 9  -2587348.06647  20811714.840    20811722.8894
  21309278.238    -9565421.101 9  -7429915.94747  21309277.874    21309285.9644
  24444785.446     8173279.761 7   6355454.85445  24444784.538    24444797.3794
  24386784.933    -7551556.286 8  -5349116.85945  24386784.041    24386799.7944
  20899925.501    -7028071.197 9  -5467182.88047  20899924.923    20899933.5614
  23165697.702    -2136505.050 8  -1660156.38745  23165696.961    23165707.4954
  20610296.584     1267760.714 9    987754.68047  20610296.349    20610304.2244
  22029916.153    -4656333.054 8  -3600074.24646  22029916.156    22029925.5934
  24506776.064    10139755.470 8   7891262.09745  24506776.370    24506793.0794
 01  5 22 20 18  0.0000000  0 10 15 17 18 10 21 23 22 06 26 30
  21242048.412    -6174076.293 9  -4798080.43547  21242047.756    21242056.2294
  20808460.623    -3344001.913 9  -2600675.27647  20808460.193    20808468.3134
  21296263.461    -9633814.066 9  -7483209.08147  21296263.094    21296271.2124
  24464881.406     8278884.347 7   6437744.01445  24464880.565    24464893.5514
  24369346.717    -7643193.058 7  -5420521.83945  24369345.704    24369361.4814
  20892498.593    -7067099.444 9  -5497594.44547  20892498.015    20892506.6134
  23163338.800    -2148901.192 7  -1669815.72145  23163338.055    23163348.6324
  20617951.280     1307986.584 9   1019099.47547  20617951.030    20617959.0134
  22025955.980    -4677144.656 8  -3616291.03046  22025955.898    22025965.2954
  24526677.376    10244334.856 7   7972752.09845  24526677.614    24526694.4844
 01  5 22 20 18 30.0000000  0 10 15 17 18 10 21 23 22 06 26 30
  21233731.545    -6217781.556 9  -4832136.44347  21233730.894    21233739.3814
  20805242.910    -3360910.916 9  -2613851.10747  20805242.470    20805250.6574
  21283327.014    -9701795.213 9  -7536181.32647  21283326.620    21283334.7764
  24484986.224     8384535.190 7   6520069.19445  24484985.247    24484998.5084
  24351939.866    -7734663.861 8  -5491797.49145  24351939.074    24351954.6204
  20885157.880    -7105675.149 9  -5527653.38347  20885157.316    20885165.8334
  23161083.098    -2160754.396 8  -1679051.99445  23161082.416    23161093.0894
  20625694.443     1348677.522 9   1050806.66347  20625694.279    20625702.2904
  22022108.536    -4697361.755 8  -3632044.58546  22022108.581    22022117.9914
  24546567.343    10348855.773 7   8054196.54345  24546567.594    24546584.3714
 01  5 22 20 19  0.0000000  0 10 15 17 18 10 21 23 22 06 26 30
  21225452.736    -6261286.312 9  -4866036.20847  21225452.115    21225460.6324
  20802062.372    -3377624.964 9  -2626875.02547  20802061.922    20802070.0814
  21270469.170    -9769362.790 9  -7588831.32047  21270468.821    21270477.0444
  24505099.600     8490230.891 7   6602429.34245  24505098.723    24505111.9624
  24334565.134    -7825967.087 8  -5562942.56945  24334564.552    24334579.6944
  20877903.517    -7143797.320 9  -5557358.91847  20877902.949    20877911.3404
  23158931.147    -2172063.695 8  -1687864.44045  23158930.406    23158940.9664
  20633526.340     1389834.032 9   1082876.62347  20633526.157    20633534.1574
  22018374.835    -4716981.976 8  -3647333.01946  22018374.936    22018384.2894
  24566445.956    10453316.466 7   8135594.05845  24566446.052    24566463.0164
 01  5 22 20 19 30.0000000  0 10 15 17 18 10 21 23 22 06 26 30
  21217211.933    -6304591.761 9  -4899780.66947  21217211.320    21217219.8664
  20798918.728    -3394145.097 9  -2639747.85447  20798918.278    20798926.3314
  21257690.194    -9836516.500 9  -7641158.81447  21257689.848    21257698.0614
  24525220.850     8595968.364 7   6684822.04345  24525220.014    24525233.2194
  24317222.533    -7917102.160 7  -5633956.64045  24317222.039    24317237.1484
  20870735.247    -7181466.849 9  -5586711.75047  20870734.691    20870743.0514
  23156882.353    -2182830.404 8  -1696254.07545  23156881.664    23156892.2734
  20641446.483     1431454.856 9   1115308.38747  20641446.344    20641454.3744
  22014754.839    -4736005.134 8  -3662156.22046  22014754.903    22014764.2604
  24586312.507    10557713.330 7   8216941.83745  24586312.469    24586329.5684
 01  5 22 20 20  0.0000000  0 10 15 17 18 10 21 23 22 06 26 30
  21209009.129    -6347697.453 9  -4933369.48047  21209008.549    21209017.1234
  20795812.007    -3410471.121 9  -2652469.42147  20795811.569    20795819.5474
  21244990.286    -9903254.788 9  -7693162.59847  21244989.960    21244998.0834
  24545349.490     8701745.966 7   6767246.01245  24545348.748    24545362.3394
  24299912.121    -8008067.267 7  -5704838.26245  24299911.651    24299926.8244
  20863653.148    -7218683.321 9  -5615711.55447  20863652.584    20863660.9624
  23154936.777    -2193054.846 8  -1704221.17445  23154936.121    23154946.5614
  20649455.100     1473540.067 9   1148102.01547  20649454.940    20649463.0084
  22011248.824    -4754429.460 8  -3676512.79146  22011248.850    22011258.0594
  24606166.257    10662043.814 7   8298237.86145  24606166.374    24606183.2684
 01  5 22 20 20 30.0000000  0 10 15 17 18 10 21 23 22 06 26 30
  21200844.545    -6390602.828 9  -4966802.20047  21200843.911    21200852.4774
  20792742.316    -3426602.583 9  -2665039.37347  20792741.844    20792749.8754
  21232369.758    -9969576.202 9  -7744841.54347  21232369.427    21232377.4344
  24565485.426     8807561.691 7   6849699.70645  24565484.719    24565498.5504
  24282634.396    -8098860.995 7  -5775586.32845  24282633.853    24282649.0414
  20856657.298    -7255446.178 9  -5644357.88947  20856656.777    20856665.1784
  23153094.404    -2202736.729 8  -1711765.51245  23153093.557    23153104.1024
  20657552.097     1516089.797 9   1181257.60747  20657551.924    20657560.0034
  22007856.919    -4772253.155 8  -3690401.34646  22007857.008    22007866.3504
  24626006.882    10766305.701 8   8379480.46145  24626007.039    24626024.1444
 01  5 22 20 21  0.0000000  0 10 15 17 18 10 21 23 22 06 26 30
  21192717.612    -6433309.551 9  -5000080.13247  21192717.028    21192725.5794
  20789709.280    -3442540.942 9  -2677458.86247  20789708.864    20789716.9054
  21219828.439   -10035481.200 9  -7796196.01247  21219828.069    21219836.0184
  24585628.345     8913412.202 7   6932180.49245  24585627.503    24585641.1894
  24265389.116    -8189483.616 7  -5846201.08345  24265388.692    24265403.9004
  20849747.566    -7291756.866 9  -5672651.88947  20849747.050    20849755.4404
  23151354.886    -2211877.378 7  -1718888.09745  23151354.022    23151364.7914
  20665737.092     1559102.435 9   1214773.90047  20665736.928    20665744.9834
  22004579.349    -4789476.304 8  -3703821.94646  22004579.427    22004588.9154
  24645833.751    10870494.773 7   8460666.31745  24645833.904    24645850.9214
 01  5 22 20 21 30.0000000  0 10 15 17 18 10 21 23 22 06 26 30
  21184628.814    -6475816.827 9  -5033202.63447  21184628.187    21184636.6714
  20786713.194    -3458285.737 9  -2689727.53247  20786712.758    20786720.7204
  21207366.553   -10100968.255 9  -7847224.81347  21207366.256    21207374.1994
  24605777.874     9019295.659 7   7014686.93745  24605777.125    24605789.9284
  24248176.730    -8279933.793 7  -5916681.45745  24248176.338    24248191.4794
  20842924.078    -7327614.830 9  -5700593.10547  20842923.544    20842931.7984
  23149718.328    -2220476.365 8  -1725588.59445  23149717.574    23149728.3264
  20674010.261     1602578.117 9   1248651.00947  20674010.141    20674018.1364
  22001416.509    -4806097.293 8  -3716773.31346  22001416.616    22001425.9874
  24665646.192    10974609.234 7   8541794.01245  24665646.677    24665663.5534
 01  5 22 20 22  0.0000000  0 10 15 17 18 10 21 23 22 06 26 30
  21176578.040    -6518124.000 9  -5066169.22247  21176577.371    21176585.9214
  20783753.976    -3473836.462 9  -2701844.96847  20783753.517    20783761.4844
  21194984.668   -10166035.526 9  -7897926.50247  21194984.328    21194992.2394
  24625933.228     9125210.678 7   7097217.96645  24625932.341    24625944.9354
  24230997.763    -8370208.974 7  -5987025.48745  24230997.360    24231012.3734
  20836186.853    -7363019.265 9  -5728180.92247  20836186.269    20836194.4404
  23148185.263    -2228533.769 8  -1731867.08845  23148184.395    23148194.9864
  20682371.700     1646516.911 9   1282888.98447  20682371.512    20682379.5184
  21998368.613    -4822114.112 8  -3729253.90546  21998368.677    21998378.0354
  24685444.288    11078646.909 7   8622861.89345  24685444.662    24685461.5154
 01  5 22 20 22 30.0000000  0 10 15 17 18 10 21 23 22 06 26 30
  21168565.014    -6560232.146 9  -5098980.72747  21168564.388    21168572.9824
  20780831.495    -3489194.090 9  -2713811.93647  20780831.050    20780839.0554
  21182682.617   -10230683.151 9  -7948301.19547  21182682.274    21182690.1504
  24646093.877     9231153.930 7   7179771.02145  24646093.045    24646105.6414
  24213852.189    -8460309.309 7  -6057233.26645  24213851.700    24213866.7574
  20829535.569    -7397971.371 9  -5755416.27747  20829535.003    20829543.2544
  23146754.844    -2236051.382 8  -1737724.96645  23146754.005    23146764.4764
  20690820.934     1690917.497 9   1317486.80247  20690820.733    20690828.7294
  21995435.661    -4837526.719 8  -3741263.68646  21995435.717    21995445.1444
  24705227.130    11182604.208 7   8703867.13645  24705227.327    24705244.6514
 01  5 22 20 23  0.0000000  0 10 15 17 18 10 21 23 22 06 26 30
  21160590.318    -6602139.743 9  -5131635.95847  21160589.668    21160598.1294
  20777946.019    -3504357.328 9  -2725627.43647  20777945.558    20777953.6074
  21170460.855   -10294908.693 9  -7998346.99747  21170460.525    21170468.3394
  24666259.551     9337125.162 7   7262345.85945  24666258.734    24666271.6234
  24196740.282    -8550231.760 7  -6127302.42345  24196739.876    24196754.8544
  20822970.738    -7432469.490 9  -5782297.87947  20822970.198    20822978.4754
  23145427.286    -2243027.643 8  -1743160.99745  23145426.484    23145437.0564
  20699358.215     1735781.076 9   1352445.38747  20699358.012    20699365.9794
  21992618.160    -4852332.375 8  -3752800.52046  21992618.218    21992627.8824
  24724994.087    11286480.154 7   8784809.01645  24724994.352    24725012.2764
 01  5 22 20 23 30.0000000  0 10 15 17 18 10 21 23 22 06 26 30
  21152653.735    -6643846.940 9  -5164135.03247  21152653.053    21152661.3634
  20775097.548    -3519326.211 9  -2737291.49447  20775097.109    20775105.0884
  21158319.635   -10358711.309 9  -8048063.24147  21158319.281    21158327.0114
  24686429.907     9443121.841 7   7344940.54845  24686429.181    24686442.3014
  24179662.186    -8639975.173 7  -6197232.06445  24179661.919    24179676.8214
  20816492.354    -7466513.742 9  -5808825.82247  20816491.803    20816500.0954
  23144202.837    -2249462.574 8  -1748175.23845  23144202.043    23144212.6264
  20707983.506     1781107.079 9   1387764.30547  20707983.331    20707991.2784
  21989916.267    -4866530.030 8  -3763863.60046  21989916.378    21989926.1904
  24744744.932    11390271.885 7   8865685.27445  24744745.597    24744763.7194
 01  5 22 20 24  0.0000000  0 10 15 17 18 10 21 23 22 06 26 30
  21144755.145    -6685353.821 9  -5196478.01447  21144754.501    21144762.8454
  20772285.969    -3534101.115 9  -2748804.39147  20772285.516    20772293.4554
  21146258.998   -10422089.930 9  -8097449.10147  21146258.630    21146266.3164
  24706604.708     9549141.619 7   7427553.23545  24706603.974    24706617.2824
  24162618.627    -8729538.589 7  -6267021.48045  24162618.408    24162633.2384
  20810100.154    -7500104.596 9  -5835000.46647  20810099.598    20810107.9374
  23143081.116    -2255357.171 8  -1752768.43045  23143080.378    23143090.9904
  20716696.699     1826894.793 9   1423443.00047  20716696.509    20716704.4864
  21987330.506    -4880118.845 8  -3774452.23746  21987330.647    21987340.3154
  24764479.900    11493976.453 7   8946493.57845  24764480.445    24764498.4354
 01  5 22 20 24 30.0000000  0 10 15 17 18 10 21 23 22 06 26 30
  21136894.542    -6726661.365 9  -5228665.67047  21136893.913    21136902.2724
  20769510.963    -3548683.176 9  -2760167.02747  20769510.547    20769518.5454
  21134278.909   -10485044.919 9  -8146504.86547  21134278.604    21134286.2804
  24726783.507     9655181.591 7   7510181.66145  24726782.854    24726796.0444
  24145609.186    -8818922.123 7  -6336670.70845  24145609.003    24145623.9194
  20803794.049    -7533243.340 9  -5860822.81947  20803793.504    20803801.7954
  23142061.923    -2260713.243 8  -1756941.99245  23142061.155    23142071.7064
  20725497.442     1873142.657 9   1459480.24847  20725497.267    20725505.2194
  21984860.578    -4893098.936 8  -3784566.54246  21984860.628    21984870.2344
  24784197.565    11597590.279 7   9027231.17945  24784197.876    24784215.7884
 01  5 22 20 25  0.0000000  0  9 15 17 18 21 23 22 06 26 30
  21129072.663    -6767765.532 9  -5260694.86347  21129072.018    21129080.4384
  20766773.574    -3563068.399 9  -2771376.27547  20766773.192    20766781.1634
  21122380.450   -10547571.292 9  -8195226.63747  21122380.141    21122387.8544
  24128635.165    -8908120.242 7  -6406175.48045  24128634.935    24128650.1254
  20797574.719    -7565925.919 9  -5886289.71447  20797574.159    20797582.4474
  23141145.641    -2265527.378 8  -1760693.25845  23141145.059    23141155.5674
  20734386.376     1919854.275 9   1495878.86347  20734386.193    20734394.1664
  21982507.148    -4905465.210 8  -3794202.55646  21982507.287    21982516.9784
  24803897.868    11701114.593 7   9107899.02945  24803898.218    24803916.2254
 01  5 22 20 25 30.0000000  0  9 15 17 18 21 23 22 06 26 30
  21121288.879    -6808668.812 9  -5292567.51447  21121288.317    21121296.8204
  20764073.179    -3577259.339 9  -2782434.14447  20764072.752    20764080.7774
  21110563.278   -10609670.501 9  -8243615.55547  21110562.972    21110570.6904
  24111696.029    -8997134.880 8  -6475537.26645  24111695.861    24111710.8564
  20791441.688    -7598154.842 9  -5911403.11347  20791441.145    20791449.4594
  23140332.178    -2269802.037 8  -1764024.14745  23140331.571    23140342.2564
  20743362.889     1967026.615 9   1532636.48447  20743362.779    20743370.8454
  21980270.328    -4917219.082 8  -3803361.38246  21980270.565    21980280.2804
  24823580.008    11804544.373 7   9188493.22645  24823580.542    24823598.8774
 01  5 22 20 26  0.0000000  0  8 15 17 18 21 23 22 06 26
  21113544.258    -6849366.564 9  -5324280.00947  21113543.728    21113552.2864
  20761410.421    -3591251.421 9  -2793337.06047  20761410.045    20761418.1464
  21098828.411   -10671337.330 9  -8291667.55447  21098828.145    21098835.8414
  24094792.992    -9085960.316 8  -6544751.63245  24094792.812    24094807.6504
  20785395.791    -7629925.740 9  -5936159.61247  20785395.270    20785403.6084
  23139622.212    -2273533.128 8  -1766931.50645  23139621.544    23139632.1234
  20752427.997     2014663.728 9   1569756.26147  20752427.883    20752435.9604
  21978151.375    -4928354.982 8  -3812038.66746  21978151.542    21978161.1374
 01  5 22 20 26 30.0000000  0  8 15 17 18 21 23 22 06 26
  21105837.205    -6889867.158 9  -5355838.87847  21105836.673    21105845.2144
  20758784.154    -3605052.754 9  -2804091.32647  20758783.783    20758791.7794
  21087174.523   -10732578.826 9  -8339388.12747  21087174.263    21087181.9824
  24077924.991    -9174603.057 8  -6613823.63545  24077924.530    24077939.1374
  20779435.597    -7661246.852 9  -5960565.62147  20779435.096    20779443.3624
  23139014.108    -2276729.419 8  -1769422.13845  23139013.374    23139023.7354
  20761579.900     2062757.069 9   1607231.53947  20761579.767    20761587.8754
  21976148.586    -4938880.117 8  -3820240.04246  21976148.699    21976158.2994
 01  5 22 20 27  0.0000000  0  8 15 17 18 21 23 22 06 26
  21098167.874    -6930169.600 9  -5387243.34347  21098167.343    21098175.8524
  20756194.312    -3618662.536 9  -2814696.33747  20756193.916    20756201.9604
  21075601.867   -10793393.377 9  -8386776.01247  21075601.585    21075609.3194
  24061091.808    -9263061.229 8  -6682751.80145  24061091.404    24061105.7754
  20773561.114    -7692117.383 9  -5984620.53847  20773560.583    20773568.8534
  23138507.662    -2279391.030 8  -1771496.12345  23138506.975    23138517.3334
  20770818.543     2111306.842 9   1645062.48547  20770818.491    20770826.6894
  21974262.324    -4948792.567 8  -3827963.99946  21974262.445    21974271.8454
 01  5 22 20 27 30.0000000  0  8 15 17 18 21 23 22 06 26
  21090536.603    -6970272.032 9  -5418491.94547  21090536.066    21090544.5794
  20753641.216    -3632079.111 9  -2825150.80247  20753640.813    20753648.8994
  21064110.808   -10853778.521 9  -8433829.29847  21064110.570    21064118.3254
  24044294.360    -9351332.178 8  -6751534.09045  24044293.883    24044308.2434
  20767772.603    -7722535.738 9  -6008323.10947  20767772.121    20767780.3934
  23138103.191    -2281516.626 8  -1773152.46545  23138102.485    23138112.8624
  20780144.465     2160314.152 9   1683249.94547  20780144.365    20780152.5724
  21972493.075    -4958089.750 8  -3835208.51646  21972493.210    21972502.4264
 01  5 22 20 28  0.0000000  0  8 15 17 18 21 23 22 06 26
  21082943.517    -7010174.122 9  -5449584.44147  21082943.012    21082951.5044
  20751125.027    -3645301.920 9  -2835454.28047  20751124.635    20751132.6744
  21052701.912   -10913732.657 9  -8480546.72947  21052701.638    21052709.3324
  24027532.751    -9439413.839 8  -6820168.89045  24027532.137    24027546.6504
  20762070.218    -7752501.765 9  -6031673.21047  20762069.748    20762077.9704
  23137800.790    -2283105.989 8  -1774390.95745  23137800.004    23137810.4164
  20789557.305     2209778.911 9   1721793.86447  20789557.229    20789565.5074
  21970841.074    -4966770.406 8  -3841972.62746  21970841.264    21970850.5054
 01  5 22 20 28 30.0000000  0  8 15 17 18 21 23 22 06 26
  21075388.920    -7049874.360 9  -5480519.65347  21075388.342    21075396.7714
  20748645.896    -3658329.817 9  -2845605.87447  20748645.501    20748653.5084
  21041375.451   -10973253.702 9  -8526926.68647  21041375.109    21041382.8154
  24010807.129    -9527304.326 8  -6888654.76345  24010806.735    24010821.3044
  20756454.196    -7782014.410 9  -6054670.02847  20756453.646    20756461.8684
  23137600.488    -2284158.365 8  -1775210.99345  23137599.693    23137610.1334
  20799057.436     2259701.933 9   1760694.86647  20799057.322    20799065.5554
  21969306.826    -4974832.364 8  -3848254.64746  21969307.055    21969316.4424
 01  5 22 20 29  0.0000000  0  8 15 17 18 21 23 22 06 26
  21067872.447    -7089373.303 9  -5511298.01647  21067871.906    21067880.2894
  20746203.802    -3671163.561 9  -2855606.18947  20746203.392    20746211.3744
  21030131.248   -11032341.679 9  -8572969.19547  21030130.943    21030138.6564
  23994118.510    -9615002.836 8  -6956990.99845  23994118.198    23994132.5674
  20750924.160    -7811074.543 9  -6077314.24247  20750923.634    20750931.8814
  23137502.108    -2284675.695 8  -1775614.13145  23137501.211    23137511.7234
  20808644.509     2310081.765 9   1799951.81647  20808644.335    20808652.4844
  21967890.405    -4982275.543 8  -3854054.49746  21967890.636    21967899.9914
 01  5 22 20 29 30.0000000  0  8 15 17 18 21 23 22 06 26
  21060394.253    -7128671.539 9  -5541919.97547  21060393.673    21060401.9994
  20743798.424    -3683803.822 9  -2865455.73247  20743797.988    20743806.0104
  21018969.626   -11090996.410 9  -8618674.10647  21018969.330    21018976.9404
  23977466.875    -9702509.080 8  -7025177.41245  23977466.356    23977480.4774
  20745480.078    -7839683.206 9  -6099606.66047  20745479.563    20745487.8564
  23137505.193    -2284659.579 8  -1775601.59445  23137504.309    23137514.8014
  20818318.148     2360917.115 9   1839563.71847  20818317.979    20818326.1634
  21966591.582    -4989100.027 8  -3859372.24946  21966591.826    21966601.1884
 01  5 22 20 30  0.0000000  0  8 15 17 18 21 23 22 06 26
  21052953.958    -7167770.381 9  -5572386.56547  21052953.344    21052961.7034
  20741429.594    -3696251.763 9  -2875155.41947  20741429.207    20741437.1784
  21007890.375   -11149218.393 9  -8664041.81647  21007890.050    21007897.6044
  23960851.409    -9789823.355 8  -7093214.25745  23960850.778    23960864.9244
  20740121.670    -7867841.857 9  -6121548.42147  20740121.133    20740129.4524
  23137609.485    -2284111.408 8  -1775174.45245  23137608.627    23137619.1944
  20828078.132     2412206.227 9   1879529.20947  20828078.012    20828086.2724
  21965410.653    -4995306.104 8  -3864208.13346  21965410.853    21965420.1894
 01  5 22 20 30 30.0000000  0  8 15 17 18 21 23 22 06 26
  21045552.359    -7206665.684 9  -5602694.55647  21045551.818    21045560.2274
  20739098.292    -3708503.291 9  -2884702.05347  20739097.861    20739105.7564
  20996894.365   -11207002.744 9  -8709068.51947  20996894.053    20996901.5664
  23944273.023    -9876940.295 8  -7161097.37045  23944272.576    23944286.9804
  20734849.607    -7895546.526 9  -6143136.43147  20734849.093    20734857.3714
  23137815.713    -2283027.425 8  -1774329.80145  23137814.924    23137825.4924
  20837925.128     2463952.579 9   1919850.98047  20837925.005    20837933.3264
  21964348.287    -5000888.875 8  -3868558.33346  21964348.458    21964357.8084
 01  5 22 20 31  0.0000000  0  8 15 17 18 21 23 22 06 26
  21038189.355    -7245358.604 9  -5632844.84347  21038188.765    21038197.1494
  20736804.057    -3720559.483 9  -2894096.48247  20736803.620    20736811.5454
  20985981.531   -11264349.887 9  -8753754.54247  20985981.228    20985988.7044
  23927732.465    -9963859.928 8  -7228826.72645  23927731.946    23927746.4094
  20729663.689    -7922798.690 9  -6164371.84647  20729663.173    20729671.3934
  23138123.664    -2281409.761 8  -1773069.30845  23138122.712    23138133.3784
  20847858.799     2516154.203 9   1960527.50547  20847858.708    20847866.9844
  21963404.393    -5005848.805 8  -3872423.19446  21963404.581    21963413.8874
 01  5 22 20 31 30.0000000  0  8 15 17 18 21 23 22 06 26
  21030864.452    -7283850.854 9  -5662838.75447  21030863.846    21030872.2334
  20734546.619    -3732422.133 9  -2903340.09247  20734546.192    20734554.1444
  20975151.713   -11321260.766 9  -8798100.61047  20975151.425    20975158.8124
  23911229.861   -10050582.546 8  -7296402.55045  23911229.161    23911243.2894
  20724563.437    -7949600.571 9  -6185256.38347  20724562.874    20724571.0634
  23138532.213    -2279261.589 8  -1771395.41045  23138531.348    23138542.1614
  20857878.680     2568808.417 9   2001556.70747  20857878.541    20857886.7284
  21962578.841    -5010187.001 8  -3875803.58446  21962579.093    21962588.3594
 01  5 22 20 32  0.0000000  0  8 15 17 18 21 23 22 06 26
  21023577.797    -7322141.965 9  -5692675.94647  21023577.240    21023585.6044
  20732326.169    -3744090.956 9  -2912432.68347  20732325.729    20732333.5874
  20964405.242   -11377734.448 9  -8842106.00947  20964404.895    20964412.1504
  23894764.427   -10137107.381 8  -7363824.28245  23894763.830    23894777.6874
  20719548.862    -7975952.167 9  -6205790.05347  20719548.335    20719556.4314
  23139041.993    -2276583.145 8  -1769308.32145  23139041.175    23139051.8224
  20867984.634     2621914.895 9   2042938.31247  20867984.485    20867992.5634
  21961871.903    -5013902.639 8  -3878698.86146  21961872.082    21961881.3834
 01  5 22 20 32 30.0000000  0  8 15 17 18 21 23 22 06 26
  21016329.950    -7360230.209 9  -5722355.06247  21016329.348    21016337.6094
  20730142.920    -3755564.269 9  -2921372.92647  20730142.451    20730150.3004
  20953742.299   -11433768.700 9  -8885768.98947  20953741.887    20953749.1334
  23878337.203   -10223431.616 8  -7431089.67845  23878336.662    23878350.4874
  20714620.315    -8001852.179 9  -6225971.82947  20714619.767    20714627.7914
  23139652.928    -2273373.268 8  -1766807.13945  23139652.052    23139662.5374
  20878176.680     2675474.595 9   2084673.08247  20878176.549    20878184.6224
  21961283.892    -5016993.499 8  -3881107.30546  21961284.000    21961293.1744
 01  5 22 20 33  0.0000000  0  8 15 17 18 21 23 22 06 26
  21009120.457    -7398116.509 9  -5751876.81947  21009119.829    21009128.0534
  20727996.564    -3766843.096 9  -2930161.61547  20727996.127    20728004.0464
  20943162.690   -11489363.935 9  -8929089.87947  20943162.331    20943169.6744
  23861948.126   -10309555.452 8  -7498198.93645  23861947.698    23861961.5324
  20709777.308    -8027302.191 9  -6245802.95747  20709776.730    20709784.7454
  23140364.732    -2269633.710 8  -1763893.22045  23140363.809    23140374.3924
  20888454.667     2729485.740 9   2126759.63447  20888454.554    20888462.7164
  21960814.587    -5019459.997 8  -3883029.24446  21960814.655    21960823.7624
 01  5 22 20 33 30.0000000  0  8 15 17 18 21 23 22 06 26
  21001949.457    -7435800.079 9  -5781240.60847  21001948.853    21001957.0554
  20725887.424    -3777926.828 9  -2938798.28547  20725886.987    20725894.9074
  20932667.012   -11544518.555 9  -8972067.44347  20932666.677    20932674.0714
  23845597.572   -10395477.288 8  -7565150.80245  23845597.216    23845610.9674
  20705019.967    -8052301.722 9  -6265283.07147  20705019.433    20705027.4704
  23141176.919    -2265365.090 8  -1760567.03145  23141176.107    23141186.6554
  20898818.598     2783948.271 9   2169197.90947  20898818.489    20898826.7664
  21960464.273    -5021300.947 8  -3884463.74846  21960464.357    21960473.3564
 01  5 22 20 34  0.0000000  0  8 15 17 18 21 23 22 06 26
  20994817.085    -7473281.242 9  -5810446.67447  20994816.461    20994824.6674
  20723815.397    -3788815.698 9  -2947283.11747  20723814.941    20723822.8564
  20922255.272   -11599232.230 9  -9014701.40847  20922254.924    20922262.2954
  23829285.876   -10481196.145 8  -7631944.48145  23829285.459    23829298.9314
  20700348.327    -8076851.481 9  -6284412.71147  20700347.768    20700355.7884
  23142089.617    -2260568.875 8  -1756829.76545  23142088.835    23142099.1794
  20909268.208     2838860.970 9   2211986.95347  20909268.095    20909276.3714
  21960233.115    -5022516.163 8  -3885410.65046  21960233.167    21960242.0264
 01  5 22 20 34 30.0000000  0  8 15 17 18 21 23 22 06 26
  20987723.405    -7510558.460 9  -5839493.82547  20987722.782    20987731.0464
  20721780.695    -3799508.011 9  -2955614.77947  20721780.240    20721788.1694
  20911927.827   -11653502.889 9  -9056990.16847  20911927.504    20911934.8524
  23813013.134   -10566709.072 8  -7698577.71345  23813012.775    23813025.9824
  20695762.415    -8100950.204 9  -6303190.90047  20695761.872    20695769.8784
  23143103.008    -2255244.025 8  -1752680.54345  23143102.024    23143112.5434
  20919803.662     2894224.727 9   2255127.47847  20919803.541    20919811.7284
  21960121.307    -5023103.516 8  -3885868.31046  21960121.395    21960130.3054
 01  5 22 20 35  0.0000000  0  8 15 17 18 21 23 22 06 26
  20980668.204    -7547633.713 9  -5868383.60047  20980667.566    20980675.8114
  20719783.046    -3810005.851 9  -2963794.90447  20719782.613    20719790.4934
  20901684.471   -11707332.015 9  -9098934.86147  20901684.165    20901691.4094
  23796779.450   -10652017.703 8  -7765051.74745  23796778.814    23796792.0714
  20691261.905    -8124600.543 9  -6321619.69547  20691261.368    20691269.2964
  23144216.364    -2249393.241 8  -1748121.48645  23144215.423    23144226.0964
  20930424.384     2950036.566 9   2298617.16347  20930424.269    20930432.3824
  21960128.578    -5023064.675 8  -3885838.04246  21960128.619    21960137.6864
 01  5 22 20 35 30.0000000  0  8 15 17 18 21 23 22 06 26
  20973651.787    -7584505.134 9  -5897114.54947  20973651.133    20973659.3474
  20717822.783    -3820307.384 9  -2971822.06747  20717822.320    20717830.1584
  20891525.545   -11760717.310 9  -9140533.72947  20891525.208    20891532.4694
  23780584.959   -10737118.860 8  -7831364.09745  23780584.325    23780597.7164
  20686846.943    -8147801.272 9  -6339698.15147  20686846.414    20686854.3574
  23145429.849    -2243015.826 8  -1743152.08645  23145429.013    23145439.6374
  20941130.553     3006297.346 9   2342456.66947  20941130.377    20941138.4774
  21960255.643    -5022397.396 8  -3885318.06446  21960255.631    21960264.6534
 01  5 22 20 36  0.0000000  0  8 15 17 18 21 23 22 06 26
  20966673.906    -7621174.204 9  -5925687.81547  20966673.254    20966681.4054
  20715899.450    -3830414.289 9  -2979697.56747  20715898.992    20715906.9064
  20881450.805   -11813659.692 9  -9181787.46847  20881450.533    20881457.8214
  23764429.966   -10822013.109 8  -7897515.24945  23764429.328    23764442.6334
  20682517.077    -8170554.498 9  -6357427.89747  20682516.562    20682524.4664
  23146743.240    -2236114.930 8  -1737774.77945  23146742.403    23146752.7194
  20951921.579     3063004.638 9   2386644.11547  20951921.437    20951929.6224
  21960501.857    -5021102.898 8  -3884309.36246  21960501.891    21960510.8884
 01  5 22 20 36 30.0000000  0  8 15 17 18 21 23 22 06 26
  20959734.469    -7657640.525 9  -5954103.09947  20959733.868    20959742.0374
  20714013.188    -3840326.050 9  -2987421.00247  20714012.797    20714020.7334
  20871460.707   -11866158.162 9  -9222695.29647  20871460.389    20871467.6794
  23748314.614   -10906699.438 8  -7963504.39245  23748313.924    23748327.2094
  20678272.428    -8192860.128 9  -6374808.86347  20678271.910    20678279.8384
  23148155.813    -2228691.212 8  -1731990.09345  23148155.076    23148165.3454
  20962797.585     3120158.122 9   2431179.24347  20962797.437    20962805.7224
  21960867.776    -5019180.570 8  -3882811.43046  21960867.828    21960876.6824
 01  5 22 20 37  0.0000000  0  8 15 17 18 21 23 22 06 26
  20952834.175    -7693901.530 9  -5982358.39747  20952833.605    20952841.8124
  20712164.651    -3850040.299 9  -2994990.53347  20712164.247    20712172.1644
  20861555.499   -11918209.926 9  -9263255.04347  20861555.216    20861562.5364
  23732239.277   -10991174.711 8  -8029329.07745  23732238.704    23732251.8514
  20674113.229    -8214716.469 9  -6391839.73647  20674112.710    20674120.7214
  23149668.317    -2220742.781 8  -1725796.53845  23149667.559    23149678.0594
  20973758.769     3177759.104 9   2476063.06447  20973758.579    20973766.9224
  21961353.363    -5016627.664 8  -3880822.14946  21961353.521    21961362.4134
 01  5 22 20 37 30.0000000  0  8 15 17 18 21 23 22 06 26
  20945972.717    -7729958.827 9  -6010454.97947  20945972.145    20945980.3814
  20710353.390    -3859558.567 9  -3002407.35847  20710352.991    20710360.8904
  20851735.153   -11969816.149 9  -9303467.63247  20851734.854    20851742.1104
  23716203.973   -11075439.044 8  -8094989.39545  23716203.504    23716216.7384
  20670039.072    -8236125.629 9  -6408522.16347  20670038.590    20670046.6584
  23151280.264    -2212272.077 8  -1719196.03945  23151279.513    23151289.9724
  20984804.567     3235805.143 9   2521293.67247  20984804.442    20984812.7844
  21961959.000    -5013445.457 8  -3878342.50246  21961959.082    21961967.9754
 01  5 22 20 38  0.0000000  0  8 15 17 18 21 23 22 06 26
  20939150.262    -7765810.857 9  -6038391.60647  20939149.688    20939157.8894
  20708579.761    -3868879.325 9  -3009670.27547  20708579.359    20708587.2564
  20841999.996   -12020974.728 9  -9343331.39147  20841999.674    20842006.8594
  23700209.358   -11159490.205 8  -8160483.59945  23700208.908    23700222.1134
  20666050.253    -8257086.575 9  -6424855.32847  20666049.782    20666057.9184
  23152991.515    -2203279.259 8  -1712188.66845  23152990.739    23153001.1984
  20995935.263     3294296.649 9   2566871.40047  20995935.067    20995943.4054
  21962684.512    -5009632.336 8  -3875371.23446  21962684.670    21962693.7354
 01  5 22 20 38 30.0000000  0  8 15 17 18 21 23 22 06 26
  20932366.195    -7801461.414 9  -6066171.23047  20932365.595    20932373.7914
  20706842.998    -3878006.399 9  -3016782.28047  20706842.581    20706850.4084
  20832349.294   -12071689.225 9  -9382849.12447  20832348.975    20832356.1044
  23684254.750   -11243331.473 8  -8225814.24845  23684254.312    23684267.3414
  20662145.942    -8277603.674 9  -6440842.64447  20662145.454    20662153.5774
  23154801.042    -2193769.570 8  -1704778.54145  23154800.425    23154811.0304
  21007149.631     3353228.863 9   2612792.55047  21007149.463    21007157.9054
  21963529.594    -5005191.795 8  -3871911.06446  21963529.744    21963538.8854
 01  5 22 20 39  0.0000000  0  8 15 17 18 21 23 22 06 26
  20925621.427    -7836905.321 9  -6093789.82947  20925620.794    20925629.0204
  20705143.952    -3886934.688 9  -3023739.37947  20705143.508    20705151.3274
  20822784.226   -12121953.862 9  -9422016.31847  20822783.887    20822791.0034
  23668341.040   -11326956.358 8  -8290976.31045  23668340.779    23668353.7654
  20658326.994    -8297672.648 9  -6456480.76347  20658326.518    20658334.5554
  23156710.013    -2183738.777 8  -1696962.36345  23156709.284    23156720.0004
  21018448.593     3412605.704 9   2659060.15047  21018448.511    21018456.9434
  21964495.193    -5000118.679 8  -3867957.98146  21964495.216    21964504.2664
 01  5 22 20 39 30.0000000  0  8 15 17 18 21 23 22 06 26
  20918915.314    -7872146.456 9  -6121250.43347  20918914.687    20918922.8424
  20703481.916    -3895668.246 9  -3030544.73447  20703481.488    20703489.3614
  20813304.032   -12171772.502 9  -9460835.97947  20813303.660    20813310.7774
  23652468.413   -11410368.188 8  -8355972.34245  23652467.987    23652480.9134
  20654592.377    -8317298.192 9  -6471773.35447  20654591.874    20654599.8874
  23158717.121    -2173191.899 8  -1688744.04745  23158716.305    23158726.8994
  21029831.421     3472422.123 9   2705670.28147  21029831.281    21029839.6974
  21965580.091    -4994416.991 8  -3863515.10946  21965580.165    21965589.1314
 01  5 22 20 40  0.0000000  0  8 15 17 18 21 23 22 06 26
  20912248.443    -7907181.229 9  -6148550.23647  20912247.802    20912255.8654
  20701857.738    -3904203.334 9  -3037195.44847  20701857.332    20701865.2194
  20803909.357   -12221141.225 9  -9499305.06447  20803909.024    20803916.1544
  23636636.992   -11493562.924 8  -8420799.22945  23636636.427    23636649.3194
  20650942.716    -8336477.334 9  -6486718.10147  20650942.220    20650950.1674
  23160822.732    -2162126.475 8  -1680121.65645  23160821.966    23160832.6254
  21041298.207     3532680.568 9   2752624.85447  21041298.102    21041306.5894
  21966785.259    -4988082.988 8  -3858579.51646  21966785.362    21966794.3764
 01  5 22 20 40 30.0000000  0  8 15 17 18 21 23 22 06 26
  20905620.551    -7942011.086 9  -6175690.35947  20905619.910    20905627.9284
  20700271.031    -3912541.661 9  -3043692.83747  20700270.591    20700278.5184
  20794600.209   -12270061.142 9  -9537424.42047  20794599.888    20794606.9454
  23620846.325   -11576540.976 8  -8485457.27345  23620845.989    23620858.9224
  20647377.608    -8355212.305 9  -6501316.73747  20647377.108    20647384.9794
  23163026.492    -2150545.835 8  -1671097.82745  23163025.801    23163036.2774
  21052848.663     3593378.442 9   2799921.83447  21052848.546    21052857.0394
  21968110.408    -4981118.237 8  -3853152.43546  21968110.633    21968119.6064
 01  5 22 20 41  0.0000000  0  8 15 17 18 21 23 22 06 26
  20899031.940    -7976634.474 9  -6202669.59747  20899031.282    20899039.3534
  20698721.956    -3920681.661 9  -3050035.68647  20698721.543    20698729.5104
  20785376.817   -12318530.436 9  -9575192.64847  20785376.464    20785383.5054
  23605097.680   -11659299.978 8  -8549944.62445  23605097.361    23605110.1074
  20643897.126    -8373502.368 9  -6515568.69747  20643896.578    20643904.4534
  23165328.147    -2138449.967 8  -1661672.50845  23165327.428    23165337.9394
  21064482.793     3654516.290 9   2847561.65847  21064482.692    21064491.2054
  21969556.225    -4973521.241 8  -3847232.68646  21969556.392    21969565.3654
 01  5 22 20 41 30.0000000  0  8 15 17 18 21 23 22 06 26
  20892481.917    -8011054.473 9  -6229490.35347  20892481.296    20892489.3644
  20697210.165    -3928626.257 9  -3056226.27447  20697209.760    20697217.6224
  20776238.582   -12366551.420 9  -9612611.54447  20776238.260    20776245.3424
  23589390.512   -11741842.216 8  -8614263.05745  23589390.006    23589402.6544
  20640500.585    -8391351.191 9  -6529476.83147  20640500.029    20640507.8424
  23167727.212    -2125842.583 8  -1651848.60245  23167726.596    23167737.2234
  21076200.036     3716089.823 9   2895540.96447  21076199.910    21076208.3414
  21971121.734    -4965294.854 8  -3840822.51846  21971121.829    21971130.9264
 01  5 22 20 42  0.0000000  0  8 15 17 18 21 23 22 06 26
  20885971.411    -8045267.132 9  -6256149.53947  20885970.803    20885978.9084
  20695736.306    -3936371.536 9  -3062261.56047  20695735.870    20695743.7164
  20767186.469   -12414120.161 9  -9649678.04647  20767186.146    20767193.3314
  23573725.213   -11824162.726 8  -8678408.75245  23573724.751    23573737.4814
  20637188.589    -8408755.649 9  -6543038.71247  20637188.052    20637195.8664
  23170224.329    -2112721.010 8  -1641624.05045  23170223.638    23170234.1734
  21088000.673     3778101.789 9   2943861.90947  21088000.471    21088008.8504
  21972807.545    -4956435.296 8  -3833918.97546  21972807.662    21972816.8284
 01  5 22 20 42 30.0000000  0  8 15 17 18 21 23 22 06 26
  20879499.773    -8079275.851 9  -6282649.81947  20879499.154    20879507.2974
  20694299.672    -3943921.041 9  -3068144.28647  20694299.245    20694307.1444
  20758219.863   -12461239.932 9  -9686394.69747  20758219.534    20758226.7344
  23558101.617   -11906264.538 8  -8742384.02145  23558101.256    23558113.9354
  20633960.335    -8425720.148 9  -6556257.76247  20633959.787    20633967.5834
  23172818.291    -2099090.287 8  -1631002.73945  23172817.542    23172827.9964
  21099883.652     3840547.580 9   2992520.90547  21099883.495    21099891.9954
  21974613.284    -4946946.241 8  -3826524.90446  21974613.401    21974622.4864
 01  5 22 20 43  0.0000000  0  8 15 17 18 21 23 22 06 26
  20873067.653    -8113077.134 9  -6308988.45747  20873067.046    20873075.1504
  20692901.006    -3951271.174 9  -3073871.65747  20692900.573    20692908.4084
  20749339.407   -12507907.140 9  -9722758.70547  20749339.042    20749346.1514
  23542520.607   -11988143.219 8  -8806185.41845  23542520.153    23542532.7504
  20630816.336    -8442241.747 9  -6569131.69647  20630815.783    20630823.5584
  23175509.551    -2084948.870 8  -1619983.48545  23175508.710    23175519.0654
  21111849.652     3903429.486 9   3041519.72447  21111849.520    21111858.0594
  21976539.444    -4936824.270 8  -3818637.65846  21976539.588    21976548.5564
 01  5 22 20 43 30.0000000  0  8 15 17 18 21 23 22 06 26
  20866674.719    -8146672.122 9  -6335166.33847  20866674.072    20866682.1854
  20691539.993    -3958423.163 9  -3079444.63347  20691539.545    20691547.4054
  20740544.896   -12554122.568 9  -9758770.67447  20740544.570    20740551.5904
  23526981.796   -12069799.076 8  -8869813.19345  23526981.430    23526993.9334
  20627756.278    -8458322.436 9  -6581662.06847  20627755.722    20627763.4604
  23178297.245    -2070298.973 8  -1608568.01645  23178296.430    23178306.9574
  21123898.284     3966745.226 9   3090856.60147  21123898.180    21123906.7524
  21978585.949    -4926070.772 8  -3810258.31346  21978586.051    21978594.8994
 01  5 22 20 44  0.0000000  0  8 15 17 18 21 23 22 06 26
  20860321.054    -8180060.761 9  -6361183.42947  20860320.401    20860328.4454
  20690216.738    -3965376.938 9  -3084863.16047  20690216.311    20690224.1444
  20731836.412   -12599886.007 9  -9794430.44847  20731836.059    20731843.0214
  23511485.539   -12151231.888 8  -8933267.16345  23511485.147    23511497.5754
  20624779.940    -8473963.041 9  -6593849.51347  20624779.392    20624787.0874
  23181181.485    -2055141.770 8  -1596757.25045  23181180.743    23181191.1464
  21136029.209     4030493.408 9   3140530.44747  21136029.102    21136037.7334
  21980752.626    -4914685.931 8  -3801386.99046  21980752.612    21980761.3694
 01  5 22 20 44 30.0000000  0  8 15 17 18 21 23 22 06 26
  20854006.729    -8213242.613 9  -6387039.39447  20854006.082    20854014.0504
  20688931.304    -3972132.181 9  -3090126.99147  20688930.851    20688938.7004
  20723214.053   -12645196.703 9  -9829737.43047  20723213.698    20723220.6034
  23496032.086   -12232440.146 8  -8996546.17246  23496031.616    23496044.0614
  20621887.296    -8489164.124 9  -6605694.47047  20621886.765    20621894.3924
  23184162.291    -2039478.254 8  -1584551.96045  23184161.460    23184171.8574
  21148242.386     4094673.223 9   3190540.62147  21148242.246    21148250.7834
  21983039.216    -4902669.472 8  -3792023.51246  21983039.249    21983047.9494
 01  5 22 20 45  0.0000000  0  8 15 17 18 21 23 22 06 26
  20847732.137    -8246215.601 9  -6412732.60347  20847731.496    20847739.4594
  20687683.933    -3978686.984 9  -3095234.62447  20687683.515    20687691.3534
  20714678.197   -12690052.844 9  -9864690.21747  20714677.827    20714684.7294
  23480621.724   -12313421.184 8  -9059648.12546  23480621.274    23480633.8094
  20619078.489    -8503924.724 9  -6617196.19547  20619077.909    20619085.5144
  23187239.106    -2023308.429 8  -1571952.12145  23187238.399    23187248.9514
  21160537.796     4159285.178 9   3240887.53447  21160537.594    21160546.1334
  21985446.291    -4890019.852 8  -3782166.66146  21985446.352    21985455.0884
 01  5 22 20 45 30.0000000  0  8 15 17 18 21 23 22 06 26
  20841496.905    -8278981.721 9  -6438264.62247  20841496.253    20841504.2414
  20686474.471    -3985043.163 9  -3100187.48747  20686474.012    20686481.8334
  20706228.418   -12734456.103 9  -9899290.11847  20706228.077    20706234.9904
  23465254.414   -12394176.473 8  -9122574.16246  23465253.923    23465266.4744
  20616352.925    -8518247.356 9  -6628356.65847  20616352.376    20616360.0584
  23190411.857    -2006636.076 8  -1558960.71445  23190411.142    23190421.7184
  21172914.697     4224326.289 9   3291568.85147  21172914.536    21172923.1824
  21987973.599    -4876739.222 8  -3771818.11046  21987973.652    21987982.2734
 01  5 22 20 46  0.0000000  0  8 15 17 18 21 23 22 06 26
  20835300.822    -8311542.185 9  -6463636.39047  20835300.172    20835308.2154
  20685302.517    -3991201.844 9  -3104986.45447  20685302.063    20685309.8624
  20697864.679   -12778407.488 9  -9933537.90547  20697864.347    20697871.2424
  23449929.948   -12474705.974 8  -9185324.26945  23449929.612    23449942.0194
  20613710.284    -8532134.204 9  -6639177.54447  20613709.746    20613717.4684
  23193679.888    -1989463.357 8  -1545579.40246  23193679.090    23193689.6024
  21185372.767     4289794.164 9   3342582.71447  21185372.672    21185381.3774
  21990620.706    -4862829.213 8  -3760979.14046  21990620.700    21990629.3134
 01  5 22 20 46 30.0000000  0  8 15 17 18 21 23 22 06 26
  20829144.468    -8343893.868 9  -6488845.47147  20829143.814    20829151.9094
  20684168.796    -3997159.894 9  -3109629.08947  20684168.368    20684176.0894
  20689587.541   -12821903.851 9  -9967431.12647  20689587.207    20689594.1064
  23434649.259   -12555006.301 8  -9247895.78845  23434648.930    23434661.1914
  20611150.993    -8545583.259 9  -6649657.28947  20611150.448    20611158.1954
  23197043.390    -1971788.483 8  -1531806.81646  23197042.612    23197053.1424
  21197912.474     4355690.412 9   3393930.36847  21197912.371    21197921.0774
  21993387.964    -4848287.058 8  -3749647.59546  21993387.944    21993396.7334
 01  5 22 20 47  0.0000000  0  8 15 17 18 21 23 22 06 26
  20823027.863    -8376036.761 9  -6513891.86147  20823027.248    20823035.3124
  20683073.207    -4002917.564 9  -3114115.58147  20683072.757    20683080.4564
  20681397.000   -12864945.176 9 -10000969.77047  20681396.677    20681403.5944
  23419412.235   -12635076.731 8  -9310288.17345  23419411.878    23419424.1154
  20608674.791    -8558595.491 9  -6659796.65447  20608674.272    20608682.0144
  23200501.955    -1953613.398 8  -1517644.44046  23200501.137    23200511.9204
  21210533.382     4422013.562 9   3445610.67547  21210533.273    21210542.0064
  21996275.344    -4833113.275 8  -3737823.87346  21996275.345    21996284.3334
 01  5 22 20 47 30.0000000  0  8 15 17 18 21 23 22 06 26
  20816950.993    -8407970.862 9  -6538775.56047  20816950.385    20816958.4874
  20682015.518    -4008474.893 9  -3118445.96247  20682015.109    20682022.9904
  20673292.956   -12907531.694 9 -10034154.02547  20673292.658    20673299.6374
  23404218.945   -12714917.092 8  -9372501.31045  23404218.557    23404230.8394
  20606281.524    -8571172.114 9  -6669596.58347  20606281.028    20606288.7044
  23204055.248    -1934940.427 8  -1503094.13046  23204054.447    23204065.2904
  21223235.242     4488762.160 9   3497622.50647  21223235.190    21223243.9354
  21999282.822    -4817308.419 8  -3725508.39146  21999282.824    21999291.8534
 01  5 22 20 48  0.0000000  0  8 15 17 18 21 23 22 06 26
  20810913.841    -8439696.176 9  -6563496.56747  20810913.225    20810921.3894
  20680996.136    -4013831.679 9  -3122620.07947  20680995.784    20681003.6854
  20665275.577   -12949663.133 9 -10066983.67047  20665275.288    20665282.2274
  23389069.761   -12794526.649 8  -9434534.56845  23389069.354    23389081.5924
  20603971.032    -8583313.787 9  -6679057.59447  20603970.528    20603978.1434
  23207703.129    -1915770.826 8  -1488156.83045  23207702.272    23207713.1074
  21236017.924     4555934.990 9   3549964.90147  21236017.841    21236026.5844
  22002410.302    -4800872.840 8  -3712701.44246  22002410.388    22002419.3774
 01  5 22 20 48 30.0000000  0  8 15 17 18 21 23 22 06 26
  20804916.501    -8471212.482 9  -6588054.71347  20804915.876    20804924.0214
  20680014.967    -4018987.951 9  -3126637.95147  20680014.564    20680022.4114
  20657344.802   -12991339.566 9 -10099458.76447  20657344.488    20657351.4674
  23373964.650   -12873904.038 8  -9496386.92746  23373964.201    23373976.4334
  20601743.030    -8595021.566 9  -6688180.50947  20601742.541    20601750.1684
  23211445.270    -1896105.867 8  -1472833.54545  23211444.461    23211455.2804
  21248881.069     4623530.599 9   3602636.72847  21248880.926    21248889.6514
  22005657.849    -4783807.011 8  -3699403.37746  22005657.920    22005666.9154
 01  5 22 20 49  0.0000000  0  8 15 17 18 21 23 22 06 26
  20798958.924    -8502519.863 9  -6612450.05247  20798958.311    20798966.3324
  20679071.890    -4023943.708 9  -3130499.57847  20679071.517    20679079.2694
  20649500.609   -13032560.913 9 -10131579.24747  20649500.298    20649507.2574
  23358903.758   -12953049.434 8  -9558058.49545  23358903.168    23358915.3584
  20599597.419    -8606296.742 9  -6696966.32947  20599596.906    20599604.5354
  23215281.439    -1875947.125 8  -1457125.46046  23215280.556    23215291.5374
  21261824.275     4691547.337 9   3655636.71047  21261824.115    21261832.8794
  22009025.024    -4766111.529 8  -3685614.70546  22009025.139    22009034.2624
 01  5 22 20 49 30.0000000  0  8 15 17 18 21 23 22 06 26
  20793041.279    -8533617.496 9  -6636681.95047  20793040.677    20793048.6174
  20678167.169    -4028698.024 9  -3134204.23547  20678166.773    20678174.5474
  20641743.220   -13073326.148 9 -10163344.31447  20641742.909    20641749.8514
  23343887.197   -13031961.169 8  -9619548.01545  23343886.624    23343898.7494
  20597534.108    -8617139.310 9  -6705415.04647  20597533.604    20597541.2404
  23219211.212    -1855296.083 8  -1441033.75545  23219210.415    23219221.2954
  21274847.416     4759984.663 9   3708964.43447  21274847.340    21274856.1664
  22012512.296    -4747786.055 8  -3671335.10346  22012512.475    22012521.5064
 01  5 22 20 50  0.0000000  0  8 15 17 18 21 23 22 06 26
  20787163.605    -8564505.220 9  -6660750.29147  20787162.937    20787170.8534
  20677300.779    -4033251.097 9  -3137752.07647  20677300.383    20677308.2174
  20634072.562   -13113635.614 9 -10194754.23647  20634072.239    20634079.1424
  23328915.150   -13110638.508 8  -9680854.88645  23328914.609    23328926.6754
  20595552.989    -8627550.342 9  -6713527.50947  20595552.436    20595560.0814
  23223234.464    -1834154.737 8  -1424560.02945  23223233.640    23223244.3394
  21287950.456     4828841.009 9   3762618.65047  21287950.358    21287959.1144
  22016119.422    -4728831.387 8  -3656565.24046  22016119.488    22016128.3974
 01  5 22 20 50 30.0000000  0  8 15 17 18 21 23 22 06 26
  20781325.777    -8595182.871 9  -6684654.94247  20781325.138    20781333.1024
  20676472.764    -4037602.402 9  -3141142.70047  20676472.356    20676480.1784
  20626488.750   -13153488.889 9 -10225808.68547  20626488.419    20626495.2164
  23313987.862   -13189080.861 8  -9741978.63045  23313987.422    23313999.3164
  20593653.720    -8637530.601 9  -6721304.30147  20593653.201    20593660.8284
  23227350.651    -1812524.048 8  -1407704.96545  23227349.840    23227360.6254
  21301133.085     4898115.327 9   3816598.57047  21301132.923    21301141.6324
  22019845.988    -4709247.782 8  -3641305.26546  22019846.098    22019854.8704
 01  5 22 20 51  0.0000000  0  8 15 17 18 21 23 22 06 26
  20775528.089    -8625649.996 9  -6708395.54147  20775527.441    20775535.4274
  20675683.265    -4041751.709 9  -3144375.94147  20675682.832    20675690.5414
  20618991.770   -13192885.751 9 -10256507.48947  20618991.419    20618998.2244
  23299105.652   -13267287.124 8  -9802918.42945  23299105.165    23299117.0524
  20591836.429    -8647080.754 9  -6728745.94847  20591835.869    20591843.4724
  23231559.671    -1790405.228 8  -1390469.58345  23231558.927    23231569.7024
  21314394.823     4967806.294 9   3870903.14647  21314394.711    21314403.4384
  22023692.262    -4689035.526 8  -3625555.45846  22023692.355    22023701.2204
 01  5 22 20 51 30.0000000  0  8 15 17 18 21 23 22 06 26
  20769770.521    -8655906.277 9  -6731971.83847  20769769.857    20769777.8634
  20674932.205    -4045698.714 9  -3147451.53547  20674931.723    20674939.4374
  20611581.585   -13231826.250 9 -10286850.68747  20611581.259    20611588.0024
  23284268.438   -13345256.585 8  -9863673.71745  23284267.997    23284279.8764
  20590100.739    -8656201.686 9  -6735853.13947  20590100.210    20590107.7664
  23235861.415    -1767799.998 8  -1372855.16745  23235860.578    23235871.1824
  21327735.748     5037912.654 9   3925531.40247  21327735.566    21327744.2484
  22027657.926    -4668195.040 8  -3609316.12946  22027658.090    22027667.1604
 01  5 22 20 52  0.0000000  0  8 15 17 18 21 23 22 06 26
  20764053.197    -8685950.869 9  -6755383.19047  20764052.556    20764060.5834
  20674219.741    -4049442.499 9  -3150368.75747  20674219.306    20674227.0514
  20604258.495   -13270309.603 9 -10316837.67047  20604258.129    20604264.8114
  23269476.410   -13422988.240 8  -9924243.70345  23269475.947    23269487.9604
  20588446.677    -8664893.765 9  -6742626.16247  20588446.155    20588453.7164
  23240255.370    -1744709.728 8  -1354862.79045  23240254.567    23240265.1684
  21341155.557     5108433.849 8   3980482.90047  21341155.355    21341164.0794
  22031743.148    -4646726.327 8  -3592587.25246  22031743.371    22031752.4754
 01  5 22 20 52 30.0000000  0  8 15 17 18 21 23 22 06 26
  20758376.049    -8715784.466 9  -6778630.12947  20758375.436    20758383.3874
  20673545.882    -4052983.885 9  -3153128.28947  20673545.442    20673553.1864
  20597022.123   -13308336.761 9 -10346469.18447  20597021.759    20597028.4534
  23254729.728   -13500482.170 8  -9984628.43546  23254729.286    23254741.1984
  20586873.856    -8673158.925 9  -6749066.52347  20586873.284    20586880.9004
  23244741.169    -1721137.205 8  -1336494.62045  23244740.380    23244751.0454
  21354653.695     5179367.401 8   4035755.72347  21354653.611    21354662.3604
  22035947.635    -4624631.110 8  -3575370.20846  22035947.870    22035957.0724
 01  5 22 20 53  0.0000000  0  8 15 17 18 21 23 22 06 26
  20752739.166    -8745406.465 9  -6801712.19547  20752738.538    20752746.4624
  20672910.672    -4056322.123 9  -3155729.52047  20672910.232    20672918.0104
  20589872.718   -13345906.775 9 -10375744.48047  20589872.368    20589879.1024
  23240028.526   -13577737.078 8 -10044826.92746  23240028.053    23240039.9844
  20585382.155    -8680997.405 9  -6755174.40947  20585381.657    20585389.2994
  23249318.448    -1697083.082 8  -1317751.18445  23249317.642    23249328.4644
  21368230.330     5250712.421 8   4091349.16647  21368230.222    21368238.9594
  22040271.578    -4601909.154 8  -3557664.80046  22040271.797    22040280.8874
 01  5 22 20 53 30.0000000  0  8 15 17 18 21 23 22 06 26
  20747142.518    -8774816.748 9  -6824629.28747  20747141.883    20747149.8894
  20672314.105    -4059457.152 9  -3158172.40747  20672313.665    20672321.4784
  20582810.256   -13383020.039 9 -10404663.86947  20582809.937    20582816.6534
  23225372.991   -13654752.288 8 -10104838.63546  23225372.490    23225384.4004
  20583971.456    -8688410.559 9  -6760950.87147  20583970.964    20583978.6154
  23253987.207    -1672549.138 8  -1298633.86045  23253986.360    23253997.2334
  21381884.921     5322467.341 8   4147262.00247  21381884.799    21381893.5394
  22044714.716    -4578561.380 8  -3539471.71246  22044714.871    22044723.7414
 01  5 22 20 54  0.0000000  0  8 15 17 18 21 23 22 06 26
  20741586.256    -8804014.504 9  -6847380.76847  20741585.649    20741593.7034
  20671756.318    -4062388.294 9  -3160456.41547  20671755.861    20671763.6684
  20575834.787   -13419676.191 9 -10433227.06047  20575834.446    20575841.2234
  23210763.124   -13731526.667 8 -10164662.69146  23210762.674    23210774.6134
  20582641.593    -8695398.877 9  -6766396.29847  20582641.104    20582648.7624
  23258746.723    -1647536.876 8  -1279143.81645  23258746.015    23258756.9404
  21395617.245     5394631.201 8   4203493.50447  21395617.143    21395625.9464
  22049276.753    -4554587.963 8  -3520791.11546  22049276.883    22049285.7204
 01  5 22 20 54 30.0000000  0  8 15 17 18 21 23 22 06 26
  20736070.868    -8832997.961 9  -6869965.25747  20736070.287    20736078.2924
  20671237.614    -4065113.593 9  -3162580.03547  20671237.170    20671244.9954
  20568946.560   -13455873.690 9 -10461432.87347  20568946.245    20568953.0614
  23196199.532   -13808057.694 8 -10224297.14446  23196199.116    23196211.0964
  20581392.767    -8701961.775 9  -6771510.21947  20581392.239    20581399.8004
  23263597.584    -1622046.864 8  -1259281.54245  23263596.827    23263607.5614
  21409427.437     5467204.306 8   4260043.88947  21409427.372    21409436.2554
  22053957.761    -4529988.005 8  -3501622.32546  22053957.933    22053967.0334
 01  5 22 20 55  0.0000000  0  8 15 17 18 21 23 22 06 26
  20730595.933    -8861769.253 9  -6892384.42947  20730595.308    20730603.2404
  20670757.662    -4067635.303 9  -3164544.99547  20670757.283    20670765.0824
  20562145.231   -13491614.885 9 -10489283.11247  20562144.883    20562151.6644
  23181682.055   -13884347.464 8 -10283743.57146  23181681.635    23181693.4954
  20580224.197    -8708102.717 9  -6776295.34547  20580223.688    20580231.1974
  23268538.365    -1596083.003 8  -1239050.03145  23268537.607    23268548.4024
  21423314.857     5540182.703 8   4316910.08847  21423314.768    21423323.6534
  22058757.493    -4504764.753 8  -3481967.83446  22058757.740    22058766.9524
 01  5 22 20 55 30.0000000  0  8 15 17 18 21 23 22 06 26
  20725161.490    -8890327.419 9  -6914637.53947  20725160.880    20725168.7544
  20670316.729    -4069952.575 9  -3166350.65847  20670316.348    20670324.2124
  20555430.816   -13526899.138 9 -10516777.29847  20555430.491    20555437.1744
  23167210.797   -13960394.656 8 -10343000.98246  23167210.265    23167221.9904
  20579135.884    -8713822.060 9  -6780751.95147  20579135.341    20579142.8314
  23273569.145    -1569646.127 8  -1218449.92745  23273568.374    23273579.1834
  21437279.325     5613565.560 8   4374091.45547  21437279.220    21437288.0344
  22063676.099    -4478918.315 8  -3461827.73746  22063676.264    22063685.3264
 01  5 22 20 56  0.0000000  0  8 15 17 18 21 23 22 06 26
  20719767.515    -8918672.750 9  -6936724.78347  20719766.924    20719774.7734
  20669914.684    -4072065.530 9  -3167997.10947  20669914.286    20669922.1804
  20548803.387   -13561726.790 9 -10543915.68947  20548803.010    20548809.6674
  23152785.602   -14036199.288 8 -10402069.38146  23152785.120    23152796.7104
  20578127.396    -8719121.344 9  -6784881.24647  20578126.849    20578134.3804
  23278689.444    -1542738.430 8  -1197482.93845  23278688.689    23278699.6184
  21451320.325     5687350.923 8   4431586.45347  21451320.180    21451328.9514
  22068712.952    -4452449.715 8  -3441202.86246  22068713.068    22068722.1084
 01  5 22 20 56 30.0000000  0  8 15 17 18 21 23 22 06 26
  20714414.482    -8946803.038 9  -6958644.46447  20714413.900    20714421.7874
  20669551.858    -4073972.190 9  -3169482.82347  20669551.467    20669559.2434
  20542262.973   -13596096.479 9 -10570697.23247  20542262.637    20542269.2554
  23138406.885   -14111758.823 8 -10460946.81446  23138406.515    23138418.1104
  20577198.963    -8723999.805 9  -6788682.62147  20577198.452    20577206.0184
  23283899.367    -1515360.403 8  -1176149.47845  23283898.572    23283909.5684
  21465437.869     5761539.147 8   4489395.36647  21465437.776    21465446.5244
  22073868.364    -4425358.192 8  -3420092.56746  22073868.479    22073877.3764
 01  5 22 20 57  0.0000000  0  8 15 17 18 21 23 22 06 26
  20709102.250    -8974719.047 9  -6980397.17947  20709101.647    20709109.5974
  20669228.150    -4075673.275 9  -3170808.34847  20669227.771    20669235.4134
  20535809.668   -13630009.073 9 -10597122.58247  20535809.285    20535815.8474
  23124074.905   -14187073.284 8 -10519633.27546  23124074.537    23124086.0234
  20576350.323    -8728459.409 9  -6792157.60547  20576349.779    20576357.3844
  23289198.320    -1487514.965 8  -1154451.77945  23289197.444    23289208.3844
  21479631.774     5836127.656 8   4547516.19047  21479631.610    21479640.3244
  22079142.041    -4397645.398 8  -3398498.15446  22079142.078    22079151.0284
 01  5 22 20 57 30.0000000  0  8 15 17 18 21 23 22 06 26
  20703830.770    -9002420.921 9  -7001983.04347  20703830.157    20703838.0814
  20668943.608    -4077168.783 9  -3171973.68547  20668943.218    20668950.8164
  20529443.084   -13663464.972 9 -10623192.08347  20529442.743    20529449.4224
  23109789.654   -14262142.373 8 -10578128.54446  23109789.236    23109800.7624
  20575581.106    -8732501.578 9  -6795307.32947  20575580.582    20575588.1344
  23294585.795    -1459203.992 8  -1132391.34745  23294584.914    23294595.7694
  21493901.365     5911114.546 8   4605947.44647  21493901.211    21493909.9274
  22084533.506    -4369312.547 8  -3376420.61246  22084533.596    22084542.6014
 01  5 22 20 58  0.0000000  0  8 15 17 18 21 23 22 06 26
  20698600.249    -9029907.680 9  -7023401.27647  20698599.628    20698607.4984
  20668698.368    -4078457.717 9  -3172978.05147  20668697.948    20668705.6404
  20523163.621   -13696463.610 9 -10648905.27547  20523163.300    20523169.9404
  23095551.413   -14336965.100 8 -10636431.82846  23095550.963    23095562.3694
  20574891.287    -8736126.671 9  -6798132.06147  20574890.740    20574898.2594
  23300061.734    -1430428.228 8  -1109968.74145  23300060.814    23300071.6384
  21508246.733     5986499.173 8   4664688.62047  21508246.500    21508255.2374
  22090043.068    -4340359.861 8  -3353860.07846  22090043.122    22090052.1304
 01  5 22 20 58 30.0000000  0  8 15 17 18 21 23 22 06 26
  20693410.737    -9057178.325 9  -7044651.11747  20693410.120    20693417.9794
  20668492.606    -4079539.072 9  -3173820.66447  20668492.171    20668499.9244
  20516971.341   -13729004.358 9 -10674261.66947  20516970.987    20516977.5814
  23081360.154   -14411539.868 8 -10694541.92046  23081359.778    23081371.1474
  20574280.695    -8739335.104 9  -6800632.12847  20574280.132    20574287.7244
  23305625.557    -1401189.137 8  -1087185.10345  23305624.752    23305635.6464
  21522667.458     6062280.707 8   4723739.08147  21522667.267    21522676.1054
  22095670.329    -4310787.450 8  -3330816.64646  22095670.456    22095679.5564
 01  5 22 20 59  0.0000000  0  8 15 17 18 21 23 22 06 26
  20688262.424    -9084233.065 9  -7065732.70847  20688261.834    20688269.6324
  20668326.229    -4080413.213 9  -3174501.82247  20668325.826    20668333.5474
  20510865.961   -13761088.039 9 -10699261.90147  20510865.643    20510872.1974
  23067216.086   -14485866.690 8 -10752458.79546  23067215.739    23067226.9754
  20573749.050    -8742128.576 9  -6802808.84247  20573748.510    20573756.0924
  23311277.326    -1371489.723 8  -1064042.77845  23311276.489    23311287.2884
  21537163.389     6138456.878 8   4783097.04747  21537163.222    21537172.0414
  22101415.377    -4280596.959 8  -3307291.58946  22101415.538    22101424.6364
 01  5 22 20 59 30.0000000  0  8 15 17 18 21 23 22 06 26
  20683155.168    -9111071.788 9  -7086645.98447  20683154.570    20683162.3574
  20668199.388    -4081079.970 9  -3175021.37747  20668198.974    20668206.5944
  20504847.538   -13792715.091 9 -10723906.32247  20504847.210    20504853.7504
  23053119.253   -14559945.434 8 -10810182.35646  23053118.909    23053129.9874
  20573296.168    -8744508.349 9  -6804663.19047  20573295.644    20573303.2104
  23317016.139    -1341332.079 8  -1040543.37245  23317015.286    23317026.2554
  21551734.164     6215026.092 8   4842761.27047  21551733.945    21551742.7754
  22107277.745    -4249789.574 8  -3283285.82846  22107277.930    22107287.0044
 01  5 22 21  0  0.0000000  0  8 15 17 18 21 23 22 06 26
  20678089.147    -9137693.551 9  -7107390.19447  20678088.557    20678096.4034
  20668112.065    -4081538.661 9  -3175378.80047  20668111.644    20668119.3464
  20498916.045   -13823885.061 9 -10748194.57547  20498915.726    20498922.3004
  23039069.788   -14633775.167 8 -10867711.90446  23039069.454    23039080.5484
  20572921.971    -8746474.991 9  -6806195.62647  20572921.463    20572928.9624
  23322841.850    -1310716.891 8  -1016687.43945  23322841.123    23322852.3124
  21566379.394     6291987.202 8   4902730.86147  21566379.246    21566388.0394
  22113257.557    -4218365.715 8  -3258799.68846  22113257.711    22113266.7064
 01  5 22 21  0 30.0000000  0  8 15 17 18 21 23 22 06 26
  20673064.573    -9164097.787 9  -7127964.90047  20673063.996    20673071.8664
  20668064.494    -4081788.585 9  -3175573.54947  20668064.107    20668071.8524
  20493071.560   -13854597.858 9 -10772126.58447  20493071.242    20493077.8204
  23025068.024   -14707354.505 8 -10925046.33246  23025067.667    23025078.8574
  20572626.224    -8748029.400 9  -6807406.83747  20572625.687    20572633.1304
  23328754.734    -1279645.909 8   -992476.35246  23328753.930    23328765.0704
  21581099.109     6369338.935 8   4963004.84547  21581098.916    21581107.7894
  22119354.536    -4186326.002 8  -3233833.67646  22119354.679    22119363.7114
 01  5 22 21  1  0.0000000  0  8 15 17 18 21 23 22 06 26
  20668081.408    -9190284.550 9  -7148370.15447  20668080.816    20668088.7124
  20668056.728    -4081829.761 9  -3175605.63847  20668056.283    20668063.9964
  20487313.968   -13884854.070 9 -10795702.82347  20487313.678    20487320.2944
  23011113.820   -14780683.432 8 -10982185.63546  23011113.428    23011124.7044
  20572408.553    -8749173.202 9  -6808298.09647  20572408.028    20572415.4304
  23334753.661    -1248121.844 8   -967912.21246  23334752.876    23334763.9594
  21595892.746     6447079.310 8   5023581.67547  21595892.484    21595901.4934
  22125568.477    -4153671.910 8  -3208388.93446  22125568.558    22125577.6544
 01  5 22 21  1 30.0000000  0  8 15 17 18 21 23 22 06 26
  20663139.448    -9216254.684 9  -7168606.61147  20663138.877    20663146.7404
  20668088.426    -4081662.925 9  -3175475.64047  20668088.010    20668095.7254
  20481643.112   -13914654.720 9 -10818924.06947  20481642.774    20481649.3474
  22997207.330   -14853762.447 8 -11039130.18846  22997206.876    22997218.0444
  20572268.687    -8749908.335 9  -6808870.90647  20572268.155    20572275.5634
  23340838.161    -1216147.977 8   -942997.57846  23340837.414    23340848.5134
  21610759.749     6525205.706 8   5084459.29347  21610759.473    21610768.6604
  22131898.764    -4120405.528 8  -3182467.06846  22131898.895    22131907.9944
 01  5 22 21  2  0.0000000  0  8 15 17 18 21 23 22 06 26
  20658239.168    -9242005.845 9  -7188672.42847  20658238.559    20658246.4174
  20668160.265    -4081285.616 9  -3175181.63847  20668159.831    20668167.5744
  20476059.213   -13943998.173 9 -10841789.06047  20476058.900    20476065.4724
  22983348.864   -14926588.961 8 -11095878.00046  22983348.419    22983359.5134
  20572206.683    -8750233.925 9  -6809124.59747  20572206.148    20572213.6234
  23347008.406    -1183723.830 8   -917732.07846  23347007.633    23347018.6084
  21625700.199     6603718.613 8   5145638.09647  21625700.049    21625709.3674
  22138345.842    -4086525.724 8  -3156067.21146  22138345.962    22138355.0134
 01  5 22 21  2 30.0000000  0  8 15 17 18 21 23 22 06 26
  20653380.274    -9267539.175 9  -7208568.50947  20653379.653    20653387.5794
  20668271.918    -4080699.211 9  -3174724.70047  20668271.463    20668279.2074
  20470561.907   -13972886.352 9 -10864299.29447  20470561.555    20470568.2094
  22969538.347   -14999163.907 8 -11152429.77446  22969537.850    22969548.8814
  20572222.100    -8750152.754 9  -6809061.32647  20572221.607    20572229.0534
  23353263.689    -1150852.710 8   -892118.29346  23353262.882    23353273.8844
  21640713.820     6682614.667 8   5207115.44147  21640713.566    21640722.8624
  22144909.170    -4052035.368 8  -3129191.60646  22144909.239    22144918.2914
 01  5 22 21  3  0.0000000  0  8 15 17 18 21 23 22 06 26
  20648563.123    -9292853.141 9  -7228293.65547  20648562.548    20648570.4924
  20668423.612    -4079902.113 9  -3174103.58847  20668423.129    20668430.9424
  20465151.405   -14001318.248 9 -10886453.98447  20465151.081    20465157.7064
  22955775.857   -15071485.586 8 -11208784.20846  22955775.368    22955786.4194
  20572314.958    -8749664.957 9  -6808681.20447  20572314.433    20572321.8484
  23359603.706    -1117535.525 8   -866156.90246  23359603.013    23359614.0134
  21655800.080     6761893.433 8   5268891.01147  21655799.842    21655809.1194
  22151588.527    -4016934.521 8  -3101840.30546  22151588.674    22151597.7134
 01  5 22 21  3 30.0000000  0  8 15 17 18 21 23 22 06 26
  20643787.901    -9317947.478 9  -7247847.66947  20643787.283    20643795.1374
  20668615.409    -4078893.977 9  -3173318.02947  20668614.956    20668622.7914
  20459827.828   -14029293.995 9 -10908253.23247  20459827.446    20459834.0644
  22942061.516   -15143553.848 8 -11264941.18646  22942061.062    22942072.1754
  20572484.908    -8748771.825 9  -6807985.24147  20572484.355    20572491.7864
  23366028.314    -1083774.928 8   -839850.01446  23366027.515    23366038.4134
  21670958.812     6841553.163 8   5330963.42947  21670958.618    21670967.9154
  22158384.191    -3981224.258 8  -3074014.12446  22158384.260    22158393.0454
 01  5 22 21  4  0.0000000  0  8 15 17 18 21 23 22 06 26
  20639054.335    -9342822.649 9  -7267230.90747  20639053.700    20639061.4774
  20668847.304    -4077675.467 9  -3172368.53947  20668846.835    20668854.5994
  20454590.756   -14056814.945 9 -10929698.09847  20454590.392    20454596.9754
  22928395.413   -15215368.553 8 -11320900.56946  22928395.023    22928406.1924
  20572731.627    -8747475.365 9  -6806974.99247  20572731.085    20572738.4844
  23372536.729    -1049573.843 8   -813199.88245  23372535.840    23372546.6714
  21686189.749     6921591.502 8   5393330.87847  21686189.513    21686198.8514
  22165295.219    -3944906.612 8  -3045714.65546  22165295.345    22165303.9604
 01  5 22 21  4 30.0000000  0  8 15 17 18 21 23 22 06 26
  20634362.771    -9367477.073 9  -7286442.12347  20634362.128    20634369.8524
  20669119.553    -4076244.987 9  -3171253.88547  20669119.067    20669126.7864
  20449440.383   -14083880.151 9 -10950787.83247  20449440.027    20449446.5844
  22914778.068   -15286928.219 8 -11376661.21746  22914777.550    22914788.6054
  20573055.120    -8745775.591 9  -6805650.47047  20573054.541    20573061.9024
  23379128.647    -1014932.656 8   -786206.81645  23379127.797    23379138.8394
  21701492.391     7002007.895 8   5455992.91947  21701492.190    21701501.7104
  22172321.838    -3907981.784 8  -3016942.04646  22172321.940    22172330.5204
 01  5 22 21  5  0.0000000  0  8 15 17 18 21 23 22 06 26
  20629713.218    -9391910.567 9  -7305481.19447  20629712.567    20629720.3474
  20669432.099    -4074602.203 9  -3169973.79447  20669431.660    20669439.4274
  20444376.615   -14110490.015 9 -10971522.76147  20444376.263    20444382.8954
  22901209.304   -15358232.181 8 -11432222.61346  22901208.783    22901219.7274
  20573455.022    -8743673.754 9  -6804012.65647  20573454.454    20573461.8604
  23385803.977     -979853.351 8   -758872.36245  23385803.166    23385814.2604
  21716866.554     7082800.529 8   5518948.12947  21716866.446    21716876.1874
  22179463.772    -3870450.821 8  -2987697.16146  22179463.807    22179472.5524
 01  5 22 21  5 30.0000000  0  8 15 17 18 21 23 22 06 26
  20625105.650    -9416123.297 9  -7324348.23647  20625104.997    20625112.8894
  20669785.115    -4072747.385 9  -3168528.47347  20669784.636    20669792.4224
  20439399.413   -14136645.472 9 -10991903.59247  20439399.078    20439405.6824
  22887689.063   -15429281.065 8 -11487585.24546  22887688.553    22887699.4784
  20573931.150    -8741171.682 9  -6802062.95947  20573930.584    20573938.0374
  23392562.300     -944339.030 8   -731198.93945  23392561.406    23392572.3704
  21732312.125     7163967.075 8   5582194.70247  21732312.043    21732321.8344
  22186720.494    -3832315.848 8  -2957981.60646  22186720.563    22186729.4174
 01  5 22 21  6  0.0000000  0  8 15 17 18 21 23 22 06 26
  20620540.199    -9440114.601 9  -7343042.74747  20620539.558    20620547.4474
  20670178.524    -4070680.031 9  -3166917.54747  20670178.034    20670185.8604
  20434508.587   -14162346.759 9 -11011930.53847  20434508.234    20434514.8484
  22874217.434   -15500073.809 8 -11542748.31246  22874216.979    22874227.9804
  20574483.115    -8738270.441 9  -6799802.23147  20574482.562    20574490.1324
  23399402.785     -908392.159 8   -703188.46845  23399401.861    23399412.9354
  21747828.715     7245506.033 8   5645731.46047  21747828.521    21747838.2954
  22194092.190    -3793577.880 8  -2927796.18346  22194092.239    22194100.9344
 01  5 22 21  6 30.0000000  0  8 15 17 18 21 23 22 06 26
  20616017.055    -9463884.026 9  -7361564.36247  20616016.399    20616024.2434
  20670612.441    -4068399.623 9  -3165140.60747  20670611.983    20670619.7454
  20429704.194   -14187593.973 9 -11031603.65547  20429703.830    20429710.4464
  22860794.809   -15570609.894 8 -11597711.36346  22860794.322    22860805.3254
  20575110.878    -8734971.275 9  -6797231.42847  20575110.357    20575117.9174
  23406325.182     -872014.319 8   -674842.17545  23406324.348    23406335.4534
  21763415.690     7327415.728 8   5709557.10847  21763415.521    21763425.3224
  22201578.421    -3754238.143 8  -2897141.84246  22201578.457    22201587.0144
 01  5 22 21  7  0.0000000  0  8 15 17 18 21 23 22 06 26
  20611536.260    -9487430.867 9  -7379912.53747  20611535.611    20611543.4304
  20671087.083    -4065905.484 9  -3163197.13647  20671086.624    20671094.3754
  20424986.203   -14212387.214 9 -11050923.02547  20424985.857    20424992.4174
  22847421.190   -15640888.819 8 -11652474.04746  22847420.640    22847431.5644
  20575814.283    -8731275.024 9  -6794351.21447  20575813.711    20575821.2814
  23413329.476     -835206.928 8   -646161.18345  23413328.700    23413339.7534
  21779072.869     7409694.806 8   5773670.57546  21779072.761    21779082.4894
  22209178.934    -3714297.624 8  -2866019.36846  22209178.956    22209187.4614
 01  5 22 21  7 30.0000000  0  8 15 17 18 21 23 22 06 26
  20607097.870    -9510754.965 9  -7398087.14547  20607097.223    20607105.0244
  20671602.380    -4063197.453 9  -3161086.97747  20671601.928    20671609.7384
  20420354.422   -14236727.199 9 -11069889.21247  20420354.073    20420360.6524
  22834096.433   -15710909.995 8 -11707035.88446  22834095.935    22834106.8824
  20576592.888    -8727183.283 9  -6791162.83447  20576592.341    20576599.9484
  23420414.948     -797972.404 8   -617147.34745  23420414.185    23420425.3044
  21794800.021     7492341.258 8   5838070.31346  21794799.894    21794809.5394
  22216893.368    -3673757.922 8  -2834429.99846  22216893.395    22216902.0264
 01  5 22 21  8  0.0000000  0  8 15 17 18 21 23 22 06 26
  20602701.980    -9533855.499 9  -7416087.54647  20602701.297    20602709.1694
  20672158.542    -4060274.660 9  -3158809.47447  20672158.133    20672165.9654
  20415808.890   -14260613.715 9 -11088502.04847  20415808.540    20415815.1214
  22820820.967   -15780672.415 8 -11761396.10946  22820820.575    22820831.5114
  20577446.563    -8722696.944 9  -6787666.96847  20577446.011    20577453.6214
  23427581.298     -760313.110 8   -587802.51445  23427580.573    23427591.7104
  21810596.884     7575353.836 8   5902755.33746  21810596.758    21810606.3464
  22224721.483    -3632620.067 8  -2802374.55246  22224721.566    22224730.3424
 01  5 22 21  8 30.0000000  0  8 15 17 18 21 23 22 06 26
  20598348.617    -9556732.112 9  -7433913.46347  20598347.980    20598355.9174
  20672755.744    -4057136.635 9  -3156364.27147  20672755.299    20672763.0824
  20411349.638   -14284047.162 9 -11106761.84847  20411349.317    20411355.8304
  22807594.807   -15850175.957 8 -11815554.60646  22807594.460    22807605.3714
  20578375.117    -8717817.116 9  -6783864.48647  20578374.588    20578382.2104
  23434828.213     -722231.123 8   -558128.32445  23434827.436    23434838.5864
  21826463.169     7658730.969 8   5967724.42946  21826462.994    21826472.5654
  22232663.412    -3590885.266 8  -2769853.94046  22232663.567    22232672.2344
 01  5 22 21  9  0.0000000  0  8 15 17 18 21 23 22 06 26
  20594037.813    -9579385.409 9  -7451565.37247  20594037.205    20594045.0804
  20673393.755    -4053783.845 9  -3153751.72347  20673393.318    20673401.0604
  20406976.287   -14307028.921 9 -11124669.68047  20406975.985    20406982.5044
  22794418.054   -15919420.717 8 -11869511.44346  22794417.633    22794428.2934
  20579378.137    -8712546.005 9  -6779757.11947  20579377.623    20579385.2954
  23442154.874     -683729.043 8   -528126.77845  23442154.214    23442165.2944
  21842398.239     7742469.849 8   6032975.39646  21842398.053    21842407.6624
  22240718.568    -3548555.929 8  -2736870.06246  22240718.551    22240727.2834
 01  5 22 21  9 30.0000000  0  8 15 17 18 21 23 22 06 26
  20589769.811    -9601813.682 9  -7469041.94047  20589769.190    20589777.0664
  20674072.795    -4050214.833 9  -3150970.67847  20674072.417    20674080.2444
  20402689.099   -14329558.173 9 -11142224.90747  20402688.822    20402695.3504
  22781290.468   -15988405.085 8 -11923265.40346  22781290.181    22781300.8024
  20580455.647    -8706883.680 9  -6775344.90547  20580455.127    20580462.7604
  23449561.400     -644807.791 8   -497798.60645  23449560.727    23449571.8454
  21858401.882     7826569.844 8   6098507.75546  21858401.743    21858411.4534
  22248886.495    -3505632.248 8  -2703423.06146  22248886.616    22248895.3284
 01  5 22 21 10  0.0000000  0  8 15 17 18 21 23 22 06 26
  20585544.559    -9624016.813 9  -7486343.06847  20585544.015    20585551.8824
  20674793.193    -4046429.450 9  -3148021.04147  20674792.819    20674800.6844
  20398487.798   -14351635.848 9 -11159428.26047  20398487.521    20398494.0024
  22768212.543   -16057129.581 8 -11976816.86046  22768212.255    22768222.8654
  20581607.245    -8700831.850 9  -6770629.18147  20581606.740    20581614.4154
  23457047.082     -605470.269 8   -467146.07045  23457046.395    23457057.6404
  21874473.952     7911028.561 8   6164319.63846  21874473.827    21874483.4954
  22257167.372    -3462116.201 8  -2669514.45446  22257167.474    22257176.1444
 01  5 22 21 10 30.0000000  0  8 15 17 18 21 23 22 06 26
  20581362.371    -9645994.280 9  -7503468.35547  20581361.810    20581369.6964
  20675554.787    -4042427.405 9  -3144902.57847  20675554.382    20675562.2344
  20394372.354   -14373262.452 9 -11176280.12547  20394372.090    20394378.5544
  22755184.246   -16125593.533 8 -12030165.30946  22755183.904    22755194.6194
  20582832.677    -8694391.971 9  -6765611.08647  20582832.202    20582839.9174
  23464611.331     -565719.189 8   -436171.26845  23464610.777    23464622.2284
  21890613.977     7995844.241 8   6230409.67546  21890613.813    21890623.5164
  22265560.474    -3418009.177 8  -2635145.37046  22265560.643    22265569.4284
 01  5 22 21 11  0.0000000  0  8 15 17 18 21 23 22 06 26
  20577223.324    -9667745.287 9  -7520417.17447  20577222.765    20577230.6534
  20676357.776    -4038207.900 9  -3141614.66347  20676357.355    20676365.1474
  20390342.779   -14394438.057 9 -11192780.56947  20390342.480    20390348.9384
  22742205.588   -16193795.966 8 -12083309.96146  22742205.279    22742216.1144
  20584131.884    -8687564.876 9  -6760291.26147  20584131.402    20584139.0414
  23472254.284     -525556.196 8   -404875.51845  23472253.596    23472265.0404
  21906821.520     8081015.366 8   6296776.67546  21906821.373    21906831.1254
  22274066.014    -3373312.779 8  -2600317.03846  22274066.125    22274074.9654
 01  5 22 21 11 30.0000000  0  8 15 17 18 21 23 22 06 26
  20573127.450    -9689269.511 9  -7537189.29647  20573126.871    20573134.6914
  20677202.215    -4033770.498 9  -3138156.96147  20677201.791    20677209.5704
  20386398.895   -14415163.385 9 -11208930.14547  20386398.610    20386404.9924
  22729276.867   -16261736.785 8 -12136250.76546  22729276.459    22729287.2354
  20585504.465    -8680352.186 9  -6754670.97447  20585503.932    20585511.5614
  23479975.200     -484983.281 8   -373260.36245  23479974.502    23479985.8064
  21923096.364     8166540.237 8   6363419.32846  21923096.286    21923106.0404
  22282683.421    -3328028.181 8  -2565030.36546  22282683.549    22282692.4554
 01  5 22 21 12  0.0000000  0  8 15 17 18 21 23 22 06 26
  20569074.767    -9710566.840 9  -7553784.60647  20569074.146    20569081.8594
  20678088.023    -4029115.286 9  -3134529.52747  20678087.588    20678095.3954
  20382540.593   -14435439.197 9 -11224729.44947  20382540.261    20382546.6294
  22716397.909   -16329415.816 8 -12188987.56746  22716397.525    22716408.2014
  20586950.021    -8672755.565 9  -6748751.51447  20586949.551    20586957.1414
  23487773.484     -444003.045 8   -341327.79145  23487772.783    23487784.2714
  21939438.251     8252416.444 8   6430335.74146  21939438.153    21939447.7934
  22291412.358    -3282157.729 8  -2529287.15846  22291412.506    22291421.2354
 01  5 22 21 12 30.0000000  0  8 15 17 18 21 23 22 06 26
  20565065.180    -9731637.212 9  -7570203.06047  20565064.552    20565072.3094
  20679015.346    -4024242.014 9  -3130732.17747  20679014.946    20679022.7384
  20378767.644   -14455266.217 9 -11240179.03847  20378767.333    20378773.7074
  22703568.803   -16396833.049 8 -12241520.37446  22703568.387    22703579.0004
  20588468.449    -8664776.563 9  -6742534.09447  20588467.940    20588475.4724
  23495648.785     -402618.443 8   -309080.15245  23495648.051    23495659.6904
  21955846.631     8338641.912 8   6497524.30646  21955846.473    21955856.0934
  22300252.535    -3235702.757 8  -2493088.50646  22300252.647    22300261.2274
 01  5 22 21 13  0.0000000  0  8 15 17 18 21 23 22 06 26
  20561098.999    -9752479.431 9  -7586443.73547  20561098.408    20561106.2274
  20679984.428    -4019149.609 9  -3126764.08147  20679984.015    20679991.7654
  20375080.113   -14474644.025 9 -11255278.59747  20375079.796    20375086.2134
  22690789.731   -16463987.290 8 -12293848.25346  22690789.283    22690799.8524
  20590059.513    -8656415.609 9  -6736019.05547  20590058.969    20590066.4484
  23503600.667     -360831.331 8   -276518.87645  23503599.946    23503611.6944
  21972321.131     8425215.663 8   6564984.26246  21972320.939    21972330.6884
  22309203.847    -3188664.511 8  -2456435.34546  22309203.830    22309212.2794
 01  5 22 21 13 30.0000000  0  8 15 17 18 21 23 22 06 26
  20557176.400    -9773093.137 9  -7602506.34747  20557175.763    20557183.5754
  20680995.250    -4013837.610 9  -3122624.87347  20680994.855    20681002.5964
  20371477.873   -14493573.730 9 -11270028.98347  20371477.560    20371483.9934
  22678060.727   -16530878.479 8 -12345971.14846  22678060.256    22678070.7504
  20591722.946    -8647674.388 9  -6729207.70447  20591722.417    20591729.8084
  23511628.718     -318643.733 8   -243645.50045  23511628.049    23511639.9684
  21988861.383     8512135.433 8   6632713.84346  21988861.248    21988871.0894
  22318265.673    -3141044.868 8  -2419329.16146  22318265.596    22318273.9904
 01  5 22 21 14  0.0000000  0  8 15 17 18 21 23 22 06 26
  20553297.373    -9793477.631 9  -7618390.35547  20553296.729    20553304.4624
  20682048.071    -4008305.439 9  -3118314.09047  20682047.656    20682055.3484
  20367960.843   -14512055.722 9 -11284430.50047  20367960.544    20367966.9374
  22665381.821   -16597505.859 8 -12397888.48046  22665381.423    22665391.9284
  20593458.525    -8638554.077 9  -6722100.95047  20593457.946    20593465.3434
  23519732.914     -276057.540 8   -210461.53645  23519732.178    23519743.8954
  22005467.410     8599399.734 8   6700711.88746  22005467.242    22005476.9304
  22327437.836    -3092844.971 8  -2381770.80846  22327437.756    22327446.1204
 01  5 22 21 14 30.0000000  0  8 15 17 18 21 23 22 06 26
  20549461.889    -9813632.942 9  -7634095.77347  20549461.254    20549468.9634
  20683142.791    -4002552.879 9  -3113831.57947  20683142.348    20683150.0754
  20364528.949   -14530090.615 9 -11298483.62647  20364528.610    20364534.9924
  22652753.188   -16663869.540 8 -12449600.33146  22652752.815    22652763.2264
  20595265.755    -8629056.429 9  -6714700.17447  20595265.195    20595272.6724
  23527912.359     -233075.478 8   -176969.10945  23527911.655    23527923.1054
  22022138.588     8687006.204 8   6768976.55646  22022138.311    22022147.9564
  22336719.974    -3044066.982 8  -2343762.01946  22336719.910    22336728.5004
 01  5 22 21 15  0.0000000  0  8 15 17 18 21 23 22 06 26
  20545670.183    -9833558.343 9  -7649622.04247  20545669.569    20545677.2774
  20684279.424    -3996579.291 9  -3109176.83947  20684278.992    20684286.8554
  20361182.014   -14547678.576 9 -11312188.50247  20361181.707    20361188.1104
  22640174.914   -16729968.950 8 -12501106.25946  22640174.504    22640184.7814
  20597144.708    -8619182.437 9  -6707006.13847  20597144.184    20597151.6264
  23536166.295     -189700.169 8   -143170.22945  23536165.591    23536177.2464
  22038874.338     8774953.478 8   6837506.78946  22038874.165    22038883.8174
  22346111.879    -2994712.330 8  -2305303.88546  22346111.838    22346120.4554
 01  5 22 21 15 30.0000000  0  8 15 17 18 21 23 22 06 26
  20541922.436    -9853253.223 9  -7664968.68947  20541921.794    20541929.5214
  20685458.367    -3990383.892 9  -3104349.26047  20685457.995    20685465.7834
  20357920.067   -14564820.344 9 -11325545.69647  20357919.726    20357926.0814
  22627646.965   -16795803.540 8 -12552405.82846  22627646.547    22627656.8144
  20599095.068    -8608933.545 9  -6699019.97847  20599094.504    20599101.9544
  23544495.106     -145933.698 8   -109066.59945  23544494.395    23544505.5004
  22055674.680     8863239.739 8   6906301.16846  22055674.544    22055684.2214
  22355613.186    -2944782.483 8  -2266397.54746  22355613.171    22355621.7694
 01  5 22 21 16  0.0000000  0  8 15 17 18 21 23 22 06 26
  20538218.577    -9872716.838 9  -7680135.12947  20538217.948    20538225.7074
  20686679.718    -3983966.170 9  -3099348.45147  20686679.300    20686687.0254
  20354742.849   -14581516.198 9 -11338555.42147  20354742.565    20354748.8894
  22615169.514   -16861372.685 8 -12603498.57146  22615169.065    22615179.3434
  20601116.518    -8598310.784 9  -6690742.49747  20601115.964    20601123.3704
  23552897.649     -101777.849 8    -74659.52345  23552896.800    23552907.9894
  22072539.405     8951863.276 8   6975358.34946  22072539.189    22072548.8664
  22365223.697    -2894279.119 8  -2227044.29946  22365223.668    22365232.2164
 01  5 22 21 16 30.0000000  0  8 15 17 18 21 23 22 06 26
  20534558.810    -9891948.968 9  -7695121.19347  20534558.201    20534565.9144
  20687943.280    -3977326.163 9  -3094174.42947  20687942.875    20687950.6044
  20351650.423   -14597767.354 9 -11351218.63147  20351650.086    20351656.4304
  22602742.323   -16926676.602 8 -12654384.64246  22602741.908    22602752.3034
  20603208.821    -8587315.911 9  -6682175.04947  20603208.256    20603215.5644
  23561373.554      -57235.277 8    -39951.11145  23561372.900    23561384.2684
  22089467.661     9040821.499 8   7044676.32946  22089467.469    22089477.1234
  22374942.902    -2843204.361 8  -2187245.81846  22374942.879    22374951.4134
 01  5 22 21 17  0.0000000  0  8 15 17 18 21 23 22 06 26
  20530943.353    -9910948.211 9  -7709925.78847  20530942.724    20530950.3904
  20689249.439    -3970462.158 9  -3088825.86347  20689249.031    20689256.8524
  20348642.593   -14613573.147 9 -11363534.81147  20348642.278    20348648.5994
  22590366.025   -16991713.646 8 -12705062.75946  22590365.675    22590376.0424
  20605371.768    -8575949.603 9  -6673318.18047  20605371.178    20605378.5174
  23569923.234      -12307.812 8     -4942.79645  23569922.373    23569933.8364
  22106459.513     9130113.591 8   7114254.45346  22106459.306    22106469.0024
  22384770.518    -2791559.019 8  -2147002.72646  22384770.506    22384779.1754
 01  5 22 21 17 30.0000000  0  8 15 17 18 21 23 22 06 26
  20527372.134    -9929715.011 9  -7724549.24847  20527371.536    20527379.1924
  20690598.127    -3963374.917 9  -3083303.34247  20690597.737    20690605.5434
  20345719.201   -14628935.412 9 -11375505.37547  20345718.902    20345725.2094
  22578040.459   -17056484.914 8 -12755533.77946  22578040.088    22578050.3314
  20607604.922    -8564214.205 9  -6664173.70347  20607604.372    20607611.6844
  23578545.160       33000.721 8     30362.47745  23578544.462    23578555.9374
  22123514.272     9219736.548 8   7184090.40746  22123514.050    22123523.7714
  22394706.270    -2739346.055 8  -2106317.33846  22394706.347    22394715.0814
 01  5 22 21 18  0.0000000  0  8 15 17 18 21 23 22 06 26
  20523845.178    -9948249.068 9  -7738991.35747  20523844.588    20523852.2874
  20691989.374    -3956063.926 9  -3077606.47347  20691988.964    20691996.7464
  20342880.077   -14643854.992 9 -11387130.99947  20342879.778    20342886.0694
  22565765.479   -17120990.121 8 -12805797.47446  22565765.086    22565775.3774
  20609908.036    -8552111.128 9  -6654742.72347  20609907.448    20609914.8274
  23587239.504       78688.218 8     65963.01045  23587238.624    23587249.9544
  22140631.501     9309688.263 8   7254182.53246  22140631.389    22140641.3064
  22404749.819    -2686567.341 8  -2065191.10246  22404749.865    22404758.6424
 01  5 22 21 18 30.0000000  0  8 15 17 18 21 23 22 06 26
  20520362.630    -9966549.823 9  -7753251.68547  20520362.049    20520369.7854
  20693423.244    -3948528.646 9  -3071734.84247  20693422.852    20693430.6364
  20340125.061   -14658332.334 9 -11398412.02347  20340124.795    20340131.0434
  22553541.107   -17185228.815 8 -12855853.50846  22553540.749    22553551.1404
  20612280.759    -8539641.859 9  -6645026.40247  20612280.215    20612287.6564
  23596005.444      124752.603 7    101857.23945  23596004.596    23596015.8314
  22157811.236     9399966.895 8   7324529.38946  22157811.016    22157820.9274
  22414900.552    -2633224.617 8  -2023625.37046  22414900.657    22414909.4544
 01  5 22 21 19  0.0000000  0  9 15 17 18 21 23 03 22 06 26
  20516924.694    -9984615.941 9  -7767329.16647  20516924.119    20516931.9134
  20694900.076    -3940767.905 9  -3065687.52747  20694899.659    20694907.4774
  20337454.276   -14672367.568 9 -11409348.55047  20337453.984    20337460.2054
  22541367.612   -17249200.117 8 -12905701.17546  22541367.306    22541377.7134
  20614723.136    -8526807.043 9  -6635025.23747  20614722.575    20614730.0474
  23426252.111                                    23426257.989    23426262.6774
  23604842.767      171192.140 7    138043.76645  23604841.818    23604853.2424
  22175052.731     9490571.154 8   7395129.98546  22175052.490    22175062.3894
  22425158.355    -2579319.069 8  -1981621.09346  22425158.446    22425167.4144
 01  5 22 21 19 30.0000000  0  9 15 17 18 21 23 03 22 06 26
  20513531.410   -10002447.447 9  -7781223.82747  20513530.848    20513538.7254
  20696419.787    -3932781.642 9  -3059464.47247  20696419.397    20696427.2544
  20334867.318   -14685961.832 9 -11419941.46347  20334867.064    20334873.2914
  22529245.168   -17312903.992 8 -12955340.46146  22529244.838    22529255.1124
  20617234.644    -8513608.693 9  -6624740.80047  20617234.096    20617241.6414
  23408680.668     -498539.87255                  23408680.708    23408691.2524
  23613750.681      218003.326 7    174519.89745  23613749.821    23613761.1804
  22192355.663     9581498.636 8   7465982.43646  22192355.522    22192365.3314
  22435522.672    -2524853.062 8  -1939180.08546  22435522.870    22435531.9914
 01  5 22 21 20  0.0000000  0  9 15 17 18 21 23 03 22 06 26
  20510183.153   -10020042.921 9  -7794934.57147  20510182.586    20510190.4824
  20697982.787    -3924568.470 9  -3053064.61847  20697982.385    20697990.1354
  20332364.403   -14699114.935 9 -11430190.61047  20332364.117    20332370.3314
  22517173.779   -17376339.718 8 -13004770.77946  22517173.356    22517183.6384
  20619815.240    -8500047.500 9  -6614173.63047  20619814.729    20619822.2754
  23391155.152     -751185.10017   -570304.71845  23391157.089    23391166.8694
  23622729.180      265184.537 7    211284.37545  23622728.076    23622739.5584
  22209719.995     9672748.202 8   7537085.86546  22209719.841    22209729.6914
  22445993.760    -2469827.609 8  -1896303.15146  22445993.952    22446003.0754
 01  5 22 21 20 30.0000000  0  9 15 17 18 21 23 03 22 06 26
  20506879.847   -10037402.289 9  -7808461.35347  20506879.253    20506887.0614
  20699588.893    -3916128.401 9  -3046487.95147  20699588.493    20699596.2384
  20329945.109   -14711827.982 9 -11440096.85947  20329944.842    20329951.0984
  22505153.194   -17439507.637 8 -13053992.44546  22505152.787    22505163.1004
  20622464.563    -8486125.293 9  -6603325.14547  20622463.995    20622471.5584
  23373675.790     -843042.792 7   -641882.03445  23373675.851    23373686.6474
  23631777.193      312733.398 7    248335.32845  23631776.312    23631787.9344
  22227145.119     9764317.249 8   7608438.22646  22227144.958    22227154.9804
  22456570.758    -2414245.218 8  -1852992.23546  22456570.920    22456580.0824
 01  5 22 21 21  0.0000000  0  9 15 17 18 21 23 03 22 06 26
  20503621.206   -10054526.000 9  -7821804.49247  20503620.609    20503628.4534
  20701238.065    -3907461.742 9  -3039734.72847  20701237.691    20701245.4554
  20327609.359   -14724102.740 9 -11449661.58347  20327609.069    20327615.2814
  22493183.552   -17502408.012 8 -13103005.63046  22493183.163    22493193.4914
  20625182.098    -8471844.338 9  -6592197.12547  20625181.574    20625189.1334
  23356242.198     -934658.086 7   -713270.46845  23356242.340    23356252.7634
  23640894.729      360646.618 7    285670.17045  23640893.900    23640905.5124
  22244630.411     9856202.971 8   7680037.35246  22244630.253    22244640.4464
  22467253.273    -2358108.542 8  -1809249.40446  22467253.464    22467262.5774
 01  5 22 21 21 30.0000000  0  9 15 17 18 21 23 03 22 06 26
  20500407.619   -10071413.197 9  -7834963.32347  20500407.093    20500414.9884
  20702930.630    -3898567.587 9  -3032804.23347  20702930.229    20702937.9854
  20325356.916   -14735939.442 9 -11458884.96447  20325356.618    20325362.8184
  22481264.878   -17565040.788 8 -13151810.30446  22481264.475    22481274.7654
  20627967.763    -8457205.873 9  -6580790.52147  20627967.215    20627974.7044
  23338855.036    -1026028.133 7   -784467.81245  23338855.157    23338865.5554
  23650081.172      408921.708 7    323286.99445  23650080.459    23650092.1614
  22262175.635     9948403.715 8   7751881.95946  22262175.476    22262185.7174
  22478040.901    -2301419.367 8  -1765076.06946  22478041.095    22478050.1474
 01  5 22 21 22  0.0000000  0  9 15 17 18 21 23 03 22 06 26
  20497239.673   -10088061.515 9  -7847936.01847  20497239.087    20497246.9404
  20704666.867    -3889443.890 9  -3025694.87547  20704666.438    20704674.2094
  20323187.992   -14747337.280 9 -11467766.37747  20323187.700    20323193.8114
  22469397.471   -17627403.402 8 -13200404.47146  22469397.130    22469407.3684
  20630821.474    -8442209.664 9  -6569105.16047  20630820.900    20630828.3574
  23321514.975    -1117148.809 7   -855470.83145  23321515.282    23321525.6924
  23659336.504      457557.521 7    361184.94145  23659335.643    23659347.1964
  22279780.755    10040919.118 8   7823971.74346  22279780.648    22279790.9824
  22488933.432    -2244177.881 8  -1720472.37446  22488933.685    22488942.8854
 01  5 22 21 22 30.0000000  0  9 15 17 18 21 23 03 22 06 26
  20494116.877   -10104472.027 9  -7860723.41747  20494116.259    20494124.0544
  20706446.591    -3880091.695 9  -3018407.46747  20706446.156    20706453.8984
  20321102.179   -14758298.508 9 -11476307.56647  20321101.824    20321107.9504
  22457581.332   -17689497.860 8 -13248789.66446  22457580.970    22457591.0904
  20633742.608    -8426858.778 9  -6557143.42347  20633742.038    20633749.5324
  23304222.519    -1208019.018 7   -926278.65544  23304222.594    23304233.4084
  23668659.544      506550.052 7    399360.82045  23668658.638    23668670.5654
  22297445.258    10133745.379 8   7896303.75446  22297445.129    22297455.4514
  22499930.464    -2186387.875 8  -1675441.23846  22499930.722    22499939.9234
 01  5 22 21 23  0.0000000  0  9 15 17 18 21 23 03 22 06 26
  20491039.387   -10120644.033 9  -7873324.96747  20491038.789    20491046.5454
  20708269.915    -3870510.146 9  -3010941.34047  20708269.454    20708277.2474
  20319099.219   -14768823.805 9 -11484509.07347  20319098.900    20319105.0444
  22445816.488   -17751323.067 8 -13296965.06046  22445816.065    22445826.0804
  20636731.051    -8411154.292 9  -6544906.15247  20636730.489    20636737.9984
  23286978.411    -1298636.203 7   -996889.34945  23286978.461    23286989.4214
  23678050.194      555897.564 7    437813.33845  23678049.376    23678061.4594
  22315168.569    10226880.820 8   7968876.68146  22315168.331    22315178.6054
  22511031.786    -2128050.950 8  -1629983.92746  22511032.047    22511041.0714
 01  5 22 21 23 30.0000000  0  9 15 17 18 21 23 03 22 06 26
  20488007.447   -10136577.221 9  -7885740.42447  20488006.848    20488014.5064
  20710136.834    -3860699.095 9  -3003296.37147  20710136.371    20710144.2494
  20317179.038   -14778914.394 9 -11492371.84747  20317178.680    20317184.8114
  22434102.618   -17812879.398 8 -13344930.94346  22434102.204    22434112.2134
  20639786.458    -8395098.150 9  -6532394.87147  20639785.884    20639793.3774
  23269783.033    -1388998.400 7  -1067301.36045  23269783.164    23269793.8614
  23687507.869      605597.189 7    476540.19845  23687507.100    23687518.9864
  22332950.051    10320323.053 8   8041688.66446  22332949.870    22332960.0294
  22522236.642    -2069169.675 8  -1584102.45046  22522236.850    22522245.8024
 01  5 22 21 24  0.0000000  0  9 15 17 18 21 23 03 22 06 26
  20485021.114   -10152270.866 9  -7897969.22647  20485020.485    20485028.1134
  20712047.672    -3850657.768 9  -2995471.97147  20712047.218    20712054.9814
  20315341.452   -14788570.650 9 -11499896.17947  20315341.132    20315347.2374
  22422439.946   -17874166.661 8 -13392687.15446  22422439.528    22422449.5364
  20642908.483    -8378691.574 9  -6519610.51847  20642907.922    20642915.3924
  23252636.850    -1479102.785 7  -1137512.50145  23252636.943    23252647.2004
  23697031.843      655645.991 7    515539.17245  23697031.126    23697042.9844
  22350789.512    10414070.377 8   8114738.38146  22350789.440    22350799.4594
  22533544.677    -2009745.680 8  -1537798.09746  22533544.821    22533553.8224
 01  5 22 21 24 30.0000000  0  9 15 17 18 21 23 03 22 06 26
  20482080.464   -10167723.510 9  -7910010.23047  20482079.851    20482087.5664
  20714002.622    -3840384.638 9  -2987466.95347  20714002.135    20714009.7404
  20313586.619   -14797792.456 9 -11507081.97847  20313586.277    20313592.4144
  22410828.645   -17935183.525 8 -13440232.67346  22410828.237    22410838.2864
  20646097.091    -8361935.253 9  -6506553.63847  20646096.535    20646104.0084
  23235540.652    -1568945.905 7  -1207520.06545  23235540.660    23235550.4384
  23706622.032      706042.261 7    554808.87145  23706621.348    23706633.0624
  22368687.069    10508121.636 8   8188024.92946  22368686.910    22368696.9074
  22544955.705    -1949780.355 8  -1491071.92346  22544955.921    22544964.8884
 01  5 22 21 25  0.0000000  0  9 15 17 18 21 23 03 22 06 26
  20479185.516   -10182936.345 9  -7921864.38047  20479184.965    20479192.6964
  20716001.372    -3829881.033 9  -2979282.34147  20716000.891    20716008.5274
  20311913.897   -14806582.383 9 -11513931.25147  20311913.585    20311919.7134
  22399268.634   -17995931.630 8 -13487568.76346  22399268.219    22399278.2504
  20649351.641    -8344832.429 9  -6493226.76047  20649351.092    20649358.5874
  23218493.971    -1658526.917 7  -1277323.34745  23218493.722    23218503.4224
  23716277.416      756782.102 7    594346.29345  23716276.752    23716288.4454
  22386641.824    10602472.914 8   8261545.25146  22386641.550    22386651.6794
  22556469.270    -1889277.329 8  -1443926.74246  22556469.371    22556478.2244
 01  5 22 21 25 30.0000000  0  9 15 17 18 21 23 03 22 06 26
  20476336.780   -10197907.069 9  -7933529.87147  20476336.157    20476343.8354
  20718044.364    -3819144.661 9  -2970916.34247  20718043.917    20718051.7184
  20310323.610   -14814939.657 9 -11520443.38647  20310323.266    20310329.4004
  22387760.122   -18056409.207 8 -13534694.04746  22387759.657    22387769.6114
  20652672.234    -8327382.952 9  -6479629.76247  20652671.693    20652679.1204
  23201497.921    -1747841.789 7  -1346919.27645  23201497.717    23201507.2724
  23725997.936      807864.821 7    634150.87745  23725997.244    23726009.2944
  22404653.277    10697123.720 8   8335298.98146  22404653.131    22404663.4374
  22568084.862    -1828237.171 8  -1396363.02746  22568084.940    22568093.8314
 01  5 22 21 26  0.0000000  0  9 15 17 18 21 23 03 22 06 26
  20473534.038   -10212635.496 9  -7945006.55647  20473533.388    20473541.0294
  20720131.739    -3808175.397 9  -2962368.87447  20720131.321    20720139.1954
  20308815.268   -14822865.643 9 -11526619.46347  20308814.940    20308821.0864
  22376303.009   -18116616.416 8 -13581608.66046  22376302.478    22376312.4164
  20656058.407    -8309588.781 9  -6465764.16847  20656057.839    20656065.1854
  23184552.952    -1836888.243 7  -1416306.03245  23184552.788    23184562.2924
  23735783.467      859287.277 7    674220.21545  23735782.799    23735794.6994
  22422721.367    10792071.645 8   8409284.21546  22422721.243    22422731.6904
  22579802.145    -1766662.462 8  -1348382.78246  22579802.208    22579811.2234
 01  5 22 21 26 30.0000000  0  9 15 17 18 21 23 03 22 06 26
  20470777.535   -10227120.917 9  -7956293.88047  20470776.896    20470784.5024
  20722263.584    -3796972.683 9  -2953639.49947  20722263.136    20722270.9694
  20307389.004   -14830361.072 9 -11532460.03047  20307388.667    20307394.7524
  22364897.324   -18176552.670 8 -13628312.14246  22364896.854    22364906.8304
  20659509.788    -8291451.414 9  -6451631.14847  20659509.200    20659516.6104
  23167659.684    -1925663.773 8  -1485481.72145  23167659.572    23167668.6484
  23745633.217      911046.462 7    714551.87445  23745632.420    23745644.4804
  22440845.719    10887314.703 8   8483499.43146  22440845.576    22440855.9694
  22591620.693    -1704555.319 8  -1299987.65346  22591620.746    22591629.8044
 01  5 22 21 27  0.0000000  0  9 15 17 18 21 23 03 22 06 26
  20468067.437   -10241362.796 9  -7967391.43647  20468066.792    20468074.3824
  20724439.902    -3785536.061 9  -2944727.86147  20724439.459    20724447.2234
  20306044.383   -14837426.908 9 -11537965.85947  20306044.048    20306050.1334
  22353543.358   -18236218.227 8 -13674804.67446  22353542.874    22353552.7054
  20663026.161    -8272972.337 9  -6437231.86047  20663025.615    20663032.9994
  23150818.292    -2014166.008 8  -1554444.41845  23150818.003    23150827.0544
  23755546.236      963139.671 7    755143.84345  23755545.509    23755557.3754
  22459025.741    10982850.574 8   8557942.79646  22459025.540    22459035.9004
  22603540.270    -1641918.045 8  -1251179.43446  22603540.304    22603549.3874
 01  5 22 21 27 30.0000000  0  9 15 17 18 21 23 03 22 06 26
  20465403.652   -10255361.080 9  -7978299.18047  20465402.996    20465410.6464
  20726660.791    -3773865.421 9  -2935633.86247  20726660.371    20726668.0984
  20304781.271   -14844064.482 9 -11543137.97947  20304780.973    20304787.0654
  22342240.833   -18295613.861 8 -13721086.88546  22342240.309    22342249.9914
  20666607.252    -8254153.610 9  -6422567.91247  20666606.706    20666614.0864
  23134029.173    -2102392.947 8  -1623192.58445  23134028.866    23134037.9504
  23765522.086     1015564.500 7    795994.22144  23765521.542    23765533.5044
  22477260.923    11078676.703 8   8632612.35146  22477260.756    22477271.1404
  22615560.353    -1578753.123 8  -1201960.06746  22615560.363    22615569.4944
 01  5 22 21 28  0.0000000  0  9 15 17 18 21 23 03 22 06 26
  20462786.339   -10269114.777 9  -7989016.32647  20462785.698    20462793.4174
  20728926.430    -3761959.618 9  -2926356.61247  20728925.983    20728933.7924
  20303599.624   -14850273.977 9 -11547976.52047  20303599.321    20303605.4694
  22330989.703   -18354738.756 8 -13767158.11446  22330989.208    22330998.9034
  20670252.814    -8234996.185 9  -6407640.04747  20670252.272    20670259.6164
  23117292.892    -2190341.414 8  -1691723.76845  23117292.592    23117301.8734
  23775560.979     1068318.792 7    837101.34145  23775560.322    23775572.6004
  22495551.173    11174791.518 8   8707506.84846  22495550.924    22495561.3794
  22627680.230    -1515062.326 8  -1152330.93546  22627680.263    22627689.6044
 01  5 22 21 28 30.0000000  0  9 15 17 18 21 23 03 22 06 26
  20460215.717   -10282623.151 9  -7999542.32647  20460215.118    20460222.8494
  20731236.804    -3749818.096 9  -2916895.69747  20731236.394    20731244.2424
  20302499.224   -14856056.512 9 -11552482.37647  20302498.923    20302505.1354
  22319790.055   -18413592.439 8 -13813018.03546  22319789.612    22319799.3654
  20673962.523    -8215501.617 9  -6392449.47447  20673961.974    20673969.2884
  23100610.234    -2278008.928 8  -1760036.02545  23100610.030    23100619.4664
  23785662.125     1121399.576 7    878462.86145  23785661.469    23785673.9214
  22513895.850    11271192.704 8   8782624.48546  22513895.624    22513906.0224
  22639899.853    -1450847.902 8  -1102293.77946  22639899.963    22639909.2614
 01  5 22 21 29  0.0000000  0  9 15 17 18 21 23 03 22 06 26
  20457691.988   -10295885.565 9  -8009876.66647  20457691.385    20457699.0864
  20733592.297    -3737440.254 9  -2907250.63547  20733591.873    20733599.7194
  20301479.932   -14861413.148 9 -11556656.36047  20301479.618    20301485.8024
  22308642.021   -18472174.760 8 -13858666.50246  22308641.639    22308651.4514
  20677736.010    -8195671.544 9  -6376997.46747  20677735.462    20677742.8174
  23083981.442    -2365393.008 7  -1828127.42645  23083981.173    23083990.6154
  23795824.831     1174803.888 7    920076.47345  23795824.233    23795836.3264
  22532294.575    11367878.340 8   8857963.77146  22532294.367    22532304.7844
  22652218.933    -1386112.026 8  -1051850.29646  22652218.924    22652228.1254
 01  5 22 21 29 30.0000000  0  9 15 17 18 21 23 03 22 06 26
  20455215.104   -10308901.351 9  -8020018.82247  20455214.490    20455222.2194
  20735992.817    -3724825.295 9  -2897420.81147  20735992.391    20736000.3054
  20300541.515   -14866344.379 9 -11560498.86847  20300541.188    20300547.3814
  22297545.738   -18530485.596 8 -13904103.43046  22297545.381    22297555.2324
  20681573.043    -8175507.132 9  -6361284.93447  20681572.525    20681579.9274
  23067407.102    -2452490.752 7  -1895995.68545  23067406.917    23067416.3784
  23806048.575     1228529.718 7    961940.61545  23806047.896    23806060.1104
  22550747.242    11464846.394 8   8933523.11546  22550746.933    22550757.3114
  22664636.734    -1320856.770 8  -1001002.10546  22664636.749    22664645.7744
 01  5 22 21 30  0.0000000  0  9 15 17 18 21 23 03 22 06 26
  20452785.175   -10321670.331 9  -8029968.66547  20452784.622    20452792.3384
  20738438.485    -3711973.258 9  -2887406.24747  20738438.068    20738445.9964
  20299683.773   -14870851.580 9 -11564010.95647  20299683.452    20299689.6574
  22286501.116   -18588525.310 8 -13949329.08046  22286500.757    22286510.5634
  20685473.451    -8155010.489 9  -6345313.51047  20685472.925    20685480.2734
  23050887.535    -2539300.473 8  -1963639.53045  23050887.353    23050896.8334
  23816333.015     1282574.296 7   1004053.15745  23816332.366    23816344.3124
  22569253.075    11562094.315 8   9009300.53246  22569252.742    22569263.1624
  22677152.864    -1255084.802 8   -949751.26346  22677152.863    22677161.6934
 01  5 22 21 30 30.0000000  0  9 15 17 18 21 23 03 22 06 26
  20450402.459   -10334192.102 9  -8039725.89047  20450401.841    20450409.5434
  20740929.421    -3698883.563 9  -2877206.49847  20740928.993    20740936.8214
  20298906.482   -14874935.853 9 -11567193.49247  20298906.190    20298912.3634
  22275508.146   -18646293.616 8 -13994343.25446  22275507.777    22275517.4574
  20689436.730    -8134183.344 9  -6329084.56747  20689436.201    20689443.5814
  23034423.703    -2625819.542 8  -2031056.89845  23034423.381    23034432.8934
  23826677.535     1336934.722 7   1046411.77045  23826676.855    23826689.1164
  22587811.633    11659619.865 8   9085294.29146  22587811.304    22587821.8594
  22689766.737    -1188798.685 8   -898099.80146  22689766.682    22689775.5194
 01  5 22 21 31  0.0000000  0  9 15 17 18 21 23 03 22 06 26
  20448066.993   -10346465.059 9  -8049289.22647  20448066.368    20448074.0964
  20743465.869    -3685554.854 9  -2866820.49847  20743465.388    20743473.1894
  20298209.763   -14878597.333 9 -11570046.57847  20298209.442    20298215.5594
  22264566.834   -18703790.182 8 -14039145.67346  22264566.461    22264576.0624
  20693462.764    -8113026.378 9  -6312598.62047  20693462.244    20693469.6684
  23018015.624    -2712044.652 8  -2098245.18845  23018015.250    23018024.8394
  23837081.903     1391608.558 7   1089014.63045  23837081.261    23837093.3154
  22606422.747    11757421.719 8   9161503.34646  22606422.499    22606433.1494
  22702478.141    -1121999.809 8   -846048.77746  22702478.111    22702487.0264
 01  5 22 21 31 30.0000000  0  9 15 17 18 21 23 03 22 06 26
  20445778.985   -10358488.716 9  -8058658.30147  20445778.372    20445786.0314
  20746047.735    -3671986.893 9  -2856248.07347  20746047.290    20746055.0754
  20297593.183   -14881837.354 9 -11572571.26347  20297592.869    20297598.9474
  22253677.329   -18761014.856 8 -14083736.23046  22253676.910    22253686.4754
  20697551.229    -8091541.416 9  -6295857.08547  20697550.704    20697558.1284
  23001663.688    -2797973.705 8  -2165202.79745  23001663.460    23001672.9154
  23847545.251     1446592.866 8   1131859.40445  23847544.628    23847556.7434
  22625086.171    11855497.470 8   9237925.81546  22625085.898    22625096.5424
  22715286.624    -1054690.793 8   -793600.25046  22715286.614    22715295.4854
 01  5 22 21 32  0.0000000  0  9 15 17 18 21 23 03 22 06 26
  20443538.426   -10370262.951 9  -8067833.02847  20443537.783    20443545.3994
  20748675.269    -3658179.108 9  -2845488.78047  20748674.811    20748682.5274
  20297056.680   -14884656.952 9 -11574768.34147  20297056.360    20297062.3374
  22242839.494   -18817968.001 8 -14128115.21646  22242839.003    22242848.5184
  20701701.765    -8069730.184 9  -6278861.31847  20701701.220    20701708.6214
  22985368.581    -2883604.339 8  -2231927.86845  22985368.411    22985377.8564
  23858067.146     1501885.373 7   1174944.35045  23858066.535    23858078.7314
  22643801.195    11953844.789 8   9314559.90046  22643800.942    22643811.6584
  22728191.551     -986874.103 8   -740756.14046  22728191.610    22728200.6084
 01  5 22 21 32 30.0000000  0  9 15 17 18 21 23 03 22 06 26
  20441345.392   -10381787.057 9  -8076812.83747  20441344.782    20441352.4364
  20751348.511    -3644131.069 9  -2834542.26847  20751348.081    20751355.8784
  20296599.885   -14887057.205 9 -11576638.65747  20296599.567    20296605.5364
  22232053.020   -18874649.683 8 -14172282.67546  22232052.670    22232062.2954
  20705914.092    -8047594.421 9  -6261612.66947  20705913.564    20705920.9444
  22969131.033    -2968933.797 8  -2298418.27845  22969130.862    22969140.1734
  23868647.205     1557483.471 8   1218267.39645  23868646.540    23868658.6714
  22662567.291    12052461.387 8   9391403.81746  22662567.131    22662577.9164
  22741192.698     -918552.185 8   -687518.31946  22741192.780    22741201.9034
 01  5 22 21 33  0.0000000  0  9 15 17 18 21 23 03 22 06 26
  20439200.166   -10393060.265 9  -8085597.14647  20439199.576    20439207.1634
  20754067.620    -3629842.225 9  -2823408.11547  20754067.188    20754075.0654
  20296222.744   -14889039.202 9 -11578183.05647  20296222.428    20296228.3844
  22221318.690   -18931059.256 8 -14216238.08546  22221318.261    22221327.8344
  20710187.874    -8025135.659 9  -6244112.33747  20710187.326    20710194.6934
  22952951.058    -3053959.768 8  -2364672.18845  22952950.863    22952960.1894
  23879285.103     1613384.089 8   1261826.14045  23879284.365    23879296.4564
  22681384.226    12151344.866 8   9468455.67346  22681384.094    22681394.8284
  22754289.479     -849727.436 8   -633888.70446  22754289.643    22754298.8794
 01  5 22 21 33 30.0000000  0  9 15 17 18 21 23 03 22 06 26
  20437102.972   -10404081.489 9  -8094185.09947  20437102.358    20437109.8904
  20756832.815    -3615311.456 9  -2812085.45347  20756832.354    20756840.2164
  20295925.109   -14890603.347 9 -11579401.85547  20295924.774    20295930.7074
  22210636.102   -18987196.634 8 -14259981.39846  22210635.588    22210645.1284
  20714522.904    -8002354.930 9  -6226361.11747  20714522.385    20714529.7044
  22936829.438    -3138679.371 8  -2430687.37845  22936829.194    22936838.4444
  23889979.759     1669584.596 8   1305618.57045  23889978.891    23889991.1204
  22700251.654    12250493.594 8   9545714.22346  22700251.573    22700262.2324
  22767481.590     -780401.779 8   -579868.75746  22767481.810    22767491.2574
 01  5 22 21 34  0.0000000  0  9 15 17 18 21 23 03 22 06 26
  20435053.665   -10414850.942 9  -8102576.87147  20435053.007    20435060.5404
  20759643.893    -3600538.999 9  -2800574.45947  20759643.418    20759651.2974
  20295706.545   -14891751.587 9 -11580296.57947  20295706.225    20295712.1414
  22200004.965   -19043062.556 8 -14303513.18246  22200004.546    22200014.0254
  20718918.741    -7979254.595 9  -6208360.85647  20718918.231    20718925.5264
  22920766.349    -3223090.880 8  -2496462.50545  22920766.154    22920775.4404
  23900731.109     1726081.781 7   1349642.20945  23900730.198    23900742.4994
  22719169.141    12349904.678 8   9623177.20646  22719168.996    22719179.6264
  22780768.582     -710578.329 8   -525460.93446  22780768.772    22780778.3824
 01  5 22 21 34 30.0000000  0  9 15 17 18 21 23 03 22 06 26
  20433052.390   -10425367.555 9  -8110771.62547  20433051.763    20433059.3174
  20762501.218    -3585523.717 9  -2788874.26347  20762500.790    20762508.5384
  20295567.118   -14892484.346 9 -11580867.54947  20295566.812    20295572.7444
  22189425.840   -19098656.438 8 -14346832.99646  22189425.331    22189434.7424
  20723375.201    -7955835.767 9  -6190112.42347  20723374.656    20723382.0414
  22904762.619    -3307191.102 8  -2561995.07945  22904762.333    22904771.4484
  23911538.390     1782873.880 7   1393895.63745  23911537.457    23911549.7814
  22738136.144    12449576.208 8   9700843.13446  22738135.946    22738146.8054
  22794149.906     -640259.044 8   -470666.73446  22794150.148    22794159.7824
 01  5 22 21 35  0.0000000  0  9 15 17 18 21 23 03 22 06 26
  20431099.188   -10435631.729 9  -8118769.66947  20431098.555    20431106.1304
  20765404.762    -3570265.907 9  -2776985.07747  20765404.280    20765411.9834
  20295506.366   -14892803.680 9 -11581116.36447  20295506.024    20295512.0164
  22178898.060   -19153979.263 8 -14389941.59346  22178897.619    22178907.1274
  20727891.753    -7932100.956 9  -6171617.76047  20727891.240    20727898.6774
  22888818.243    -3390978.782 8  -2627284.09245  22888817.932    22888827.0714
  23922400.967     1839957.175 7   1438375.98845  23922400.207    23922412.3404
  22757152.140    12549505.140 8   9778709.63946  22757151.931    22757163.0864
  22807625.124     -569447.206 8   -415488.73846  22807625.379    22807635.0294
 01  5 22 21 35 30.0000000  0  9 15 17 18 21 23 03 22 06 26
  20429194.279   -10445641.753 9  -8126569.68447  20429193.654    20429201.2824
  20768354.546    -3554764.046 9  -2764905.72347  20768354.118    20768361.9144
  20295524.193   -14892709.479 9 -11581042.95347  20295523.891    20295529.9254
  22168422.194   -19209030.191 8 -14432838.33147  22168421.701    22168431.1984
  20732468.333    -7908050.765 9  -6152877.34947  20732467.811    20732475.2834
  22872934.047    -3474450.339 8  -2692326.79145  22872933.678    22872942.8664
  23933318.458     1897329.444 7   1483081.49345  23933317.769    23933330.0994
  22776216.935    12649690.199 8   9856775.71146  22776216.713    22776228.1484
  22821193.965     -498144.302 8   -359928.08446  22821194.026    22821203.6184
 01  5 22 21 36  0.0000000  0  9 15 17 18 21 23 03 22 06 26
  20427337.935   -10455396.967 9  -8134171.15047  20427337.338    20427344.9294
  20771351.061    -3539017.430 9  -2752635.65347  20771350.653    20771358.3964
  20295620.623   -14892202.823 9 -11580648.14047  20295620.324    20295626.3534
  22157998.065   -19263809.128 8 -14475523.12847  22157997.617    22158007.0254
  20737104.626    -7883686.751 9  -6133892.40447  20737104.112    20737111.5874
  22857110.278    -3557603.127 8  -2757121.09445  22857109.982    22857119.3664
  23944290.733     1954987.836 7   1528009.95145  23944290.042    23944302.3054
  22795329.974    12750129.140 8   9935039.59746  22795329.811    22795341.3644
  22834855.528     -426352.754 8   -303986.68146  22834855.579    22834865.0544
 01  5 22 21 36 30.0000000  0  9 15 17 18 21 23 03 22 06 26
  20425530.343   -10464896.155 9  -8141573.10747  20425529.720    20425537.2904
  20774394.353    -3523025.281 9  -2740174.25347  20774393.896    20774401.6194
  20295795.336   -14891284.505 9 -11579932.55647  20295795.034    20295801.0534
  22147625.767   -19318315.718 8 -14517995.70047  22147625.308    22147634.7164
  20741800.453    -7859010.237 9  -6114663.95247  20741799.921    20741807.3914
  22841347.870    -3640434.018 8  -2821664.57045  22841347.764    22841357.0944
  23955316.939     2012930.468 7   1573159.89845  23955316.190    23955328.7364
  22814490.897    12850820.029 8  10013499.81946  22814490.846    22814502.3044
  22848609.691     -354074.845 8   -247666.27146  22848609.617    22848619.0074
 01  5 22 21 37  0.0000000  0  9 15 17 18 21 23 03 22 06 26
  20423771.462   -10474139.263 9  -8148775.52647  20423770.818    20423778.3874
  20777484.384    -3506787.492 9  -2727521.44747  20777483.937    20777491.6384
  20296048.055   -14889956.493 9 -11578897.73447  20296047.758    20296053.7264
  22137305.058   -19372550.702 8 -14560256.64647  22137304.623    22137314.0264
  20746555.280    -7834023.378 9  -6095193.68447  20746554.709    20746562.1834
  22825647.241    -3722941.433 8  -2885955.99345  22825647.093    22825656.3544
  23966396.812     2071154.049 7   1618528.78645  23966396.038    23966408.5124
  22833699.544    12951760.170 8  10092154.25046  22833699.409    22833710.6984
  22862455.575     -281313.546 8   -190969.23345  22862455.581    22862465.0204
 01  5 22 21 37 30.0000000  0  9 15 17 18 21 23 03 22 06 26
  20422061.289   -10483126.188 9  -8155778.32547  20422060.652    20422068.1754
  20780621.198    -3490303.860 9  -2714677.07547  20780620.696    20780628.3544
  20296378.635   -14888219.625 9 -11577544.31447  20296378.310    20296384.2464
  22127036.096   -19426514.023 8 -14602305.89447  22127035.602    22127045.0224
  20751368.831    -7808728.003 9  -6075482.99647  20751368.296    20751375.6774
  22810008.517    -3805123.109 8  -2949993.59345  22810008.410    22810017.5844
  23977529.429     2129655.422 7   1664114.10745  23977528.672    23977541.0024
  22852955.133    13052947.183 8  10171001.04346  22852954.889    22852966.2084
  22876392.934     -208071.592 8   -133897.63345  22876392.983    22876402.4684
 01  5 22 21 38  0.0000000  0  9 15 17 18 21 23 03 22 06 26
  20420400.184   -10491855.387 9  -8162580.30947  20420399.532    20420407.0514
  20783804.921    -3473572.779 9  -2701639.88547  20783804.432    20783812.1764
  20296786.792   -14886074.479 9 -11575872.77347  20296786.477    20296792.4144
  22116818.996   -19480205.005 9 -14644142.93747  22116818.515    22116827.9074
  20756241.008    -7783124.875 9  -6055532.51147  20756240.434    20756247.8094
  22794432.445    -3886975.698 8  -3013774.75145  22794432.323    22794441.4784
  23988714.290     2188432.180 7   1709914.04245  23988713.560    23988725.9784
  22872257.028    13154379.581 8  10250039.04646  22872256.846    22872268.4024
  22890421.665     -134350.685 8    -76452.83745  22890421.670    22890431.3014
 01  5 22 21 38 30.0000000  0  9 15 17 18 21 23 03 22 06 26
  20418788.152   -10500326.378 9  -8169181.08247  20418787.518    20418795.1314
  20787035.797    -3456594.070 9  -2688409.74447  20787035.355    20787043.1084
  20297272.414   -14883522.579 9 -11573884.27047  20297272.111    20297278.0224
  22106653.643   -19533624.128 8 -14685768.15747  22106653.123    22106662.4974
  20761171.232    -7757216.026 9  -6035343.80547  20761170.671    20761178.1444
  22778919.661    -3968497.254 8  -3077297.98145  22778919.382    22778928.3764
  23999951.019     2247481.299 7   1755926.17545  23999950.280    23999962.8154
  22891605.150    13256054.520 8  10329266.05846  22891605.071    22891616.7604
  22904540.945      -60153.957 8    -18637.28646  22904540.976    22904550.6844
 01  5 22 21 39  0.0000000  0  9 15 17 18 21 23 03 22 06 26
  20417225.237   -10508539.262 9  -8175580.72847  20417224.620    20417232.2904
  20790313.876    -3439367.661 9  -2674986.58147  20790313.435    20790321.2194
  20297835.146   -14880565.303 9 -11571579.88747  20297834.841    20297840.7754
  22096539.936   -19586771.741 9 -14727181.78347  22096539.434    22096548.7494
  20766159.199    -7731003.617 9  -6014918.55347  20766158.698    20766166.2214
  22763469.826    -4049685.607 8  -3140561.55345  22763469.629    22763478.6094
  24011239.364     2306800.143 7   1802148.48745  24011238.695    24011250.9774
  22910999.153    13357969.503 8  10408680.09246  22910999.005    22911010.7524
  22918750.217       14515.870 8     39546.93845  22918750.259    22918759.8124
 01  5 22 21 39 30.0000000  0  9 15 17 18 21 23 03 22 06 26
  20415711.841   -10516492.484 9  -8181778.04647  20415711.217    20415718.8344
  20793639.307    -3421892.118 9  -2661369.29247  20793638.874    20793646.6874
  20298474.903   -14877203.230 9 -11568960.08247  20298474.559    20298480.5514
  22086477.941   -19639647.840 8 -14768383.85147  22086477.390    22086486.7664
  20771204.900    -7704488.457 9  -5994257.38347  20771204.404    20771211.8444
  22748084.077    -4130537.509 8  -3203562.96046  22748083.920    22748092.9464
  24022578.225     2366386.574 7   1848579.32145  24022577.495    24022589.9944
  22930438.513    13460122.912 8  10488279.91146  22930438.297    22930450.1064
  22933049.127       89656.992 8     98098.40245  22933049.160    22933058.6364
 01  5 22 21 40  0.0000000  0  9 15 17 18 21 23 03 22 06 26
  20414247.786   -10524185.946 9  -8187772.95447  20414247.151    20414254.7784
  20797012.173    -3404167.408 9  -2647557.84647  20797011.788    20797019.6654
  20299191.405   -14873437.857 9 -11566026.02347  20299191.072    20299197.1264
  22076467.516   -19692252.269 8 -14809374.23647  22076467.030    22076476.3814
  20776307.762    -7677672.685 9  -5973361.99047  20776307.252    20776314.7294
  22732762.801    -4211050.878 8  -3266300.57846  22732762.736    22732771.7554
  24033967.675     2426237.019 7   1895215.89645  24033966.600    24033979.1514
  22949922.688    13562511.829 8  10568063.24346  22949922.479    22949934.3234
  22947437.134      165266.329 8    157014.70445  22947437.180    22947446.5514
 01  5 22 21 40 30.0000000  0  9 15 17 18 21 23 03 22 06 26
  20412833.257   -10531619.382 9  -8193565.23447  20412832.640    20412840.3004
  20800432.685    -3386193.276 9  -2633552.04447  20800432.240    20800440.1344
  20299984.423   -14869270.732 9 -11562778.89747  20299984.054    20299990.0704
  22066508.783   -19744585.845 8 -14850153.55547  22066508.274    22066517.5294
  20781467.519    -7650558.319 9  -5952233.91447  20781467.000    20781474.4734
  22717506.378    -4291223.651 8  -3328772.79446  22717506.278    22717515.4164
  24045406.399     2486347.933 7   1942055.43845  24045405.393    24045418.2974
  22969451.133    13665133.700 8  10648028.08545  22969450.890    22969462.9224
  22961913.649      241340.745 8    216293.40545  22961913.728    22961923.0484
 01  5 22 21 41  0.0000000  0  9 15 17 18 21 23 03 22 06 26
  20411468.709   -10538790.211 9  -8199152.89247  20411468.075    20411475.7404
  20803901.028    -3367967.312 9  -2619350.01047  20803900.569    20803908.4494
  20300853.892   -14864701.307 9 -11559218.29947  20300853.552    20300859.6054
  22056601.748   -19796646.707 8 -14890720.38747  22056601.303    22056610.6104
  20786684.130    -7623145.086 9  -5930872.95547  20786683.588    20786691.0144
  22702315.551    -4371051.673 8  -3390976.38046  22702315.404    22702324.5884
  24056894.461     2546718.763 7   1989097.43744  24056893.658    24056906.9564
  22989023.797    13767987.973 8  10728174.02545  22989023.610    22989035.5964
  22976478.534      317879.628 8    275934.02845  22976478.604    22976487.9284
 01  5 22 21 41 30.0000000  0  9 15 17 18 21 23 03 22 06 26
  20410153.889   -10545699.527 9  -8204536.77947  20410153.265    20410160.9054
  20807416.938    -3349490.765 9  -2604952.72447  20807416.515    20807424.3594
  20301799.461   -14859732.534 9 -11555346.52347  20301799.097    20301805.1634
  22046746.384   -19848436.698 8 -14931076.14847  22046745.936    22046755.2524
  20791956.903    -7595436.340 9  -5909281.72947  20791956.338    20791963.7494
  22687190.444    -4450534.154 8  -3452910.72446  22687190.365    22687199.5124
  24068431.573     2607345.180 7   2036338.69844  24068430.643    24068443.5404
  23008639.815    13871070.458 8  10808497.79445  23008639.760    23008651.7564
  22991131.090      394878.543 8    335933.09345  22991131.150    22991140.6034
 01  5 22 21 42  0.0000000  0  9 15 17 18 21 23 03 22 06 26
  20408889.037   -10552346.518 9  -8209716.24847  20408888.411    20408896.0504
  20810980.745    -3330762.806 9  -2590359.52747  20810980.338    20810988.1514
  20302820.697   -14854365.294 9 -11551164.24647  20302820.390    20302826.5204
  22036942.527   -19899955.804 8 -14971220.82547  22036942.123    22036951.4094
  20797285.602    -7567433.572 9  -5887461.39447  20797285.089    20797292.5374
  22672131.610    -4529668.644 8  -3514573.91146  22672131.470    22672140.6514
  24080016.769     2668224.459 7   2083776.92544  24080015.691    24080028.5264
  23028298.967    13974379.211 8  10888997.88245  23028299.010    23028310.9084
  23005870.636      472335.040 8    396288.72045  23005870.757    23005880.1734
 01  5 22 21 42 30.0000000  0  9 15 17 18 21 23 03 22 06 26
  20407674.272   -10558730.188 9  -8214690.53147  20407673.661    20407681.3234
  20814592.478    -3311782.641 9  -2575569.80147  20814592.108    20814599.9764
  20303917.644   -14848600.763 9 -11546672.39847  20303917.370    20303923.4654
  22027190.228   -19951204.255 8 -15011154.60347  22027189.814    22027199.1064
  20802670.047    -7539138.274 9  -5865413.11247  20802669.492    20802676.9754
  22657139.568    -4608452.607 8  -3575963.96246  22657139.309    22657148.4644
  24091649.190     2729353.260 7   2131409.62644  24091648.190    24091660.9574
  23048000.789    14077911.953 8  10969672.47645  23048000.761    23048012.8244
  23020696.737      550246.538 8    456998.90545  23020696.873    23020706.2264
 01  5 22 21 43  0.0000000  0  9 15 17 18 21 23 03 22 06 26
  20406509.971   -10564848.660 9  -8219458.17147  20406509.348    20406517.0204
  20818252.671    -3292548.462 9  -2560582.15247  20818252.274    20818260.2444
  20305090.274   -14842438.764 9 -11541870.84047  20305089.959    20305096.0864
  22017489.572   -20002180.788 8 -15050876.50247  22017489.190    22017498.5084
  20808110.059    -7510550.793 9  -5843137.16147  20808109.545    20808116.9994
  22642214.801    -4686882.167 8  -3637077.84846  22642214.561    22642223.6764
  24103328.913     2790730.291 7   2179235.75844  24103327.881    24103341.1574
  23067744.791    14181667.632 8  11050520.80945  23067744.833    23067757.0544
  23035609.158      628611.750 8    518062.63845  23035609.240    23035618.6544
 01  5 22 21 43 30.0000000  0  9 15 17 18 21 23 03 22 06 26
  20405395.996   -10570702.471 9  -8224019.57347  20405395.379    20405403.0264
  20821961.044    -3273060.782 9  -2545396.96747  20821960.667    20821968.6104
  20306338.012   -14835881.706 9 -11536761.44047  20306337.705    20306343.7964
  22007840.597   -20052886.328 8 -15090387.23047  22007840.170    22007849.4594
  20813605.221    -7481673.712 9  -5820635.54547  20813604.701    20813612.1684
  22627357.777    -4764955.907 8  -3697914.47046  22627357.596    22627366.6274
  24115055.532     2852352.100 7   2227252.56844  24115054.535    24115067.7904
  23087530.860    14285642.993 8  11131540.30045  23087530.914    23087543.2264
  23050607.109      707426.907 8    579476.97445  23050607.286    23050616.7994
 01  5 22 21 44  0.0000000  0  9 15 17 18 21 23 03 22 06 26
  20404332.524   -10576290.696 9  -8228374.03347  20404331.935    20404339.5504
  20825717.908    -3253318.689 9  -2530013.54447  20825717.496    20825725.3684
  20307660.814   -14828930.382 9 -11531344.81447  20307660.519    20307666.6144
  21998243.118   -20103320.954 8 -15129686.86147  21998242.723    21998252.0144
  20819155.182    -7452508.702 9  -5797909.57147  20819154.639    20819162.0914
  22612569.084    -4842671.030 8  -3758471.64346  22612568.885    22612577.8224
  24126827.410     2914216.033 7   2275458.10944  24126826.726    24126840.2504
  23107358.563    14389835.834 8  11212729.27145  23107358.468    23107370.7144
  23065690.431      786689.534 8    641239.99245  23065690.644    23065699.8674
 01  5 22 21 44 30.0000000  0  9 15 17 18 21 23 03 22 06 26
  20403319.743   -10581612.859 9  -8232521.16347  20403319.146    20403326.7874
  20829523.192    -3233321.841 9  -2514431.60147  20829522.782    20829530.6944
  20309058.285   -14821586.336 9 -11525622.17447  20309058.012    20309064.1654
  21988697.127   -20153485.291 9 -15168775.87947  21988696.722    21988705.9914
  20824759.511    -7423057.680 9  -5774960.72747  20824758.959    20824766.4104
  22597848.970    -4920025.525 8  -3818747.81246  22597848.775    22597857.6264
  24138645.003     2976318.777 7   2323849.70444  24138644.322    24138658.4814
  23127227.079    14494243.621 8  11294085.70845  23127226.884    23127239.1224
  23080858.369      866396.919 8    703349.55645  23080858.514    23080867.7664
 01  5 22 21 45  0.0000000  0 10 15 17 18 14 21 23 03 22 06 26
  20402356.918   -10586672.019 9  -8236463.36147  20402356.353    20402364.1184
  20833376.336    -3213073.459 9  -2498653.66547  20833375.914    20833383.8474
  20310529.544   -14813854.795 9 -11519597.59147  20310529.293    20310535.4534
  24647891.251    -3281422.673 7  -1899644.83144  24647891.080    24647911.7274
  21979201.954   -20203382.874 9 -15207657.04247  21979201.555    21979210.6684
  20830417.255    -7393325.861 9  -5751793.09247  20830416.732    20830424.2214
  22583197.341    -4997020.786 8  -3878744.05346  22583197.088    22583205.9344
  24150507.373     3038653.337 6   2372421.93344  24150506.892    24150520.8734
  23147135.501    14598860.211 8  11375604.85145  23147135.112    23147147.3974
  23096109.678      946542.429 8    765800.51545  23096109.805    23096118.9734
 01  5 22 21 45 30.0000000  0 10 15 17 18 14 21 23 03 22 06 26
  20401444.845   -10591464.905 9  -8240198.07647  20401444.314    20401452.0994
  20837277.896    -3192570.238 9  -2482677.14647  20837277.543    20837285.5754
  20312074.886   -14805734.023 9 -11513269.70847  20312074.583    20312080.7554
  24626179.348    -3395519.845 7  -1988551.22544  24626178.922    24626199.1154
  21969757.850   -20253011.515 8 -15246328.63447  21969757.454    21969766.4914
  20836128.679    -7363312.232 9  -5728405.85947  20836128.179    20836135.6234
  22568614.940    -5073651.831 8  -3938456.48946  22568614.683    22568623.4604
  24162413.128     3101219.911 6   2421175.01644  24162412.281    24162426.9634
  23167083.112    14703685.948 8  11457286.96145  23167082.772    23167095.2794
  23111444.351     1027126.055 8    828592.87245  23111444.520    23111453.5454
 01  5 22 21 46  0.0000000  0 10 15 17 18 14 21 23 03 22 06 26
  20400584.444   -10595986.505 9  -8243721.40447  20400583.870    20400591.6314
  20841229.061    -3171807.205 9  -2466498.18347  20841228.658    20841236.6794
  20313694.836   -14797221.015 9 -11506636.19547  20313694.532    20313700.6984
  24604467.629    -3509616.212 7  -2077456.96444  24604466.902    24604486.9874
  21960365.860   -20302366.381 8 -15284786.90047  21960365.436    21960374.4324
  20841894.227    -7333014.109 9  -5704796.94547  20841893.717    20841901.1914
  22554102.991    -5149911.753 8  -3997879.74046  22554102.800    22554111.7014
  24174364.155     3164020.311 6   2470110.22544  24174363.265    24174377.6644
  23187070.635    14808722.733 8  11539133.53045  23187070.614    23187083.3254
  23126862.706     1108149.533 8    891727.96445  23126862.796    23126871.9474
 01  5 22 21 46 30.0000000  0 10 15 17 18 14 21 23 03 22 06 26
  20399775.252   -10600238.696 9  -8247034.80347  20399774.660    20399782.4254
  20845229.121    -3150786.414 9  -2450118.36347  20845228.728    20845236.7854
  20315388.714   -14788319.531 9 -11499699.97247  20315388.419    20315394.5844
  24582755.940    -3623711.992 7  -2166362.26044  24582755.023    24582774.7824
  21951025.205   -20351451.402 9 -15323034.89947  21951024.812    21951033.7784
  20847713.119    -7302435.679 9  -5680969.60547  20847712.619    20847720.1124
  22539661.814    -5225800.715 8  -4057013.93646  22539661.607    22539670.4704
  24186358.739     3227049.200 7   2519223.41544  24186357.853    24186371.6994
  23207097.599    14913965.782 8  11621140.82545  23207097.761    23207110.5724
  23142363.630     1189607.467 8    955201.58345  23142363.695    23142372.9384
 01  5 22 21 47  0.0000000  0 10 15 17 18 14 21 23 03 22 06 26
  20399017.664   -10604219.889 9  -8250137.03347  20399017.094    20399024.8214
  20849278.638    -3129506.168 9  -2433536.37647  20849278.265    20849286.2514
  20317156.415   -14779030.172 9 -11492461.50947  20317156.125    20317162.1944
  24561044.865    -3737803.458 7  -2255264.16645  24561043.595    24561063.4614
  21941736.266   -20400265.005 9 -15361071.39947  21941735.912    21941744.8264
  20853585.194    -7271577.740 9  -5656924.46547  20853584.694    20853592.1604
  22525291.829    -5301315.152 8  -4115856.28946  22525291.576    22525300.5694
  24198395.789     3290303.965 6                  24198394.998    24198407.3974
  23227163.880    15019413.720 8  11703307.75245  23227163.919    23227176.7954
  23157946.914     1271498.239 8   1019012.49645  23157947.077    23157956.3804
 01  5 22 21 47 30.0000000  0 10 15 17 18 14 21 23 03 22 06 26
  20398311.603   -10607930.311 9  -8253028.27947  20398311.013    20398318.7174
  20853377.585    -3107966.925 9  -2416752.58747  20853377.177    20853385.0834
  20318997.538   -14769354.942 9 -11484922.37647  20318997.231    20319003.3184
  24539334.400    -3851889.234 7  -2344161.67645  24539333.445    24539353.1344
  21932498.776   -20448808.412 9 -15398897.35847  21932498.377    21932507.2564
  20859509.943    -7240442.810 9  -5632663.50347  20859509.422    20859516.9064
  22510993.246    -5376453.890 8  -4174405.90746  22510993.034    22511002.0854
  24210475.232     3353780.674 6                  24210474.466    24210486.9804
  23247268.809    15125063.054 8  11785631.60445  23247268.650    23247281.4784
  23173611.896     1353817.840 8   1083157.56445  23173612.002    23173621.4264
 01  5 22 21 48  0.0000000  0 10 15 17 18 14 21 23 03 22 06 26
  20397657.239   -10611369.107 9  -8255707.86847  20397656.666    20397664.3274
  20857525.689    -3086168.086 9  -2399766.49947  20857525.276    20857533.3214
  20320911.842   -14759295.019 9 -11477083.47447  20320911.566    20320917.6784
  24517625.650    -3965966.567 7  -2433052.59545  24517625.002    24517644.3834
  21923312.408   -20497082.185 9 -15436513.22047  21923312.057    21923320.9414
  20865487.058    -7209032.516 9  -5608187.96547  20865486.564    20865494.0864
  22496766.762    -5451214.429 8  -4232660.81446  22496766.582    22496775.5944
  24222596.463     3417477.118 7   2667608.31054  24222595.546    24222608.1454
  23267411.279    15230911.514 8  11868110.63145  23267411.146    23267424.0044
  23189357.934     1436563.901 8   1147634.93045  23189358.022    23189367.7614
 01  5 22 21 48 30.0000000  0 10 15 17 18 14 21 23 03 22 06 26
  20397054.543   -10614536.334 9  -8258175.84347  20397053.963    20397061.6694
  20861723.202    -3064109.769 9  -2382578.22347  20861722.860    20861730.9444
  20322898.951   -14748852.617 9 -11468946.54047  20322898.670    20322904.7834
  24495918.860    -4080033.785 7  -2521935.64145  24495918.340    24495937.7414
  21914177.395   -20545087.125 9 -15473919.59147  21914177.021    21914185.8324
  20871516.222    -7177349.266 9  -5583499.73047  20871515.740    20871523.2594
  22482612.612    -5525595.106 8  -4290619.74446  22482612.431    22482621.3474
  24234758.964     3481389.924 7                  24234758.155    24234771.4624
  23287590.955    15336956.049 8  11950742.43145  23287590.985    23287603.9204
  23205184.494     1519732.718 8   1212441.70245  23205184.675    23205194.4154
 01  5 22 21 49  0.0000000  0 10 15 17 18 14 21 23 03 22 06 26
  20396503.653   -10617431.295 9  -8260431.65847  20396503.065    20396510.8084
  20865970.464    -3041791.145 9  -2365187.10947  20865970.049    20865978.0824
  20324958.735   -14738028.611 9 -11460512.25347  20324958.444    20324964.5114
  24474215.118    -4194087.961 7  -2610808.52445  24474214.443    24474233.7014
  21905093.595   -20592822.979 9 -15511116.28447  21905093.150    21905101.9224
  20877597.054    -7145394.415 9  -5558599.85747  20877596.531    20877604.0244
  22468531.218    -5599593.155 8  -4348280.50346  22468531.040    22468539.9114
  24246961.545                                    24246960.139    24246974.1584
  23307807.876    15443194.404 8  12033525.25245  23307807.770    23307820.7124
  23221091.083     1603321.805 8   1277575.95245  23221091.273    23221101.0414
 01  5 22 21 49 30.0000000  0 10 15 17 18 14 21 23 03 22 06 26
  20396004.850   -10620052.349 9  -8262474.04947  20396004.280    20396011.9734
  20870267.425    -3019210.707 9  -2347591.98247  20870266.995    20870275.0104
  20327090.992   -14726823.464 9 -11451780.97147  20327090.718    20327096.7874
  24452514.332    -4308125.521 7  -2699668.45445  24452513.648    24452532.8654
  21896060.888   -20640289.246 9 -15548102.91747  21896060.513    21896069.3184
  20883729.350    -7113168.700 9  -5533488.92247  20883728.845    20883736.3524
  22454523.274    -5673205.279 8  -4405640.54446  22454523.067    22454531.9174
  24259203.701                                    24259201.786    24259217.4014
  23328061.140    15549625.054 8  12116457.91045  23328061.069    23328074.0614
  23237077.193     1687329.190 8   1343036.15645  23237077.366    23237087.1944
 01  5 22 21 50  0.0000000  0 10 15 17 18 14 21 23 03 22 06 26
  20395558.239   -10622399.504 9  -8264303.00747  20395557.669    20395565.3254
  20874614.156    -2996368.588 9  -2329792.96147  20874613.726    20874621.7394
  20329295.410   -14715239.243 9 -11442754.30847  20329295.132    20329301.2054
  24430816.797    -4422144.589 7  -2788513.97645  24430816.188    24430835.4424
  21887079.527   -20687486.490 9 -15584879.92747  21887079.141    21887087.9314
  20889912.859    -7080674.432 9  -5508168.73547  20889912.374    20889919.8244
  22440589.037    -5746430.035 8  -4462698.73446  22440588.824    22440597.7074
  24271486.793                                    24271489.219    24271509.5494
  23348350.453    15656244.987 8  12199538.05945  23348350.442    23348363.4434
  23253142.249     1771751.571 8   1408819.72745  23253142.514    23253152.3054
 01  5 22 21 50 30.0000000  0 10 15 17 18 14 21 23 03 22 06 26
  20395163.936   -10624471.968 9  -8265917.92847  20395163.342    20395170.9474
  20879010.796    -2973264.206 9  -2311789.57847  20879010.342    20879018.3624
  20331571.767   -14703277.262 9 -11433433.28447  20331571.456    20331577.5684
  24409123.320    -4536142.561 7  -2877343.08345  24409122.827    24409141.8134
  21878149.163   -20734415.712 9 -15621448.08447  21878148.723    21878157.5314
  20896147.121    -7047913.275 9  -5482640.57947  20896146.619    20896154.0704
  22426728.999    -5819265.128 8  -4519453.29846  22426728.729    22426737.5764
  24283808.516                                    24283810.659    24283816.6674
  23368675.353    15763051.828 8  12282763.85945  23368675.352    23368688.4724
  23269285.752     1856586.029 8   1474924.43345  23269285.998    23269295.7914
 01  5 22 21 51  0.0000000  0 10 15 17 18 14 21 23 03 22 06 26
  20394821.913   -10626269.228 9  -8267318.39347  20394821.299    20394828.9234
  20883457.325    -2949897.037 9  -2293581.41347  20883456.934    20883465.0244
  20333919.606   -14690939.246 9 -11423819.24647  20333919.281    20333925.4464
  24387434.247    -4650117.098 7  -2966153.92945  24387433.842    24387452.5764
  21869269.655   -20781076.843 9 -15657807.34747  21869269.250    21869278.1834
  20902431.730    -7014887.112 9  -5456905.91847  20902431.208    20902438.7514
  22412943.459    -5891708.259 8  -4575902.43746  22412943.182    22412952.0554
  24296168.906                                    24296170.562    24296176.2294
  23389035.280    15870043.099 8  12366133.34245  23389035.307    23389048.4364
  23285507.120     1941829.724 8   1541347.99645  23285507.408    23285517.2134
 01  5 22 21 51 30.0000000  0 10 15 17 18 14 21 23 03 22 06 26
  20394532.421   -10627790.232 9  -8268503.59947  20394531.849    20394539.4834
  20887954.246    -2926265.940 9  -2275167.60047  20887953.850    20887961.9094
  20336338.912   -14678225.456 9 -11413912.40147  20336338.616    20336344.7904
  24365750.165    -4764065.043 7  -3054944.06145  24365749.753    24365768.5074
  21860441.335   -20827469.478 9 -15693957.38947  21860440.981    21860449.8784
  20908766.586    -6981597.015 9  -5430965.59847  20908766.092    20908773.7244
  22399232.963    -5963756.421 8  -4632043.81446  22399232.803    22399241.7054
                      -189.298
  23409430.220    15977216.905 8  12449645.06445  23409430.208    23409443.1694
  23301805.930     2027480.350 8   1608088.65345  23301806.125    23301816.0864
 01  5 22 21 52  0.0000000  0 10 15 17 18 14 21 23 03 22 06 26
  20394295.644   -10629034.837 9  -8269473.43147  20394295.063    20394302.6664
  20892501.441    -2902370.854 9  -2256548.08647  20892500.993    20892508.9834
  20338829.399   -14665137.961 9 -11403714.35647  20338829.072    20338835.1814
  24344071.639    -4877984.315 7  -3143711.85445  24344071.241    24344089.9244
  21851663.968   -20873594.847 9 -15729899.17147  21851663.588    21851672.4214
  20915151.358    -6948045.128 9  -5404821.28847  20915150.852    20915158.4664
  22385598.126    -6035407.880 8  -4687876.05846  22385597.913    22385606.8454
  24321001.701                                    24320998.444    24321076.6944
  23429859.143    16084570.210 8  12533296.66045  23429859.146    23429872.1694
  23318181.506     2113534.516 8   1675143.73845  23318181.699    23318191.8764
 01  5 22 21 52 30.0000000  0  9 15 17 18 14 21 23 03 06 26
  20394112.019   -10630000.192 9  -8270225.65347  20394111.410    20394119.0414
  20897099.177    -2878209.210 9  -2237720.85147  20897098.760    20897106.7464
  20341391.106   -14651676.042 9 -11393224.54847  20341390.788    20341396.9354
  24322399.489    -4991870.122 7  -3232453.57645  24322399.134    24322417.6294
  21842937.828   -20919450.576 9 -15765630.84147  21842937.469    21842946.2714
  20921585.990    -6914231.091 9  -5378472.69247  20921585.478    20921593.0484
  22372039.544    -6106658.192 8  -4743395.72446  22372039.380    22372048.3114
  23450322.038    16192102.975 8  12617088.09645  23450322.029    23450335.4774
  23334633.698     2199991.584 8   1742512.79045  23334633.999    23334644.1684
 01  5 22 21 53  0.0000000  0  9 15 17 18 14 21 23 03 06 26
  20393981.661   -10630685.151 9  -8270759.39747  20393981.021    20393988.6984
  20901747.853    -2853780.206 9  -2218685.30347  20901747.451    20901755.4194
  20344023.809   -14637841.076 9 -11382444.06047  20344023.516    20344029.6824
  24300734.103    -5105719.696 7  -3321167.09345  24300733.763    24300752.4724
  21834262.970   -20965037.315 9 -15801152.91647  21834262.575    21834271.3414
  20928070.250    -6880156.294 9  -5351920.92147  20928069.729    20928077.2974
  22358557.842    -6177505.031 8  -4798601.01046  22358557.653    22358566.4014
  23470818.769    16299812.852 8  12701017.52345  23470818.770    23470832.3134
  23351162.153     2286848.848 8   1810193.66545  23351162.357    23351172.4234
 01  5 22 21 53 30.0000000  0  9 15 17 18 14 21 23 03 06 26
  20393904.103   -10631092.786 9  -8271077.03247  20393903.474    20393911.0994
  20906446.936    -2829086.866 9  -2199443.76647  20906446.508    20906454.5134
  20346726.667   -14623637.822 9 -11371376.58447  20346726.325    20346732.4984
  24279075.542    -5219534.185 7  -3409853.24645  24279075.187    24279093.9654
  21825638.432   -21010359.085 9 -15836468.51847  21825638.065    21825646.8254
  20934603.129    -6845826.049 9  -5325170.09247  20934602.616    20934610.1704
  22345152.783    -6247949.439 8  -4853492.71246  22345152.533    22345161.1764
  23491348.187    16407693.667 8  12785080.17145  23491348.108    23491361.8494
  23367765.358     2374099.670 8   1878181.23545  23367765.642    23367775.7534
 01  5 22 21 54  0.0000000  0  9 15 17 18 14 21 23 03 06 26
  20393879.572   -10631221.753 9  -8271177.53347  20393878.951    20393886.5274
  20911196.388    -2804127.840 9  -2179995.20647  20911195.980    20911204.1024
  20349499.315   -14609067.051 9 -11360022.73847  20349498.975    20349505.1904
  24257424.335    -5333310.154 7  -3498509.40545  24257424.036    24257442.8894
  21817064.608   -21055414.858 9 -15871576.84647  21817064.191    21817072.8904
  20941184.520    -6811241.158 9  -5298220.84647  20941184.000    20941191.4134
  22331824.748    -6317988.438 8  -4908068.49846  22331824.529    22331833.1204
  23511909.807    16515743.668 8  12869274.62545  23511909.623    23511923.4194
  23384443.393     2461742.115 8   1946473.96045  23384443.556    23384453.6414
 01  5 22 21 54 30.0000000  0  9 15 17 18 14 21 23 03 06 26
  20393908.319   -10631070.928 9  -8271060.01447  20393907.681    20393915.2434
  20915996.682    -2778902.337 9  -2160339.00147  20915996.307    20916004.4264
  20352341.758   -14594129.636 9 -11348383.19647  20352341.457    20352347.7164
  24235780.885    -5447044.804 7  -3587133.37045  24235780.748    24235799.6114
  21808541.270   -21100204.657 9 -15906477.93047  21808540.841    21808549.6434
  20947814.041    -6776402.859 9  -5271074.13747  20947813.501    20947820.9234
  22318574.352    -6387619.556 8  -4962326.46146  22318574.163    22318582.7714
  23532503.320    16623960.934 8  12953599.42245  23532503.087    23532516.7064
  23401195.372     2549773.611 8   2015069.82745  23401195.559    23401205.6454
 01  5 22 21 55  0.0000000  0  9 15 17 18 14 21 23 03 06 26
  20393990.450   -10630639.248 9  -8270723.64347  20393989.844    20393997.4434
  20920848.000    -2753409.143 9  -2140474.21047  20920847.608    20920855.6254
  20355253.953   -14578826.340 9 -11336458.55047  20355253.631    20355259.8604
  24214146.389    -5560734.769 7  -3675722.50845  24214146.135    24214164.5154
  21800068.684   -21144728.301 9 -15941171.60947  21800068.267    21800077.0914
  20954491.469    -6741312.452 9  -5243730.97447  20954490.928    20954498.3724
  22305402.144    -6456839.965 8  -5016264.38046  22305401.912    22305410.4924
  23553127.917    16732343.512 8  13038053.04645  23553127.699    23553141.5034
  23418020.923     2638191.837 8   2083967.05345  23418021.131    23418030.9934
 01  5 22 21 55 30.0000000  0  9 15 17 18 14 21 23 03 06 26
  20394126.155   -10629926.397 9  -8270168.17447  20394125.491    20394133.1264
  20925750.183    -2727648.090 9  -2120400.68947  20925749.745    20925757.7904
  20358235.281   -14563159.241 9 -11324250.42547  20358234.937    20358241.1464
  24192520.995    -5674377.815 7  -3764275.08445  24192520.488    24192538.4464
  21791646.494   -21188987.260 9 -15975659.03647  21791646.018    21791654.7644
  20961216.532    -6705971.982 9  -5216192.95247  20961215.992    20961223.4844
  22292308.344    -6525647.848 8  -5069880.85346  22292308.136    22292316.7304
  23573783.448    16840888.619 8  13122633.28745  23573783.438    23573797.1824
  23434919.568     2726993.561 8   2153163.10545  23434919.692    23434929.5974
 01  5 22 21 56  0.0000000  0  9 15 17 18 14 21 23 03 06 26
  20394315.444   -10628931.384 9  -8269392.84647  20394314.810    20394322.4834
  20930703.420    -2701618.316 9  -2100117.77447  20930703.006    20930711.0774
  20361285.657   -14547129.270 9 -11311759.53847  20361285.316    20361291.4984
  24170904.812    -5787971.036 7  -3852788.82645  24170904.142    24170921.8624
  21783274.710   -21232980.591 9 -16009939.49247  21783274.293    21783282.9874
  20967988.990    -6670382.846 9  -5188461.16947  20967988.414    20967995.9424
  22279293.675    -6594040.492 8  -5123173.77946  22279293.446    22279301.9774
  23594469.717    16949594.097 7  13207338.50245  23594469.539    23594483.3134
  23451890.533     2816176.119 8   2222655.88845  23451890.594    23451900.6514
 01  5 22 21 56 30.0000000  0  9 15 17 18 14 21 23 03 06 26
  20394558.850   -10627652.246 9  -8268396.12447  20394558.221    20394565.8454
  20935708.234    -2675318.096 9  -2079624.12147  20935707.821    20935715.8514
  20364405.118   -14530736.787 9 -11298986.17547  20364404.776    20364410.8864
  24149298.254    -5901510.845 7  -3941260.97145  24149297.640    24149315.3514
  21774953.653   -21276708.262 9 -16044012.93947  21774953.223    21774961.8164
  20974808.641    -6634545.479 9  -5160535.96647  20974808.062    20974815.5624
  22266358.674    -6662014.422 8  -5176140.42746  22266358.381    22266366.9184
  23615185.941    17058458.693 7  13292167.71645  23615185.976    23615199.7894
  23468933.630     2905737.788 8   2292444.12045  23468933.785    23468943.7364
 01  5 22 21 57  0.0000000  0  9 15 17 18 14 21 23 03 06 26
  20394856.269   -10626089.037 9  -8267178.05247  20394855.685    20394863.2614
  20940764.538    -2648747.418 9  -2058919.72247  20940764.091    20940772.2784
  20367593.114   -14513983.948 9 -11285932.03147  20367592.789    20367598.8964
  24127702.425    -6014995.250 7  -4029689.94245  24127701.911    24127719.3914
  21766682.990   -21320170.830 9 -16077879.81447  21766682.539    21766691.0524
  20981675.120    -6598462.119 9  -5132419.07547  20981674.509    20981681.9744
  22253503.578    -6729567.689 8  -5228779.28946  22253503.370    22253511.9684
  23635932.296    17167479.624 8  13377118.73745  23635932.254    23635946.1984
  23486048.219     2995675.121 8   2362525.07845  23486048.327    23486058.3834
 01  5 22 21 57 30.0000000  0  9 15 17 18 14 21 23 03 06 26
  20395207.901   -10624241.558 9  -8265738.46847  20395207.282    20395214.8244
  20945872.209    -2621906.301 9  -2038004.59047  20945871.814    20945880.0774
  20370849.395   -14496871.999 9 -11272598.04947  20370849.075    20370855.2084
  24106117.657    -6128421.642 7  -4118073.71445  24106117.233    24106134.5814
  21758462.498   -21363369.299 9 -16111540.89347  21758462.110    21758470.6054
  20988587.826    -6562134.887 9  -5104112.15047  20988587.264    20988594.8374
  22240728.804    -6796698.967 8  -5281089.33646  22240728.634    22240737.3644
  23656708.027    17276653.780 8  13462189.12745  23656707.791    23656721.8444
  23503233.499     3085984.737 7   2432896.10245  23503233.640    23503243.6534
 01  5 22 21 58  0.0000000  0  9 15 17 18 14 21 23 03 06 26
  20395613.861   -10622107.839 9  -8264075.83847  20395613.261    20395620.8584
  20951031.906    -2594793.012 9  -2016877.40047  20951031.472    20951039.6024
  20374173.791   -14479401.644 9 -11258984.79647  20374173.513    20374179.6824
  24084544.562    -6241786.718 7  -4206409.71645  24084544.378    24084561.5324
  21750292.531   -21406302.528 9 -16144995.30547  21750292.157    21750300.7274
  20995546.940    -6525564.336 9  -5075615.64447  20995546.445    20995554.0554
  22228035.000    -6863404.771 8  -5333067.83946  22228034.832    22228043.7044
  23677512.224    17385979.738 7  13547377.82245  23677512.119    23677526.6584
  23520489.186     3176664.868 8   2503555.83445  23520489.474    23520499.5254
 01  5 22 21 58 30.0000000  0  9 15 17 18 14 21 23 03 06 26
  20396074.411   -10619687.552 9  -8262189.91147  20396073.842    20396081.4214
  20956243.292    -2567407.322 9  -1995537.93147  20956242.815    20956250.9444
  20377566.172   -14461574.771 9 -11245093.73547  20377565.905    20377572.1004
  24062983.593    -6355088.031 7  -4294696.01545  24062983.324    24063000.5414
  21742172.696   -21448971.522 9 -16178243.81547  21742172.397    21742181.0824
  21002552.115    -6488752.396 9  -5046931.03447  21002551.596    21002559.1624
  22215422.614    -6929683.490 8  -5384713.54846  22215422.423    22215431.2334
  23698344.961    17495454.683 7  13632682.58945  23698344.728    23698359.5944
  23537814.763     3267712.099 8   2574501.60745  23537815.030    23537825.3504
 01  5 22 21 59  0.0000000  0  9 15 17 18 14 21 23 03 06 26
  20396589.354   -10616981.100 9  -8260081.00447  20396588.806    20396596.4554
  20961506.233    -2539749.513 9  -1973986.42847  20961505.812    20961514.0524
  20381025.949   -14443393.485 9 -11230926.52047  20381025.680    20381031.9004
  24041435.449    -6468323.636 7  -4382931.13345  24041434.961    24041452.0374
  21734103.099   -21491377.821 9 -16211287.63547  21734102.754    21734111.3734
  21009602.674    -6451701.469 9  -5018060.20847  21009602.165    21009609.7114
  22202891.755    -6995533.532 8  -5436025.23046  22202891.508    22202900.3164
  23719205.098    17605075.415 7  13718100.95545  23719205.165    23719219.8724
  23555209.782     3359122.969 7   2645730.76145  23555210.097    23555220.3204
 01  5 22 21 59 30.0000000  0  9 15 17 18 14 21 23 03 06 26
  20397159.028   -10613987.313 9  -8257748.19747  20397158.511    20397166.1824
  20966821.203    -2511818.408 9  -1952221.96147  20966820.822    20966829.1004
  20384553.054   -14424858.536 9 -11216483.71347  20384552.778    20384559.0384
  24019900.220    -6581490.694 7  -4471112.81545  24019899.671    24019916.5594
  21726083.474   -21533521.104 9 -16244126.51247  21726083.096    21726091.6824
  21016698.433    -6414412.629 9  -4989003.98847  21016697.933    21016705.5294
  22190442.832    -7060952.355 8  -5487000.89446  22190442.646    22190451.4524
  23740092.679    17714840.066 7  13803631.45645  23740092.786    23740107.6414
  23572673.547     3450894.982 7   2717241.30045  23572673.797    23572684.0754
 01  5 22 22  0  0.0000000  0  9 15 17 18 14 21 23 03 06 26
  20397783.735   -10610704.802 9  -8255190.41847  20397783.159    20397790.7814
  20972188.450    -2483613.013 9  -1930243.76247  20972188.067    20972196.3974
  20388147.226   -14405971.186 9 -11201766.31647  20388146.949    20388153.1894
  23998378.464    -6694585.917 7  -4559238.54945  23998377.990    23998394.7714
  21718113.850   -21575401.131 9 -16276760.25347  21718113.563    21718122.1264
  21023839.274    -6376886.957 9  -4959763.23247  21023838.799    21023846.4314
  22178076.492    -7125937.139 8  -5537638.35246  22178076.397    22178085.1594
  23761007.412    17824746.567 7  13889272.46845  23761007.566    23761022.5044
  23590205.503     3543025.643 7   2789031.30445  23590205.780    23590216.0404
 01  5 22 22  0 30.0000000  0 10 15 17 18 14 21 23 29 03 06 26
  20398463.463   -10607133.010 9  -8252407.21947  20398462.878    20398470.5264
  20977607.986    -2455133.135 9  -1908051.68147  20977607.634    20977615.9454
  20391808.130   -14386732.970 9 -11186775.51247  20391807.855    20391814.0644
  23976870.910    -6807606.954 7  -4647306.47145  23976870.449    23976887.1584
  21710194.395   -21617018.468 9 -16309189.28547  21710194.026    21710202.5434
  21031024.833    -6339126.568 9  -4930339.57747  21031024.375    21031031.9834
  24421203.875     -690491.619 7   -510408.10744  24421202.124    24421223.1914
  22165793.250    -7190485.796 8  -5587935.96946  22165793.171    22165801.9024
  23781948.725    17934792.071 7  13975021.81245  23781948.818    23781963.9094
  23607805.116     3635511.756 7   2861098.28645  23607805.387    23607815.6884
 01  5 22 22  1  0.0000000  0 10 15 17 18 14 21 23 29 03 06 26
  20399197.706   -10603274.479 9  -8249400.58847  20399197.120    20399204.7954
  20983079.457    -2426381.194 9  -1885647.60647  20983079.056    20983087.2934
  20395534.912   -14367148.337 9 -11171514.77447  20395534.665    20395540.8704
  23955377.308    -6920554.205 7  -4735316.89745  23955377.158    23955393.8104
  21702324.140   -21658376.418 9 -16341416.20947  21702323.774    21702332.3324
  21038254.240    -6301136.164 9  -4900736.68947  21038253.760    21038261.4014
  24400289.046     -800401.278 7   -596051.54245  24400288.602    24400307.3664
  22153592.948    -7254599.050 8  -5637894.30046  22153592.827    22153601.5414
  23802915.536    18044971.358 8  14060875.37645  23802915.684    23802930.5454
  23625471.226     3728347.452 7   2933437.65345  23625471.407    23625481.7914
 01  5 22 22  1 30.0000000  0 10 15 17 18 14 21 23 29 03 06 26
  20399987.647   -10599123.536 9  -8246166.10647  20399987.073    20399994.7524
  20988603.681    -2397351.664 9  -1863027.24147  20988603.282    20988611.4684
  20399328.357   -14347213.864 9 -11155981.44147  20399328.099    20399334.3204
  23933899.295    -7033419.868 8  -4823263.76045  23933899.187    23933915.7914
  21694504.221   -21699470.371 9 -16373437.41947  21694503.838    21694512.4104
  21045528.051    -6262912.247 9  -4870951.85147  21045527.564    21045535.2664
  24379379.151     -910278.133 7   -681669.41245  24379378.618    24379398.8514
  22141476.777    -7318269.944 8  -5687507.95446  22141476.695    22141485.2934
  23823908.444    18155286.931 7  14146835.14645  23823908.481    23823923.2824
  23643204.146     3821534.806 7   3006051.03745  23643204.361    23643214.9054
 01  5 22 22  2  0.0000000  0 10 15 17 18 14 21 23 29 03 06 26
  20400832.378   -10594684.405 9  -8242707.05547  20400831.798    20400839.4634
  20994179.880    -2368048.953 9  -1840193.99947  20994179.452    20994187.6774
  20403187.203   -14326935.889 9 -11140180.43447  20403186.927    20403193.0904
  23912436.486    -7146206.488 7  -4911149.02645  23912436.355    23912452.7924
  21686733.446   -21740305.797 9 -16405257.18247  21686733.047    21686741.6494
  21052844.985    -6224461.418 9  -4840990.18947  21052844.489    21052852.2084
  24358475.803    -1020124.673 7   -767263.67045  24358475.009    24358495.9404
  22129444.318    -7381501.514 8  -5736779.27446  22129444.085    22129452.6524
  23844925.722    18265731.242 7  14232895.22045  23844925.650    23844940.4914
  23661002.574     3915065.714 8   3078932.14645  23661002.838    23661013.3964
 01  5 22 22  2 30.0000000  0 10 15 17 18 14 21 23 29 03 06 26
  20401733.022   -10589951.497 9  -8239019.08347  20401732.454    20401740.0964
  20999808.945    -2338467.478 8  -1817143.52347  20999808.545    20999816.9594
  20407112.027   -14306310.832 9 -11124108.96647  20407111.741    20407117.8754
  23890990.114    -7258906.320 7  -4998966.66645  23890990.073    23891006.2504
  21679012.708   -21780878.188 9 -16436871.97147  21679012.362    21679020.8444
  21060205.753    -6185780.257 9  -4810849.04047  21060205.283    21060213.0354
  24337579.762    -1129933.357 7   -852828.43845  24337579.194    24337600.0444
  22117496.664    -7444286.606 8  -5785702.67346  22117496.446    22117505.1764
  23865968.030    18376306.829 7  14319057.56845  23865967.933    23865982.7314
  23678866.916     4008942.443 7   3152082.73545  23678867.182    23678877.6064
 01  5 22 22  3  0.0000000  0 10 15 17 18 14 21 23 29 03 06 26
  20402689.198   -10584926.856 9  -8235103.79447  20402688.613    20402696.3224
  21005490.657    -2308609.317 9  -1793877.46547  21005490.332    21005498.7994
  20411102.084   -14285342.851 9 -11107770.29347  20411101.838    20411107.9534
  23869560.366    -7371519.329 7  -5086716.65645  23869560.158    23869576.3814
  21671341.479   -21821191.020 9 -16468284.52347  21671341.053    21671349.4404
  21067609.511    -6146873.140 9  -4780531.83247  21067609.038    21067616.7914
  24316690.927    -1239704.510 7   -938363.96245  24316690.456    24316711.2214
  22105633.789    -7506625.911 8  -5834278.71846  22105633.639    22105642.4374
  23887034.395    18487008.707 7  14405318.33245  23887034.150    23887048.8394
  23696795.797     4103159.319 7   3225498.34945  23696795.990    23696806.6324
 01  5 22 22  3 30.0000000  0 10 15 17 18 14 21 23 29 03 06 26
  20403701.587   -10579606.591 9  -8230958.14347  20403701.042    20403708.7924
  21011225.841    -2278471.050 9  -1770393.13747  21011225.501    21011233.8704
  20415157.784   -14264030.387 9 -11091163.19047  20415157.501    20415163.6534
  23848148.288    -7484039.933 8  -5174394.62745  23848147.931    23848163.8904
  21663720.115   -21861240.916 9 -16499492.18947  21663719.719    21663728.1654
  21075056.631    -6107738.562 9  -4750037.38147  21075056.172    21075063.8244
  24295810.480    -1349432.621 7  -1023865.92245  24295810.160    24295830.4314
  22093856.842    -7568513.899 8  -5882503.10146  22093856.741    22093865.5074
  23908124.550    18597837.310 7  14491677.83145  23908124.339    23908139.1184
  23714789.563     4197716.372 7   3299179.05845  23714789.752    23714800.4254
 01  5 22 22  4  0.0000000  0 10 15 17 18 14 21 23 29 03 06 26
  20404769.971   -10573992.237 9  -8226583.33747  20404769.422    20404777.2014
  21017014.041    -2248054.345 9  -1746691.86147  21017013.674    21017021.9824
  20419278.196   -14242377.257 9 -11074290.63747  20419277.918    20419284.0984
  23826753.802    -7596467.851 8  -5262000.38945  23826753.412    23826769.0784
  21656148.255   -21901030.977 9 -16530497.38647  21656147.861    21656156.3954
  21082546.282    -6068380.536 9  -4719368.81547  21082545.787    21082553.4274
  24274938.166    -1459117.666 7  -1109334.32545  24274937.631    24274957.7684
  22082165.805    -7629950.775 8  -5930375.97946  22082165.645    22082174.2794
  23929238.014    18708787.863 7  14578132.35045  23929237.793    23929252.5524
  23732846.753     4292608.292 7   3373120.66745  23732847.032    23732857.9894
 01  5 22 22  4 30.0000000  0 10 15 17 18 14 21 23 29 03 06 26
  20405894.215   -10568084.495 9  -8221979.90747  20405893.693    20405901.4594
  21022855.070    -2217359.790 9  -1722774.06647  21022854.720    21022863.0354
  20423463.032   -14220385.836 9 -11057154.46647  20423462.771    20423468.9014
  23805377.357    -7708801.431 8  -5349532.62245  23805376.901    23805392.2314
  21648625.497   -21940562.804 9 -16561301.35047  21648625.119    21648633.6884
  21090077.795    -6028801.821 9  -4688528.27747  21090077.323    21090085.0714
  24254074.223    -1568758.333 7  -1194768.15645  24254073.614    24254093.6054
  22070560.681    -7690935.773 8  -5977896.72846  22070560.579    22070569.1874
  23950374.051    18819856.872 7  14664679.18245  23950373.861    23950388.7324
  23750967.227     4387831.154 8   3447320.19845  23750967.546    23750978.3764
 01  5 22 22  5  0.0000000  0 10 15 17 18 14 21 23 29 03 06 26
  20407074.636   -10561881.796 9  -8217146.64147  20407074.086    20407081.8084
  21028749.186    -2186386.019 9  -1698638.69747  21028748.850    21028757.1164
  20427712.126   -14198056.844 9 -11039755.25447  20427711.849    20427717.9774
  23784019.323    -7821037.161 7  -5436988.61845  23784018.927    23784034.1224
  21641152.011   -21979836.037 9 -16591903.82147  21641151.632    21641160.2264
  21097651.203    -5989003.021 9  -4657516.23647  21097650.760    21097658.5934
  24233219.253    -1678351.343 7  -1280164.84645  24233218.662    24233238.3244
  22059042.217    -7751465.949 8  -6025063.07346  22059042.083    22059050.5744
  23971532.387    18931042.747 7  14751317.06845  23971532.104    23971547.2004
  23769150.425     4483382.831 8   3521775.93645  23769150.599    23769161.4684
 01  5 22 22  5 30.0000000  0 10 15 17 18 14 21 23 29 03 06 26
  20408311.444   -10555382.276 9  -8212082.09347  20408310.890    20408318.6204
  21034696.749    -2155131.483 9  -1674284.56247  21034696.422    21034704.6004
  20432025.266   -14175390.700 9 -11022093.33047  20432025.024    20432031.2304
  23762680.455    -7933171.325 8  -5524365.47845  23762680.200    23762695.0554
  21633727.829   -22018850.070 9 -16622304.31947  21633727.452    21633736.1004
  21105266.468    -5948984.714 9  -4626333.16647  21105266.038    21105273.7954
  24212373.733    -1787893.195 7  -1365521.68645  24212373.234    24212392.7974
  22047610.913    -7811537.866 8  -6071872.33246  22047610.757    22047619.2484
  23992712.364    19042344.015 7  14838044.86945  23992712.300    23992727.5714
  23787395.583     4579261.439 8   3596486.41045  23787395.798    23787406.8234
 01  5 22 22  6  0.0000000  0 10 15 17 18 14 21 23 29 03 06 26
  20409604.853   -10548585.002 9  -8206785.52547  20409604.325    20409612.1384
  21040697.928    -2123595.266 9  -1649710.92147  21040697.608    21040705.7844
  20436402.383   -14152388.624 9 -11004169.63547  20436402.163    20436408.4094
  23741361.498    -8045200.781 7  -5611660.75345  23741361.369    23741376.0484
  21626352.995   -22057604.863 9 -16652502.81647  21626352.628    21626361.2714
  21112923.357    -5908748.156 9  -4594980.02647  21112922.888    21112930.5454
  24191538.368    -1897381.058 7  -1450836.44045  24191537.958    24191557.4074
  22036267.124    -7871149.533 8  -6118322.95846  22036266.990    22036275.4494
  24013914.092    19153758.738 7  14924861.08345  24013914.043    24013929.7804
  23805702.463     4675464.303 8   3671449.54445  23805702.725    23805713.8744
 01  5 22 22  6 30.0000000  0 10 15 17 18 14 21 23 29 03 06 26
  20410955.031   -10541489.995 9  -8201256.96247  20410954.470    20410962.2674
  21046752.723    -2091777.504 9  -1624917.89047  21046752.386    21046760.6134
  20440843.013   -14129052.913 9 -10985985.96547  20440842.809    20440849.0364
  23720062.869    -8157123.835 7  -5698873.10345  23720062.723    23720077.3734
  21619027.350   -22096101.346 9 -16682500.03247  21619026.979    21619035.5504
  21120621.228    -5868295.731 9  -4563458.67847  21120620.748    21120628.3684
  24170713.647    -2006813.313 7  -1536107.88045  24170713.125    24170732.6994
  22025011.268    -7930299.337 8  -6164413.68846  22025011.132    22025019.6114
  24035136.790    19265283.652 7  15011763.13245  24035136.850    24035152.6864
  23824070.550     4771987.788 8   3746662.54145  23824070.719    23824081.6564
 01  5 22 22  7  0.0000000  0 10 15 17 18 14 21 23 29 03 06 26
  20412362.107   -10534095.558 9  -8195495.07747  20412361.556    20412369.3554
  21052861.354    -2059676.873 9  -1599904.45747  21052860.948    21052869.1224
  20445347.058   -14105384.079 9 -10967542.72247  20445346.841    20445353.0644
  23698785.327    -8268936.839 8  -5785999.71845  23698785.124    23698799.5974
  21611750.877   -22134339.780 9 -16712296.17847  21611750.437    21611758.9264
  21128359.962    -5827628.230 9  -4531769.72847  21128359.491    21128367.1614
  24149900.068    -2116186.674 7  -1621333.42545  24149899.673    24149919.1564
  22013843.817    -7988984.510 8  -6210142.37246  22013843.633    22013852.1144
  24056380.385    19376917.022 7  15098749.71245  24056380.264    24056396.3444
  23842499.108     4868829.728 8   3822123.68845  23842499.222    23842509.9934
 01  5 22 22  7 30.0000000  0 10 15 17 18 14 21 23 29 03 06 26
  20413826.048   -10526402.431 9  -8189500.44247  20413825.503    20413833.2944
  21059023.493    -2027294.299 8  -1574671.31347  21059023.102    21059031.3784
  20449913.971   -14081384.900 9 -10948842.06847  20449913.749    20449919.9654
  23677528.996    -8380638.555 8  -5873039.59545  23677528.729    23677543.1004
  21604523.094   -22172321.737 9 -16741892.46747  21604522.700    21604531.1214
  21136139.159    -5786748.497 9  -4499915.40247  21136138.666    21136146.4014
  24129098.013    -2225500.118 7  -1706512.27845  24129097.783    24129116.8744
  22002764.854    -8047204.357 8  -6255508.45046  22002764.723    22002773.2224
  24077643.885    19488655.036 7  15185817.82045  24077643.603    24077659.7434
  23860987.241     4965985.768 7   3897829.57045  23860987.393    23860998.3384
 01  5 22 22  8  0.0000000  0 10 15 17 18 14 21 23 29 03 06 26
  20415347.109   -10518409.337 9  -8183272.06947  20415346.540    20415354.3454
  21065239.566    -1994628.453 9  -1549217.43947  21065239.218    21065247.6054
  20454543.687   -14057056.064 9 -10929884.53947  20454543.394    20454549.5984
  23656294.472    -8492225.792 8  -5959990.27645  23656294.029    23656308.4714
  21597344.197   -22210046.802 9 -16771288.58347  21597343.810    21597352.2014
  21143958.567    -5745657.312 9  -4467896.32647  21143958.092    21143965.8324
  24108308.102    -2334750.330 7  -1791641.85145  24108307.757    24108326.6934
  21991775.072    -8104956.121 8  -6300509.79746  21991774.911    21991783.4564
  24098926.949    19600495.894 7  15272966.06345  24098926.610    24098942.6874
  23879534.635     5063453.836 7   3973778.56645  23879534.871    23879545.9834
 01  5 22 22  8 30.0000000  0 10 15 17 18 14 21 23 29 03 06 26
  20416925.400   -10510115.348 9  -8176809.23047  20416924.837    20416932.6474
  21071509.903    -1961678.584 9  -1523542.25647  21071509.478    21071517.7904
  20459235.693   -14032399.111 9 -10910671.33247  20459235.406    20459241.6484
  23635082.115    -8603695.301 8  -6046849.22545  23635081.654    23635096.1584
  21590214.158   -22247515.576 9 -16800484.98647  21590213.746    21590222.0964
  21151817.962    -5704356.014 9  -4435713.51847  21151817.472    21151825.1804
  24087530.510    -2443934.888 7  -1876720.26245  24087530.091    24087549.1984
  21980874.652    -8162237.853 8  -6345144.87846  21980874.497    21980883.1234
  24120229.013    19712437.444 7  15360192.75945  24120228.612    24120244.9294
  23898140.928     5161230.956 7   4049968.40245  23898141.271    23898152.4664
 01  5 22 22  9  0.0000000  0 10 15 17 18 14 21 23 29 03 06 26
  20418560.989   -10501520.791 9  -8170112.18347  20418560.375    20418568.0894
  21077834.018    -1928445.083 8  -1497646.05847  21077833.580    21077841.9444
  20463989.772   -14007416.271 9 -10891204.19247  20463989.475    20463995.7224
  23613892.537    -8715045.471 8  -6133615.18445  23613892.074    23613906.5214
  21583132.645   -22284729.253 9 -16829482.61747  21583132.189    21583140.5344
  21159716.903    -5662847.104 9  -4403368.92847  21159716.393    21159724.0444
  24066765.929    -2553051.969 7  -1961746.11345  24066765.485    24066784.4624
  21970064.048    -8219048.158 8  -6389412.62146  21970063.881    21970072.4064
  24141549.397    19824476.349 7  15447495.31445  24141549.253    24141565.5734
  23916805.811     5259313.496 7   4126396.26545  23916806.009    23916816.9504
 01  5 22 22  9 30.0000000  0 10 15 17 18 14 21 23 29 03 06 26
  20420253.722   -10492625.431 9  -8163180.74647  20420253.093    20420260.7524
  21084212.040    -1894928.021 9  -1471528.90347  21084211.664    21084220.0874
  20468805.514   -13982109.435 9 -10871484.58747  20468805.231    20468811.4374
  23592726.118    -8826274.128 8  -6220286.44745  23592725.676    23592739.9754
  21576099.413   -22321688.775 9 -16858282.20547  21576098.968    21576107.3074
  21167654.900    -5621132.770 9  -4370864.26947  21167654.398    21167662.0154
  24046014.332    -2662099.876 7  -2046718.03545  24046014.032    24046032.8424
  21959343.473    -8275385.798 8  -6433312.05147  21959343.233    21959351.6394
  24162887.765    19936609.631 7  15534871.44045  24162887.631    24162904.2884
  23935527.855     5357697.749 7   4203059.23045  23935528.079    23935539.0664
 01  5 22 22 10  0.0000000  0 10 15 17 18 14 21 23 29 03 06 26
  20422004.077   -10483427.536 9  -8156013.56947  20422003.461    20422011.1384
  21090644.507    -1861125.705 9  -1445189.47747  21090644.101    21090652.4914
  20473682.842   -13956479.024 9 -10851512.84847  20473682.525    20473688.6854
  23571583.503    -8937377.588 8  -6306860.14545  23571583.083    23571597.3484
  21569114.657   -22358393.718 9 -16886883.42247  21569114.203    21569122.5574
  21175631.907    -5579213.555 9  -4338199.96847  21175631.395    21175638.9914
  24025276.589    -2771074.991 7  -2131633.23245  24025276.448    24025295.0774
  21948713.281    -8331247.707 8  -6476840.77347  21948713.002    21948721.4294
  24184243.745    20048835.845 7  15622319.95945  24184243.736    24184260.8724
  23954306.881     5456382.071 7   4279955.96645  23954307.088    23954318.4204
 01  5 22 22 10 30.0000000  0 10 15 17 18 14 21 23 29 03 06 26
  20423812.257   -10473925.620 9  -8148609.48947  20423811.619    20423819.3304
  21097131.432    -1827036.934 9  -1418626.83347  21097130.960    21097139.3914
  20478621.655   -13930525.794 9 -10831289.56147  20478621.315    20478627.4414
  23550465.261    -9048352.318 8  -6393333.55745  23550464.903    23550479.1604
  21562178.477   -22394843.495 9 -16915285.80947  21562178.025    21562186.3744
  21183647.757    -5537090.010 9  -4305376.45947  21183647.236    21183654.8504
  24004553.314    -2879974.248 7  -2216489.30945  24004553.324    24004571.5704
  21938174.112    -8386631.057 8  -6519996.59246  21938173.888    21938182.2764
  24205617.228    20161153.150 7  15709839.44945  24205617.469    24205634.5944
  23973142.774     5555364.143 7   4357084.75145  23973142.937    23973154.3214
 01  5 22 22 11  0.0000000  0 10 15 17 18 14 21 23 29 03 06 26
  20425678.383   -10464118.476 9  -8140967.56547  20425677.758    20425685.5624
  21103672.967    -1792660.686 9  -1391840.18147  21103672.571    21103680.9964
  20483621.556   -13904250.897 9 -10810815.62847  20483621.224    20483627.3914
  23529372.128    -9159195.161 8  -6479704.19745  23529371.786    23529386.0574
  21555290.831   -22431038.163 9 -16943489.39547  21555290.373    21555298.7424
  21191702.254    -5494763.394 9  -4272394.69647  21191701.770    21191709.3644
  23983845.113    -2988794.497 7  -2301283.82545  23983845.310    23983863.2104
  21927726.556    -8441533.484 8  -6562777.67346  21927726.281    21927734.5744
  24227007.913    20273559.736 7  15797428.52645  24227008.010    24227025.3204
  23992034.892     5654641.458 7   4434443.57345  23992034.969    23992046.2524
 01  5 22 22 11 30.0000000  0 10 15 17 18 14 21 23 29 03 06 26
  20427602.274   -10454008.307 9  -8133089.51547  20427601.686    20427609.4894
  21110268.881    -1757999.346 9  -1364831.37447  21110268.435    21110276.9454
  20488681.849   -13877658.668 9 -10790094.41647  20488681.561    20488687.7504
  23508304.230    -9269906.347 8  -6565972.25645  23508303.811    23508318.0454
  21548451.016   -22466981.134 9 -16971496.84947  21548450.588    21548458.9954
  21199794.575    -5452238.078 9  -4239258.10147  21199794.078    21199801.7564
  23963151.621    -3097536.362 7  -2386017.24045  23963151.966    23963169.9714
  21917370.309    -8495955.674 8  -6605184.54847  21917370.090    21917378.3394
  24248414.499    20386050.331 7  15885083.04545  24248414.691    24248432.2974
  24010981.888     5754208.202 7   4512027.92145  24010981.992    24010993.2984
 01  5 22 22 12  0.0000000  0 10 15 17 18 14 21 23 29 03 06 26
  20429584.413   -10443592.521 9  -8124973.33447  20429583.813    20429591.6024
  21116919.367    -1723050.540 8  -1337598.57047  21116918.931    21116927.5494
  20493802.675   -13850748.598 9 -10769125.54547  20493802.396    20493808.5484
  23487262.188    -9380481.213 8  -6652134.08045  23487261.847    23487275.9394
  21541659.411   -22502671.571 9 -16999307.52947  21541658.970    21541667.2704
  21207924.744    -5409513.756 9  -4205966.44747  21207924.230    21207931.9994
  23942474.119    -3206195.238 7  -2470685.99445  23942474.501    23942492.2124
  21907106.041    -8549894.233 8  -6647214.57147  21907105.866    21907114.1144
  24269836.997    20498624.387 7  15972802.56845  24269837.240    24269855.0824
  24029983.746     5854063.360 7   4589837.00145  24029983.978    24029995.2864
 01  5 22 22 12 30.0000000  0 10 15 17 18 14 21 23 29 03 06 26
  20431624.851   -10432869.621 9  -8116617.83247  20431624.251    20431632.0844
  21123624.882    -1687812.841 9  -1310140.66147  21123624.489    21123633.0594
  20498983.890   -13823521.369 9 -10747909.53447  20498983.579    20498989.6794
  23466247.050    -9490916.300 8  -6738187.00445  23466246.566    23466260.4584
  21534916.005   -22538108.167 9 -17026920.41347  21534915.568    21534923.8154
  21216092.633    -5366591.001 9  -4172520.16347  21216092.115    21216099.8794
  23921813.077    -3314767.900 7  -2555287.56245  23921813.473    23921830.9924
  21896934.394    -8603346.084 8  -6688865.33847  21896934.258    21896942.5064
  24291275.225    20611280.037 7  16060585.70645  24291275.398    24291293.1674
  24049040.413     5954204.749 7   4667869.13245  24049040.495    24049051.7054
 01  5 22 22 13  0.0000000  0 10 15 17 18 14 21 23 29 03 06 26
  20433723.570   -10421840.941 9  -8108024.06547  20433722.998    20433730.7884
  21130385.253    -1652287.539 9  -1282458.64347  21130384.849    21130393.3394
  20504224.715   -13795980.346 9 -10726449.01147  20504224.431    20504230.5494
  23445258.474    -9601210.721 8  -6824130.32245  23445257.966    23445271.6654
  21528220.304   -22573293.846 9 -17054337.77847  21528219.904    21528228.1664
  21224297.644    -5323473.175 9  -4138921.87947  21224297.145    21224304.9394
  23901168.656    -3423253.881 7  -2639821.58145  23901168.896    23901186.5524
  21886855.516    -8656311.134 8  -6730136.77847  21886855.316    21886863.6234
  24312728.229    20724013.298 7  16148429.31145  24312728.377    24312746.0904
  24068150.491     6054627.686 7   4746120.63945  24068150.386    24068161.6724
 01  5 22 22 13 30.0000000  0 10 15 17 18 14 21 23 29 03 06 26
  20435880.729   -10410505.432 9  -8099191.21447  20435880.075    20435887.8864
  21137200.280    -1616474.221 8  -1254552.19447  21137199.881    21137208.4724
  20509525.041   -13768126.789 9 -10704744.95647  20509524.772    20509530.9814
  23424297.002    -9711361.730 8  -6909961.89045  23424296.658    23424310.2574
  21521572.358   -22608228.970 9 -17081559.90647  21521571.946    21521580.2074
  21232539.613    -5280161.746 9  -4105172.73747  21232539.109    21232546.9094
  23880541.346    -3531650.464 7  -2724285.93045  23880541.386    23880559.1074
  21876869.554    -8708787.510 8  -6771027.43947  21876869.378    21876877.7014
  24334195.643    20836821.771 7  16236331.50045  24334195.466    24334213.3934
  24087313.438     6155329.308 7   4824589.32445  24087313.479    24087324.4514
 01  5 22 22 14  0.0000000  0 10 15 17 18 14 21 23 29 03 06 26
  20438096.243   -10398862.196 9  -8090118.57847  20438095.631    20438103.5084
  21144070.365    -1580371.816 9  -1226420.49047  21144070.014    21144078.5334
  20514884.663   -13739961.846 9 -10682798.26147  20514884.391    20514890.6914
  23403363.427    -9821366.292 8  -6995679.34545  23403363.110    23403376.7414
  21514972.054   -22642913.368 9 -17108586.66147  21514971.675    21514979.8934
  21240818.238    -5236657.764 9  -4071273.55147  21240817.748    21240825.4904
  23859931.478    -3639954.922 7  -2808678.49745  23859931.453    23859949.0934
  21866977.074    -8760772.966 8  -6811535.56247  21866976.847    21866985.1814
  24355676.789    20949703.396 7  16324290.71145  24355676.435    24355694.3134
  24106529.003     6256307.056 7   4903273.16845  24106528.997    24106539.8414
 01  5 22 22 14 30.0000000  0 10 15 17 18 14 21 23 29 03 06 26
  20440370.757   -10386909.340 9  -8080804.68047  20440370.176    20440378.0204
  21150995.899    -1543978.865 9  -1198062.39147  21150995.480    21151003.8304
  20520303.429   -13711485.799 9 -10660609.15047  20520303.180    20520309.5094
  23382458.573    -9931220.499 8  -7081279.66745  23382458.152    23382471.7404
  21508419.516   -22677346.617 9 -17135417.72347  21508419.191    21508427.4284
  21249133.370    -5192961.634 9  -4037224.64647  21249132.871    21249140.5904
  23839339.588    -3748163.607 7  -2892996.44445  23839339.710    23839357.4024
  21857178.543    -8812264.576 8  -6851658.87147  21857178.330    21857186.6684
  24377171.595    21062656.761 7  16412305.81445  24377171.184    24377189.0844
  24125796.609     6357558.939 7   4982170.65045  24125796.509    24125807.3834
 01  5 22 22 15  0.0000000  0 10 15 17 18 14 21 23 29 03 06 26
  20442704.438   -10374645.829 9  -8071248.71747  20442703.851    20442711.6804
  21157976.760    -1507294.219 9  -1169476.99847  21157976.338    21157984.6384
  20525781.292   -13682699.693 9 -10638178.43047  20525781.047    20525787.3194
  23361582.705   -10040921.211 8  -7166760.37045  23361582.394    23361595.9534
  21501914.920   -22711528.615 9 -17162053.00147  21501914.564    21501922.8324
  21257484.829    -5149074.420 9  -4003026.83947  21257484.300    21257491.9864
  23818766.201    -3856273.684 7  -2977237.55845  23818766.353    23818784.1544
  21847474.393    -8863259.871 9  -6891395.43147  21847474.238    21847482.6044
  24398679.527    21175680.047 7  16500375.37845  24398679.295    24398697.1664
  24145115.842     6459082.703 7   5061279.93345  24145115.725    24145126.7554
 01  5 22 22 15 30.0000000  0 10 15 17 18 14 21 23 29 03 06 26
  20445097.246   -10362071.416 9  -8061450.48047  20445096.684    20445104.5654
  21165013.050    -1470318.123 9  -1140664.49847  21165012.667    21165021.0044
  20531317.736   -13653605.679 9 -10615507.77947  20531317.465    20531323.6764
  23340736.625   -10150466.409 8  -7252119.89745  23340736.376    23340749.7874
  21495457.768   -22745460.824 9 -17188493.63947  21495457.395    21495465.7304
  21265872.154    -5104998.171 9  -3968681.72647  21265871.654    21265879.4094
  23798212.128    -3964283.271 7  -3061400.38345  23798212.261    23798230.0414
  21837864.960    -8913757.643 9  -6930744.31547  21837864.821    21837873.1914
  24420200.208    21288770.265 7  16588497.10945  24420200.006    24420217.8014
  24164486.327     6560874.597 7   5140598.18845  24164486.083    24164497.0694
 01  5 22 22 16  0.0000000  0 10 15 17 18 14 21 23 29 03 06 26
  20447549.043   -10349187.057 9  -8051410.72447  20447548.497    20447556.4534
  21172104.580    -1433051.762 8  -1111625.81547  21172104.207    21172112.6974
  20536912.140   -13624206.842 9 -10592599.60747  20536911.862    20536918.1794
  23319920.501   -10259854.779 8  -7337357.23045  23319920.245    23319933.4574
  21489047.685   -22779145.475 9 -17214741.37647  21489047.362    21489055.7334
  21274294.970    -5060736.037 9  -3934191.76647  21274294.492    21274302.2924
  23777677.589    -4072191.473 7  -3145484.19545  23777677.697    23777695.0094
  21828350.217    -8963758.002 8  -6969705.60147  21828350.038    21828358.3874
  24441732.792    21401923.359 7  16676667.82745  24441732.709    24441750.7244
  24183907.174     6662930.348 7   5220122.03645  24183906.840    24183917.6944
 01  5 22 22 16 30.0000000  0 10 15 17 18 14 21 23 29 03 06 26
  20450059.797   -10335993.271 9  -8041129.87347  20450059.259    20450067.1714
  21179251.114    -1395495.715 8  -1082361.40947  21179250.800    21179259.4284
  20542563.950   -13594505.805 9 -10569455.95447  20542563.729    20542570.1654
  23299134.595   -10369085.093 8  -7422471.41245  23299134.255    23299147.3424
  21482684.454   -22812584.146 9 -17240797.44847  21482684.157    21482692.5444
  21282752.693    -5016290.647 9  -3899559.02347  21282752.207    21282760.0284
  23757162.579    -4179997.095 7  -3229488.07545  23757162.530    23757179.7224
  21818930.097    -9013260.328 8  -7008278.81347  21818929.949    21818938.3344
  24463276.797    21515135.661 7  16764884.68945  24463276.805    24463295.1394
  24203377.284     6765245.582 7   5299848.09145  24203377.030    24203387.8164
 01  5 22 22 17  0.0000000  0 10 15 17 18 14 21 23 29 03 06 26
  20452630.209   -10322485.812 9  -8030604.59047  20452629.689    20452637.5794
  21186453.678    -1357645.875 8  -1052868.07047  21186453.383    21186461.9684
  20548273.869   -13564500.367 9 -10546075.10247  20548273.656    20548279.9914
  23278379.599   -10478150.784 8  -7507457.32145  23278379.354    23278392.4804
  21476368.670   -22845773.679 9 -17266659.38347  21476368.330    21476376.6994
  21291245.672    -4971659.788 9  -3864781.75447  21291245.217    21291252.9954
  23736668.449    -4287693.769 7  -3313407.06345  23736668.167    23736685.2054
  21809605.900    -9062258.933 8  -7046459.51147  21809605.734    21809614.2114
  24484832.091    21628408.484 7  16853148.68745  24484832.142    24484850.8704
  24222896.710     6867821.241 7   5379777.06745  24222896.528    24222907.4264
 01  5 22 22 17 30.0000000  0 10 15 17 18 14 21 23 29 03 06 26
  20455260.259   -10308665.061 9  -8019835.19047  20455259.708    20455267.5284
  21193712.089    -1319502.733 8  -1023146.18147  21193711.779    21193720.4024
  20554041.213   -13534193.154 9 -10522459.10947  20554040.993    20554047.2414
  23257656.178   -10587050.388 8  -7592313.81745  23257656.071    23257669.2504
  21470100.080   -22878715.220 9 -17292328.07847  21470099.739    21470108.0184
  21299773.488    -4926846.015 9  -3829861.95947  21299772.994    21299780.7254
  23716195.156    -4395280.252 7  -3397240.20745  23716194.830    23716211.8344
  21800377.835    -9110753.183 8  -7084247.21847  21800377.613    21800386.0254
  24506398.591    21741738.174 7  16941457.00845  24506398.492    24506417.1044
  24242464.662     6970653.170 7   5459905.71545  24242464.691    24242475.7034
 01  5 22 22 18  0.0000000  0  9 15 17 18 14 21 23 29 03 26
  20457950.132   -10294529.395 9  -8008820.40147  20457949.586    20457957.4004
  21201026.618    -1281065.174 9   -993194.88747  21201026.305    21201034.8904
  20559865.768   -13503584.677 9 -10498608.36747  20559865.541    20559871.8444
  23236965.299   -10695780.047 8  -7677037.88745  23236965.075    23236978.3494
  21463878.719   -22911408.674 9 -17317803.46447  21463878.366    21463886.5954
  21308335.926    -4881850.024 9  -3794800.17447  21308335.436    21308343.1904
  23695743.338    -4502753.215 7  -3480984.89045  23695743.149    23695759.8334
  21791246.120    -9158740.664 8  -7121640.04847  21791245.884    21791254.2374
  24262081.407     7073739.228 7   5540232.38945  24262081.541    24262092.5174
 01  5 22 22 18 30.0000000  0  9 15 17 18 14 21 23 29 03 26
  20460700.202   -10280077.461 9  -7997559.17147  20460699.692    20460707.5884
  21208397.544    -1242331.875 8   -963013.14047  21208397.162    21208405.6404
  20565747.499   -13472675.835 9 -10474523.56947  20565747.279    20565753.6044
  23216307.263   -10804336.796 8  -7761627.23445  23216307.066    23216320.3144
  21457704.565   -22943854.238 9 -17343085.68547  21457704.200    21457712.3714
  21316932.948    -4836672.527 9  -3759596.95647  21316932.455    21316940.2184
  23675313.859    -4610109.645 8  -3564638.77445  23675313.682    23675330.0814
  21782211.123    -9206218.827 8  -7158635.99347  21782210.989    21782219.3794
  24281746.338     7177077.338 7   5620755.48245  24281746.286    24281757.2604
 01  5 22 22 19  0.0000000  0 10 15 17 18 14 21 23 29 03 26 09
  20463510.022   -10265312.080 9  -7986053.69547  20463509.507    20463517.3924
  21215823.994    -1203305.893 8   -932603.32347  21215823.581    21215832.0634
  20571685.616   -13441471.401 9 -10450208.42847  20571685.358    20571691.6194
  23195682.210   -10912721.171 8  -7846082.25945  23195681.994    23195695.0674
  21451576.782   -22976055.738 9 -17368177.72247  21451576.423    21451584.5644
  21325563.573    -4791318.206 9  -3724255.95347  21325563.090    21325570.9174
  23654906.501    -4717350.161 8  -3648202.33745  23654906.270    23654922.3744
  21773272.928    -9253189.125 8  -7195236.21247  21773272.857    21773281.2454
  24301457.784     7280661.179 7   5701470.04945  24301457.751    24301468.8274
  24431712.938    -1480312.829 7  -1141709.22644  24431711.678    24431724.2474
 01  5 22 22 19 30.0000000  0 10 15 17 18 14 21 23 29 03 26 09
  20466379.579   -10250232.534 9  -7974303.41247  20466379.031    20466386.9214
  21223306.250    -1163986.378 9   -901964.78347  21223305.871    21223314.2924
  20577679.608   -13409972.741 9 -10425664.03147  20577679.319    20577685.6314
  23175090.284   -11020930.295 8  -7930400.71345  23175090.189    23175103.2364
  21445495.492   -23008012.995 9 -17393079.43547  21445495.123    21445503.2974
  21334227.561    -4745788.462 9  -3688778.25647  21334227.072    21334234.9334
  23634521.481    -4824472.329 8  -3731673.68345  23634521.332    23634537.1484
  21764431.870    -9299649.818 9  -7231439.32847  21764431.717    21764440.1164
  24321215.184     7384487.905 7   5782373.89145  24321215.123    24321226.4704
  24420606.724    -1538674.823 7  -1187185.91745  24420606.166    24420618.2814
 01  5 22 22 20  0.0000000  0 10 15 17 18 14 21 23 29 03 26 09
  20469309.401   -10234836.252 9  -7962306.33547  20469308.862    20469316.7574
  21230844.764    -1124371.518 8   -871096.10547  21230844.352    21230852.7654
  20583729.527   -13378179.772 9 -10400890.30747  20583729.261    20583735.6024
  23154532.954   -11128959.809 8  -8014579.23745  23154532.771    23154545.5774
  21439460.791   -23039725.256 9 -17417790.25347  21439460.411    21439468.5894
  21342925.005    -4700083.160 9  -3653163.76347  21342924.501    21342932.3634
  23614159.803    -4931472.094 8  -3815049.67445  23614159.698    23614175.2164
  21755688.279    -9345597.645 9  -7267242.81447  21755688.121    21755696.5634
  24341018.468     7488556.337 7   5863466.07145  24341018.533    24341030.2334
  24409555.259    -1596750.299 7  -1232439.32445  24409554.307    24409567.1754
 01  5 22 22 20 30.0000000  0 10 15 17 18 14 21 23 29 03 26 09
  20472299.426   -10219124.110 9  -7950063.12547  20472298.842    20472306.7124
  21238439.319    -1084462.002 8   -839997.82147  21238438.925    21238447.3324
  20589835.035   -13346095.157 9 -10375889.32147  20589834.794    20589841.1174
  23134010.060   -11236808.364 8  -8098616.74145  23134009.799    23134022.3724
  21433472.320   -23071194.511 9 -17442311.71147  21433471.946    21433480.1694
  21351655.407    -4654204.962 9  -3617414.54947  21351654.916    21351662.7314
  23593821.493    -5038348.356 7  -3898329.40545  23593821.398    23593836.8504
  21747042.350    -9391032.335 8  -7302646.44247  21747042.126    21747050.5864
  24360867.528     7592862.173 7   5944743.20345  24360867.262    24360879.1954
  24398558.435    -1654537.716 7  -1277468.29645  24398557.900    24398570.8654
 01  5 22 22 21  0.0000000  0 10 15 17 18 14 21 23 29 03 26 09
  20475350.213   -10203092.389 9  -7937570.89447  20475349.610    20475357.4024
  21246090.746    -1044254.098 8   -808667.03447  21246090.328    21246098.6614
  20595996.433   -13313717.257 9 -10350659.80547  20595996.168    20596002.4474
  23113522.623   -11344469.849 8  -8182508.48745  23113522.412    23113534.7734
  21427530.751   -23102417.454 9 -17466641.23947  21427530.389    21427538.6214
  21360419.074    -4608152.002 9  -3581529.15847  21360418.560    21360426.2984
  23573507.655    -5145095.057 7  -3981508.20145  23573507.662    23573523.1314
  21738494.940    -9435948.822 8  -7337646.28047  21738494.773    21738503.1784
  24380761.665     7697405.810 7   6026205.67044  24380761.440    24380773.2624
  24387617.888    -1712030.897 7  -1322267.99245  24387617.294    24387630.5444
 01  5 22 22 21 30.0000000  0 10 15 17 18 14 21 23 29 03 26 09
  20478461.325   -10186743.560 9  -7924831.56247  20478460.737    20478468.5024
  21253798.301    -1003750.731 8   -777106.02247  21253797.872    21253806.2354
  20602212.771   -13281050.704 9 -10325205.36447  20602212.465    20602218.7254
  23093070.414   -11451945.076 8  -8266255.10345  23093070.300    23093082.7044
  21421635.203   -23133398.747 9 -17490782.46847  21421634.821    21421643.0094
  21369214.994    -4561929.191 9  -3545511.41547  21369214.491    21369222.2554
  23553218.365    -5251713.279 7  -4064586.89345  23553218.547    23553233.8734
  21730045.897    -9480348.944 8  -7372243.75847  21730045.702    21730054.1294
  24400699.721     7802181.094 7   6107848.63544  24400699.508    24400711.6604
  24376733.236    -1769229.864 7  -1366838.40745  24376732.670    24376745.7094
 01  5 22 22 22  0.0000000  0 10 15 17 18 14 21 23 29 03 26 09
  20481633.314   -10170074.551 9  -7911842.73847  20481632.731    20481640.5564
  21261562.503     -962949.088 8   -745312.56647  21261562.107    21261570.6754
  20608484.020   -13248094.598 9 -10299525.29547  20608483.734    20608490.0904
  23072654.677   -11559228.876 8  -8349852.56345  23072654.594    23072666.9504
  21415786.011   -23164136.373 9 -17514733.82447  21415785.610    21415793.8024
  21378043.409    -4515535.417 9  -3509360.45647  21378042.929    21378050.7274
  23532954.707    -5358198.022 8  -4147561.56745  23532954.815    23532970.0404
  21721695.884    -9524228.571 9  -7406435.65647  21721695.743    21721704.1464
  24420681.823     7907187.508 7   6189671.69144  24420681.614    24420693.9614
  24365905.561    -1826129.221 7  -1411175.38345  24365905.035    24365918.1184
 01  5 22 22 22 30.0000000  0 10 15 17 18 14 21 23 29 03 26 09
  20484865.939   -10153086.897 9  -7898605.62047  20484865.373    20484873.2404
  21269383.256     -921850.746 8   -713287.93447  21269382.902    21269391.5394
  20614809.746   -13214852.354 9 -10273622.26147  20614809.484    20614815.8934
  23052275.440   -11666320.671 8  -8433300.40545  23052275.482    23052287.6544
  21409982.743   -23194632.701 9 -17538497.16747  21409982.338    21409990.5734
  21386903.683    -4468974.179 9  -3473079.00747  21386903.185    21386911.0994
  23512716.710    -5464549.183 7  -4230432.15445  23512716.566    23512731.6844
  21713444.850    -9567587.968 9  -7440222.18547  21713444.725    21713453.0814
  24440706.931     8012419.846 7   6271670.79844  24440706.820    24440718.9244
  24355134.804    -1882728.246 7  -1455278.31545  24355134.591    24355147.8544
 01  5 22 22 23  0.0000000  0 10 15 17 18 14 21 23 29 03 26 09
  20488159.202   -10135780.439 9  -7885120.07247  20488158.663    20488166.5824
  21277260.525     -880456.199 8   -681032.48147  21277260.139    21277268.8174
  20621189.451   -13181326.767 9 -10247498.43747  20621189.208    20621195.6134
  23031933.202   -11773218.950 8  -8516597.45545  23031933.185    23031945.1964
  21404225.049   -23224889.470 9 -17562073.82847  21404224.634    21404232.8874
  21395795.418    -4422247.761 9  -3436668.83147  21395794.949    21395802.8944
  23492504.157    -5570764.908 8  -4313197.20245  23492503.958    23492519.2304
  21705292.916    -9610426.578 9  -7473602.89847  21705292.828    21705301.1484
  24460774.248     8117874.657 7   6353843.22844  24460774.359    24460786.5324
  24344421.916    -1939024.748 7  -1499145.52545  24344421.777    24344434.9414
 01  5 22 22 23 30.0000000  0 10 15 17 18 14 21 23 29 03 26 09
  20491513.882   -10118151.405 9  -7871383.17847  20491513.360    20491521.2344
  21285194.853     -838761.369 8   -648543.04847  21285194.427    21285203.2084
  20627623.646   -13147515.441 9 -10221151.96647  20627623.393    20627629.7184
  23011629.151   -11879917.064 8  -8599738.54945  23011629.041    23011640.7914
  21398513.557   -23254903.413 9 -17585461.27847  21398513.158    21398521.3924
  21404719.066    -4375353.819 9  -3400128.13547  21404718.602    21404726.5604
  23472318.654    -5676839.075 8  -4395851.97745  23472318.463    23472333.5254
  21697241.088    -9652739.438 9  -7506573.95247  21697240.913    21697249.1774
  24480884.190     8223552.376 7   6436189.40644  24480884.575    24480896.3724
  24333767.878    -1995012.207 7  -1542771.89445  24333767.694    24333780.5814
 01  5 22 22 24  0.0000000  0 10 15 17 18 14 21 23 29 03 26 09
  20494929.757   -10100200.914 9  -7857395.80647  20494929.206    20494937.0274
  21293185.907     -796767.951 8   -615820.94547  21293185.514    21293194.3524
  20634111.529   -13113421.853 9 -10194585.55247  20634111.252    20634117.5164
  22991363.223   -11986414.177 8  -8682723.03445  22991363.071    22991374.7124
  21392847.731   -23284677.372 9 -17608661.73647  21392847.340    21392855.5424
  21413673.877    -4328295.855 9  -3363459.62347  21413673.412    21413681.4264
  23452159.865    -5782771.427 8  -4478396.23345  23452159.728    23452174.7764
  21689289.101    -9694526.880 8  -7539135.57447  21689288.978    21689297.3064
  24501035.529     8329448.220 7   6518705.52844  24501035.996    24501047.8174
  24323172.346    -2050689.725 7  -1586156.79745  24323172.140    24323185.5624
 01  5 22 22 24 30.0000000  0  9 15 17 18 14 21 23 29 03 09
  20498407.507   -10081925.456 9  -7843155.20447  20498406.978    20498414.7744
  21301234.505     -754472.314 8   -582863.34547  21301234.083    21301242.9244
  20640653.435   -13079044.061 9 -10167797.67147  20640653.133    20640659.3814
  22971136.439   -12092704.888 8  -8765546.66745  22971136.284    22971147.9954
  21387228.073   -23314208.793 9 -17631673.19847  21387227.671    21387235.8394
  21422660.298    -4281072.207 9  -3326661.99847  21422659.831    21422667.7894
  23432029.168    -5888556.411 8  -4560825.67945  23432029.164    23432044.2174
  21681438.154    -9735784.351 8  -7571284.23047  21681437.933    21681446.3194
  24312636.851    -2106051.260 7  -1629295.48145  24312636.902    24312650.4524
 01  5 22 22 25  0.0000000  0  9 15 17 18 14 21 23 29 03 09
  20501945.985   -10063330.581 9  -7828665.70247  20501945.429    20501953.3124
  21309339.376     -711880.603 8   -549675.03247  21309338.982    21309347.8754
  20647247.787   -13044390.204 9 -10140794.67347  20647247.528    20647253.7884
  22950948.310   -12198792.483 8  -8848212.04546  22950948.110    22950959.9914
  21381653.291   -23343504.078 9 -17654500.65747  21381652.930    21381661.0944
  21431676.753    -4233690.673 9  -3289741.34247  21431676.299    21431684.2254
  23411926.030    -5994197.918 8  -4643143.31145  23411926.052    23411940.8864
  21673687.020    -9776516.527 9  -7603023.57547  21673686.829    21673695.1684
  24302161.461    -2161100.006 7  -1672190.36445  24302161.584    24302174.7774
 01  5 22 22 25 30.0000000  0  9 15 17 18 14 21 23 29 03 09
  20505546.331   -10044411.062 9  -7813923.24547  20505545.766    20505553.5844
  21317501.584     -668987.811 8   -516252.12347  21317501.221    21317510.1544
  20653895.376   -13009457.163 9 -10113574.13647  20653895.086    20653901.3264
  22930800.271   -12304670.204 8  -8930713.89346  22930800.018    22930811.9364
  21376124.154   -23372559.703 9 -17677141.36647  21376123.768    21376131.9134
  21440723.847    -4186148.149 9  -3252695.25447  21440723.366    21440731.3024
  23391851.550    -6099689.150 8  -4725343.84345  23391851.549    23391866.0634
  21666037.075    -9816717.559 8  -7634349.04847  21666036.855    21666045.0874
  24291746.688    -2215828.925 7  -1714836.07645  24291746.774    24291760.3014
 01  5 22 22 26  0.0000000  0  9 15 17 18 14 21 23 29 03 09
  20509208.078   -10025168.073 9  -7798928.72247  20509207.511    20509215.3784
  21325721.002     -625795.165 8   -482595.55747  21325720.601    21325729.4574
  20660595.470   -12974248.056 9 -10086138.48247  20660595.197    20660601.3744
  22910692.355   -12410336.740 8  -9013051.17546  22910692.118    22910703.9494
  21370640.208   -23401377.815 9 -17699596.99447  21370639.814    21370647.9554
  21449800.984    -4138447.504 9  -3215525.94247  21449800.482    21449808.4404
  23371805.519    -6205029.043 8  -4807426.46245  23371805.597    23371820.0874
  21658488.081    -9856387.471 9  -7665260.64447  21658487.911    21658496.1824
  24281392.928    -2270236.442 7  -1757231.37045  24281392.892    24281406.5054
 01  5 22 22 26 30.0000000  0  9 15 17 18 14 21 23 29 03 09
  20512931.975   -10005598.751 9  -7783679.91047  20512931.413    20512939.3504
  21333997.969     -582300.123 8   -448703.35647  21333997.521    21334006.3484
  20667348.271   -12938762.233 9 -10058487.19847  20667347.953    20667354.1474
  22890625.422   -12515787.251 8  -9095220.14846  22890625.281    22890637.1134
  21365201.792   -23429956.661 9 -17721866.18347  21365201.429    21365209.5924
  21458908.360    -4090587.870 9  -3178232.74247  21458907.867    21458915.8354
  23351789.137    -6310212.988 8  -4889387.57145  23351789.244    23351803.7634
  21651040.946    -9895522.944 9  -7695755.79647  21651040.707    21651048.9394
  24271101.206    -2324317.700 7  -1799372.43445  24271101.256    24271114.9604
 01  5 22 22 27  0.0000000  0  9 15 17 18 14 21 23 29 03 09
  20516717.657    -9985705.073 9  -7768178.36147  20516717.092    20516724.9984
  21342331.935     -538504.953 8   -414577.29047  21342331.491    21342340.3074
  20674152.794   -12903003.783 9 -10030623.48347  20674152.482    20674158.8064
  22870599.623   -12621021.859 8  -9177220.88346  22870599.484    22870611.2344
  21359808.293   -23458299.857 9 -17743951.75847  21359807.893    21359816.0194
  21468045.201    -4042573.342 9  -3140818.85847  21468044.742    21468052.7204
  23331802.529    -6415241.220 8  -4971227.34845  23331802.630    23331817.0614
  21643695.206    -9934125.066 9  -7725835.36747  21643694.982    21643703.1524
  24260872.188    -2378072.480 7  -1841259.10445  24260872.108    24260885.7404
 01  5 22 22 27 30.0000000  0  9 15 17 18 14 21 23 29 03 09
  20520565.115    -9965486.762 9  -7752423.84647  20520564.559    20520572.3564
  21350722.923     -494409.642 8   -380217.34747  21350722.512    21350731.1924
  20681008.848   -12866974.594 9 -10002548.80547  20681008.576    20681014.9274
  22850615.539   -12726038.318 8  -9259051.63046  22850615.338    22850626.9304
  21354459.413   -23486408.293 9 -17765854.40247  21354459.016    21354467.1104
  21477211.380    -3994405.499 9  -3103285.49347  21477210.896    21477218.7974
  23311845.918    -6520111.781 8  -5052944.27145  23311846.045    23311860.2974
  21636451.152    -9972192.625 9  -7755498.38347  21636450.957    21636459.1734
  24250705.417    -2431497.904 7  -1882889.18545  24250705.376    24250719.4424
 01  5 22 22 28  0.0000000  0  9 15 17 18 14 21 23 29 03 09
  20524474.742    -9944941.799 9  -7736414.80747  20524474.172    20524481.8904
  21359171.493     -450012.195 8   -345621.97547  21359171.054    21359179.7144
  20687916.544   -12830674.617 9  -9974263.12847  20687916.273    20687922.5644
  22830674.057   -12830832.380 8  -9340709.09146  22830673.674    22830685.0314
  21349155.349   -23514281.205 9 -17787573.52147  21349154.948    21349163.0324
  21486406.692    -3946084.204 9  -3065632.55347  21486406.190    21486414.0844
  23291920.361    -6624820.584 8  -5134535.15645  23291920.369    23291934.3614
  21629309.292   -10009722.776 9  -7784742.64947  21629309.121    21629317.4124
  24240602.526    -2484589.689 7  -1924259.22845  24240602.490    24240616.0224
 01  5 22 22 28 30.0000000  0  9 15 17 18 14 21 23 29 03 09
  20528446.597    -9924069.836 9  -7720150.95947  20528446.023    20528453.7784
  21367677.529     -405312.549 8   -310791.12447  21367677.135    21367685.9364
  20694875.456   -12794105.508 9  -9945767.73447  20694875.156    20694881.4994
  22810774.969   -12935401.715 8  -9422191.45046  22810774.670    22810785.8184
  21343896.084   -23541918.579 9 -17809109.11147  21343895.659    21343903.7664
  21495630.804    -3897611.047 9  -3027861.28947  21495630.265    21495638.1934
  23272025.927    -6729365.428 8  -5215998.27945  23272025.932    23272039.6074
  21622269.954   -10046714.306 9  -7813567.20747  21622269.774    21622278.1284
  24230563.271    -2537345.230 7  -1965367.29945  24230563.191    24230576.6834
 01  5 22 22 29  0.0000000  0  9 15 17 18 14 21 23 29 03 09
  20532480.633    -9902870.743 9  -7703632.20247  20532480.030    20532487.8724
  21376241.122     -360310.600 8   -275724.71547  21376240.756    21376249.6144
  20701885.071   -12757268.961 9  -9917063.95147  20701884.823    20701891.3044
  22790918.954   -13039743.714 8  -9503496.66746  22790918.776    22790930.0074
  21338681.338   -23569321.972 9 -17830462.36547  21338680.949    21338689.0224
  21504883.510    -3848987.726 9  -2989973.01847  21504883.009    21504890.9244
  23252163.218    -6833744.164 8  -5297331.99045  23252163.112    23252176.8024
  21615333.382   -10083166.326 9  -7841971.37247  21615333.166    21615341.5374
  24220588.837    -2589761.811 7  -2006211.25145  24220588.636    24220601.9684
 01  5 22 22 29 30.0000000  0  9 15 17 18 14 21 23 29 03 09
  20536576.977    -9881343.859 9  -7686858.01847  20536576.414    20536584.3604
  21384862.433     -315006.136 8   -240422.58947  21384861.998    21384870.7534
  20708945.469   -12720166.471 9  -9888152.93647  20708945.215    20708951.6984
  22771106.867   -13143855.961 8  -9584622.86346  22771106.611    22771117.8444
  21333511.078   -23596491.841 9 -17851633.66047  21333510.658    21333518.6934
  21514164.610    -3800215.547 9  -2951968.75247  21514164.074    21514171.9694
  23232332.355    -6937954.385 8  -5378534.40045  23232332.362    23232346.1434
  21608499.709   -10119077.152 9  -7869953.82347  21608499.527    21608507.9384
  24210679.442    -2641836.701 7  -2046788.95245  24210679.235    24210692.1684
 01  5 22 22 30  0.0000000  0  9 15 17 18 14 21 23 29 03 09
  20540735.992    -9859488.180 9  -7669827.63447  20540735.455    20540743.4154
  21393541.326     -269398.297 8   -204884.06347  21393540.940    21393549.5664
  20716056.393   -12682798.869 9  -9859035.34647  20716056.093    20716062.5104
  22751339.171   -13247735.349 8  -9665567.60746  22751338.766    22751349.9834
  21328385.194   -23623428.082 9 -17872622.90547  21328384.826    21328392.8224
  21523473.741    -3751295.398 9  -2913849.18647  21523473.260    21523481.2074
  23212533.902    -7041993.229 8  -5459603.28145  23212534.028    23212547.9834
  21601769.406   -10154445.220 9  -7897513.35347  21601769.236    21601777.5414
  24200835.302    -2693566.490 7  -2087097.77045  24200835.081    24200848.1374
 01  5 22 22 30 30.0000000  0  9 15 17 18 14 21 23 29 03 09
  20544957.834    -9837302.109 9  -7652539.79847  20544957.292    20544965.2904
  21402278.258     -223485.902 8   -169108.21547  21402277.861    21402286.4354
  20723217.466   -12645167.059 9  -9829711.88447  20723217.185    20723223.5854
  22731616.193   -13351378.400 8  -9746328.19746  22731615.901    22731627.1084
  21323303.851   -23650130.837 9 -17893430.21847  21323303.464    21323311.4324
  21532810.904    -3702227.732 9  -2875614.66447  21532810.476    21532818.5204
  23192768.497    -7145857.556 7  -5540536.17345  23192768.791    23192783.0364
  21595142.681   -10189268.511 9  -7924648.37147  21595142.564    21595150.8834
  24191057.564    -2744947.495 7  -2127134.80645  24191057.529    24191070.5124
 01  5 22 22 31  0.0000000  0  9 15 17 18 14 21 23 29 03 09
  20549242.105    -9814788.157 9  -7634996.47847  20549241.586    20549249.5754
  21411072.574     -177271.603 8   -133097.12347  21411072.163    21411080.8784
  20730427.952   -12607275.417 9  -9800185.94047  20730427.684    20730434.1314
  22711938.194   -13454785.443 8  -9826904.89846  22711937.983    22711949.1794
  21318266.202   -23676603.565 9 -17914058.28847  21318265.852    21318273.8544
  21542175.436    -3653016.928 9  -2837268.61247  21542175.002    21542183.1044
  23173036.248    -7249547.719 8  -5621333.37145  23173036.731    23173051.0414
  21588619.311   -10223548.898 9  -7951360.34947  21588619.220    21588627.5854
  24181346.387    -2795980.177 7  -2166900.39045  24181346.352    24181358.8174
 01  5 22 22 31 30.0000000  0  9 15 17 18 14 21 23 29 03 09
  20553589.861    -9791940.465 9  -7617193.09847  20553589.346    20553597.3264
  21419925.317     -130749.861 8    -96846.46447  21419924.974    21419933.7394
  20737688.677   -12569120.033 9  -9770454.48947  20737688.447    20737694.9054
  22692306.755   -13557948.430 8  -9907291.43546  22692306.534    22692317.7414
  21313273.210   -23702841.580 9 -17934503.46147  21313272.878    21313280.8784
  21551567.979    -3603658.903 9  -2798807.84747  21551567.550    21551575.6614
  23153338.971    -7353056.284 8  -5701989.05445  23153339.397    23153353.5954
  21582200.628   -10257279.497 9  -7977643.92147  21582200.494    21582208.8594
  24171702.967    -2846656.033 7  -2206387.94745  24171702.949    24171715.2574
 01  5 22 22 32  0.0000000  0  9 15 17 18 14 21 23 29 03 09
  20558000.173    -9768764.107 9  -7599133.62647  20557999.663    20558007.6294
  21428835.716      -83925.766 8    -60360.22347  21428835.336    21428844.1544
  20744998.325   -12530708.033 9  -9740523.09247  20744998.066    20745004.5034
  22672721.360   -13660870.375 8  -9987490.15846  22672721.022    22672732.1674
  21308323.750   -23728850.959 9 -17954770.48247  21308323.415    21308331.4324
  21560987.252    -3554160.504 9  -2760237.71147  21560986.799    21560994.8874
  23133675.915    -7456386.010 8  -5782505.39745  23133676.220    23133690.1344
  21575885.659   -10290464.811 9  -8003502.60847  21575885.555    21575893.8894
  24162127.123    -2896977.700 7  -2245599.53345  24162126.977    24162139.2294
 01  5 22 22 32 30.0000000  0  9 15 17 18 14 21 23 29 03 09
  20562473.589    -9745256.375 9  -7580815.92947  20562473.076    20562481.0084
  21437804.016      -36797.035 8    -23636.58047  21437803.657    21437812.5604
  20752356.831   -12492038.654 9  -9710391.13647  20752356.592    20752363.0004
  22653182.395   -13763546.670 8 -10067497.44846  22653182.189    22653193.3294
  21303418.027   -23754630.321 9 -17974858.26747  21303417.711    21303425.7184
  21570433.340    -3504521.018 9  -2721557.63047  21570432.920    21570440.9504
  23114047.506    -7559532.683 8  -5862879.12145  23114047.798    23114061.5224
  21569675.074   -10323101.650 9  -8028933.90247  21569674.955    21569683.2844
  24152619.564    -2946940.618 7  -2284531.56445  24152619.300    24152631.5124
 01  5 22 22 33  0.0000000  0  9 15 17 18 14 21 23 29 03 09
  20567010.011    -9721417.205 9  -7562239.97147  20567009.506    20567017.4144
  21446830.221       10635.992 8     13324.17347  21446829.899    21446838.8904
  20759763.935   -12453113.954 9  -9680060.22647  20759763.715    20759770.1814
  22633690.910   -13865975.333 8 -10147311.79246  22633690.552    22633701.6364
  21298555.944   -23780181.062 9 -17994767.91147  21298555.587    21298563.5394
  21579905.937    -3454742.238 9  -2682769.00447  21579905.502    21579913.5394
  23094454.297    -7662494.499 8  -5943108.79645  23094454.532    23094468.1874
  21563569.005   -10355189.330 9  -8053937.28747  21563568.832    21563577.1754
  24143180.479    -2996542.583 7  -2323182.35445  24143180.214    24143192.4234
 01  5 22 22 33 30.0000000  0  9 15 17 18 14 21 23 29 03 09
  20571610.130    -9697243.861 9  -7543403.62247  20571609.601    20571617.4334
  21455914.839       58375.944 8     50524.08847  21455914.490    21455923.5184
  20767219.806   -12413933.084 9  -9649529.69347  20767219.593    20767226.0844
  22614247.312   -13968151.241 8 -10226929.16946  22614247.002    22614257.9984
  21293737.583   -23805501.659 9 -18014498.21747  21293737.213    21293745.1374
  21589405.326    -3404823.070 9  -2643870.97847  21589404.876    21589412.8364
  23074897.014    -7765266.732 8  -6023190.74945  23074897.382    23074910.9084
  21557568.052   -10386724.261 9  -8078509.95247  21557567.916    21557576.2894
  24133811.213    -3045778.689 7  -2361548.03345  24133811.060    24133822.9634
 01  5 22 22 34  0.0000000  0  9 15 17 18 14 21 23 29 03 09
  20576273.556    -9672737.214 9  -7524307.55147  20576273.043    20576280.9424
  21465057.687      106421.796 8     87962.35647  21465057.350    21465066.3604
  20774723.964   -12374498.821 9  -9618801.71547  20774723.748    20774730.2494
  22594851.868   -14070073.411 8 -10306348.84546  22594851.681    22594862.5664
  21288962.649   -23830593.806 9 -18034050.51047  21288962.318    21288970.2194
  21598930.868    -3354766.300 9  -2604865.73547  21598930.412    21598938.3724
  23055376.167    -7867848.420 8  -6103124.23045  23055376.505    23055389.9534
  21551672.227   -10417706.770 9  -8102652.15147  21551672.128    21551680.5434
  24124511.458    -3094647.517 7  -2399627.53645  24124511.299    24124523.4324
 01  5 22 22 34 30.0000000  0  9 15 17 18 14 21 23 29 03 09
  20581000.623    -9647896.295 9  -7504951.01047  20581000.120    20581008.0564
  21474258.925      154774.230 8    125639.51447  21474258.570    21474267.5114
  20782276.062   -12334812.338 9  -9587877.19747  20782275.830    20782282.3454
  22575505.371   -14171738.602 8 -10385568.26846  22575505.223    22575516.0604
  21284231.346   -23855457.285 9 -18053424.62247  21284230.964    21284238.8154
  21608482.434    -3304572.587 9  -2565753.78547  21608481.999    21608489.9774
  23035892.400    -7970236.356 8  -6182906.74245  23035892.564    23035905.8674
  21545881.861   -10448135.354 9  -8126362.72347  21545881.707    21545890.1434
  24115282.154    -3143145.561 7  -2437418.12745  24115282.009    24115294.5754
 01  5 22 22 35  0.0000000  0  9 15 17 18 14 21 23 29 03 09
  20585791.326    -9622721.152 9  -7485334.04347  20585790.833    20585798.7614
  21483518.452      203433.005 8    163555.38647  21483518.100    21483526.9684
  20789875.698   -12294875.401 9  -9556757.53047  20789875.499    20789882.0674
  22556208.373   -14273144.652 8 -10464585.76446  22556208.163    22556218.8794
  21279543.195   -23880093.466 9 -18072621.62547  21279542.799    21279550.6754
  21618059.709    -3254243.954 9  -2526536.70947  21618059.259    21618067.3084
  23016445.713    -8072429.060 8  -6262537.12945  23016445.767    23016458.8364
  21540197.074   -10478009.386 9  -8149641.18447  21540196.892    21540205.2674
  24106123.635    -3191270.664 7  -2474918.11845  24106123.758    24106136.6364
 01  5 22 22 35 30.0000000  0  9 15 17 18 14 21 23 29 03 09
  20590646.006    -9597209.822 9  -7465455.10547  20590645.503    20590653.4314
  21492836.562      252399.802 8    201711.27447  21492836.209    21492845.0974
  20797523.119   -12254688.012 9  -9525442.71147  20797522.934    20797529.5554
  22536961.311   -14374287.833 8 -10543398.44246  22536961.076    22536971.6954
  21274898.359   -23904501.935 9 -18091641.19047  21274897.985    21274905.9194
  21627662.614    -3203780.107 8  -2487214.26647  21627662.181    21627670.2824
  22997036.681    -8174422.705 8  -6342012.41645  22997036.713    22997049.7614
  21534618.117   -10507326.397 9  -8172485.60847  21534617.974    21534626.3764
  24097037.556    -3239018.904 7  -2512124.42845  24097037.618    24097050.1254
 01  5 22 22 36  0.0000000  0  9 15 17 18 14 21 23 29 03 09
  20595564.471    -9571363.152 9  -7445314.86147  20595563.978    20595571.9784
  21502213.065      301673.445 8    240106.25547  21502212.728    21502221.6304
  20805217.702   -12214252.990 9  -9493934.92247  20805217.518    20805224.1344
  22517764.505   -14475166.706 8 -10622005.15446  22517764.287    22517774.8284
  21270296.569   -23928684.166 9 -18110484.46447  21270296.221    21270304.1564
  21637290.720    -3153183.662 9  -2447788.48847  21637290.336    21637298.5084
  22977665.700    -8276216.062 8  -6421331.63845  22977665.754    22977678.8044
  21529145.207   -10536086.742 9  -8194896.26647  21529145.113    21529153.4194
  24088023.510    -3286388.789 7  -2549035.92045  24088023.468    24088036.0494
 01  5 22 22 36 30.0000000  0  9 15 17 18 14 21 23 29 03 09
  20600546.276    -9545183.337 9  -7424915.02247  20600545.799    20600553.8654
  21511647.437      351251.530 8    278738.47047  21511647.127    21511656.1004
  20812958.531   -12173574.601 9  -9462237.50047  20812958.349    20812964.9674
  22498617.950   -14575781.390 8 -10700406.01346  22498617.752    22498628.3784
  21265737.103   -23952643.962 9 -18129154.42047  21265736.767    21265744.7824
  21646943.351    -3102458.635 8  -2408262.53847  21646942.963    21646951.1774
  22958332.796    -8377809.725 8  -6500495.26645  22958332.937    22958346.0234
  21523777.980   -10564292.009 9  -8216874.39947  21523777.849    21523786.1474
  24079081.195    -3333380.330 7  -2585652.58545  24079081.141    24079093.6794
 01  5 22 22 37  0.0000000  0  9 15 17 18 14 21 23 29 03 09
  20605592.265    -9518666.296 9  -7404252.41247  20605591.776    20605599.9014
  21521140.443      401137.787 8    317610.82447  21521140.155    21521149.2294
  20820746.043   -12132650.749 9  -9430348.80747  20820745.907    20820752.5044
  22479522.716   -14676126.148 8 -10778596.54446  22479522.571    22479533.2804
  21261220.526   -23976378.298 9 -18147648.67947  21261220.204    21261228.2934
  21656620.891    -3051602.758 9  -2368634.62147  21656620.534    21656628.8114
  22939039.140    -8479197.739 8  -6579498.64045  22939039.254    22939052.3634
  21518517.076   -10591938.001 9  -8238416.72847  21518516.941    21518525.2914
  24070211.653    -3379987.350 7  -2621969.69545  24070211.680    24070224.5434
 01  5 22 22 37 30.0000000  0  9 15 17 18 14 21 23 29 03 09
  20610702.491    -9491811.845 9  -7383326.88947  20610702.018    20610710.1274
  21530692.146      451332.241 8    356723.32747  21530691.892    21530701.0214
  20828580.055   -12091483.092 9  -9398270.12947  20828579.904    20828586.4524
  22460479.390   -14776198.302 8 -10856574.64946  22460479.314    22460490.0074
  21256746.740   -23999888.263 9 -18165968.10447  21256746.401    21256754.4804
  21666323.186    -3000617.385 9  -2328905.78647  21666322.826    21666331.0094
  22919784.983    -8580377.872 8  -6658340.03446  22919785.094    22919798.2064
  21513362.780   -10619023.611 9  -8259522.39247  21513362.699    21513371.1024
  24061416.015    -3426207.589 7  -2657985.37445  24061416.078    24061429.2194
 01  5 22 22 38  0.0000000  0  9 15 17 18 14 21 23 29 03 09
  20615876.795    -9464620.951 9  -7362139.20747  20615876.326    20615884.3784
  21540302.297      501833.683 8    396075.03647  21540301.999    21540311.2084
  20836459.922   -12050074.285 9  -9366003.54847  20836459.729    20836466.3044
  22441488.285   -14875996.946 8 -10934339.64646  22441488.201    22441498.7054
  21252315.198   -24023175.786 9 -18184114.20447  21252314.879    21252323.0014
  21676049.653    -2949505.240 9  -2289078.18047  21676049.223    21676057.3554
  22900570.569    -8681349.246 8  -6737018.77046  22900570.615    22900583.6414
  21508315.078   -10645549.117 9  -8280191.61347  21508315.023    21508323.5114
  24052694.916    -3472039.589 8  -2693698.51445  24052694.945    24052707.6544
 01  5 22 22 38 30.0000000  0  9 15 17 18 14 21 23 29 03 09
  20621115.217    -9437093.078 9  -7340688.94047  20621114.709    20621122.7644
  21549970.821      552642.342 8    435666.12947  21549970.596    21549979.7974
  20844385.300   -12008426.011 9  -9333550.37247  20844385.122    20844391.6574
  22422549.924   -14975519.330 8 -11011889.36446  22422549.722    22422559.9104
  21247926.034   -24046241.234 9 -18202087.26447  21247925.697    21247933.7934
  21685799.833    -2898267.472 8  -2249152.68447  21685799.443    21685807.5674
  22881396.486    -8782109.511 8  -6815532.99946  22881396.409    22881409.2594
  21503374.312   -10671513.594 9  -8300423.67847  21503374.214    21503382.6554
  24044048.137    -3517480.651 7  -2729107.00245  24044047.923    24044060.2434
 01  5 22 22 39  0.0000000  0  9 15 17 18 14 21 23 29 03 09
  20626418.099    -9409226.411 9  -7318974.67847  20626417.578    20626425.6924
  21559698.332      603759.758 8    475497.81746  21559698.031    21559707.1984
  20852356.330   -11966538.188 9  -9300910.53447  20852356.144    20852362.6714
  22403664.749   -15074761.630 8 -11089220.82646  22403664.446    22403674.5234
  21243579.174   -24069084.190 9 -18219886.94647  21243578.826    21243586.9194
  21695574.001    -2846903.891 9  -2209129.15447  21695573.607    21695581.7234
  22862263.250    -8882654.895 8  -6893879.79446  22862263.105    22862275.5794
  21498540.650   -10696915.211 9  -8320217.15047  21498540.510    21498548.8604
  24035475.836    -3562526.880 7  -2764207.86545  24035475.627    24035487.9394
 01  5 22 22 39 30.0000000  0  9 15 17 18 14 21 23 29 03 09
  20631785.664    -9381019.547 9  -7296995.32847  20631785.162    20631793.2904
  21569484.747      655187.076 8    515570.98646  21569484.446    21569493.5354
  20860372.861   -11924411.296 9  -9268084.40347  20860372.664    20860379.1924
  22384833.236   -15173720.563 8 -11166331.48646  22384833.013    22384843.1504
  21239274.723   -24091703.953 9 -18237512.71547  21239274.396    21239282.4404
  21705372.066    -2795414.871 9  -2169007.86847  21705371.654    21705379.7474
  22843171.526    -8982982.257 8  -6972056.69846  22843171.342    22843183.5134
  21493814.251   -10721752.029 9  -8339570.50747  21493814.182    21493822.5544
  24026979.595    -3607174.635 7  -2798998.19545  24026979.349    24026991.6304
 01  5 22 22 40  0.0000000  0  9 15 17 18 14 21 23 29 03 09
  20637217.944    -9352472.974 9  -7274751.27447  20637217.461    20637225.5374
  21579329.910      706923.623 8    555885.10946  21579329.571    21579338.6694
  20868434.451   -11882047.596 9  -9235073.74547  20868434.283    20868440.7994
  22366056.069   -15272394.271 8 -11243219.92046  22366055.862    22366066.0484
  21235012.439   -24114102.366 9 -18254966.00847  21235012.087    21235020.1884
  21715193.580    -2743802.456 8  -2128790.44447  21715193.164    21715201.3354
  22824121.359    -9083090.094 8  -7050062.55346  22824121.210    22824133.3974
  21489195.453   -10746023.882 9  -8358483.64147  21489195.380    21489203.7714
  24018559.288    -3651422.336 7  -2833476.83945  24018559.048    24018571.6554
 01  5 22 22 40 30.0000000  0  9 15 17 18 14 21 23 29 03 09
  20642714.912    -9323586.470 9  -7252242.33147  20642714.376    20642722.4624
  21589233.682      758969.243 8    596440.07846  21589233.405    21589242.6684
  20876540.645   -11839449.002 9  -9201880.04947  20876540.462    20876547.1004
  22347333.676   -15370780.621 8 -11319884.41946  22347333.443    22347343.6634
  21230792.004   -24136280.577 9 -18272247.71047  21230791.689    21230799.8094
  21725038.323    -2692068.084 9  -2088477.97247  21725037.939    21725046.1714
  22805113.353    -9182976.267 8  -7127895.68646  22805113.269    22805125.4404
  21484684.256   -10769730.266 9  -8376956.14047  21484684.163    21484692.5564
  24010215.866    -3695267.672 7  -2867641.92145  24010215.684    24010228.3864
 01  5 22 22 41  0.0000000  0  9 15 17 18 14 21 23 29 03 09
  20648276.226    -9294361.254 9  -7229469.45247  20648275.736    20648283.8734
  21599196.197      811322.486 8    637234.75746  21599195.957    21599205.2374
  20884691.094   -11796618.344 9  -9168505.52547  20884690.919    20884697.5034
  22328666.125   -15468878.584 8 -11396324.20146  22328665.877    22328676.0504
  21226613.043   -24158241.016 9 -18289359.72147  21226612.712    21226620.8184
  21734905.691    -2640214.683 8  -2048072.75747  21734905.289    21734913.6464
  22786147.634    -9282640.227 8  -7205555.66746  22786147.559    22786159.8104
  21480280.465   -10792872.108 9  -8394988.74347  21480280.371    21480288.7474
  24001948.989    -3738709.667 7  -2901492.72345  24001948.877    24001961.7314
 01  5 22 22 41 30.0000000  0  9 15 17 18 14 21 23 29 03 09
  20653902.435    -9264795.373 9  -7206431.13447  20653901.961    20653910.0494
  21609217.766      863984.836 8    678270.28246  21609217.410    21609226.7224
  20892885.728   -11753555.463 9  -9134950.05447  20892885.526    20892892.0444
  22310054.050   -15566684.255 8 -11472536.24646  22310053.892    22310064.0154
  21222475.742   -24179982.426 9 -18306301.06247  21222475.436    21222483.5184
  21744795.782    -2588241.955 8  -2007574.56047  21744795.351    21744803.6444
  22767224.827    -9382078.092 8  -7283039.48046  22767224.959    22767237.3594
  21475984.620   -10815447.065 9  -8412579.63047  21475984.565    21475992.8944
  23993759.924    -3781744.187 7  -2935026.00545  23993759.755    23993772.5254
 01  5 22 22 42  0.0000000  0  9 15 17 18 14 21 23 29 03 09
  20659593.602    -9234888.392 9  -7183127.01647  20659593.071    20659601.1564
  21619297.945      916956.812 8    719547.09546  21619297.592    21619307.0394
  20901124.184   -11710261.984 9  -9101214.89547  20901123.993    20901130.5274
  22291498.222   -15664195.212 8 -11548518.63346  22291498.037    22291508.0944
  21218380.063   -24201505.503 9 -18323072.27547  21218379.742    21218387.8494
  21754708.461    -2536150.882 8  -1966984.15347  21754707.999    21754716.1784
  22748345.748    -9481287.594 8  -7360345.34246  22748345.858    22748358.3064
  21471796.786   -10837454.518 9  -8429728.29547  21471796.645    21471805.0294
  23985648.883    -3824368.587 7  -2968239.69445  23985648.701    23985661.1184
